GFSSGP_250_rhum_000.txt.gz
RH
15 15 31 41 72 72 65 99 100 99 100 100 100 80 66 66 88 95 94 93 74 66 56 100 95 78 69 75 75 82 69 55 45 39 32 26 22 21 20 20 18 18 21 23 24 23 23 28 26
18 15 16 26 38 70 63 71 100 100 100 98 100 96 80 77 78 97 100 100 100 90 81 100 96 78 81 93 98 91 77 64 48 36 29 23 19 16 16 16 17 20 22 22 24 23 23 22 22
16 16 14 16 20 42 66 72 100 100 100 100 98 80 92 85 90 84 97 100 100 100 95 92 100 100 100 100 100 99 99 75 68 64 53 24 19 20 18 19 25 26 30 27 24 22 21 24 24
17 17 16 15 16 21 88 97 100 100 100 100 100 100 100 100 96 84 74 94 100 100 100 93 100 100 99 100 100 94 90 97 98 63 30 21 20 20 20 19 17 23 26 26 22 22 19 22 16
13 15 15 18 17 18 23 73 100 100 100 100 94 100 98 100 100 90 80 80 93 100 100 100 100 100 100 99 88 86 74 70 88 53 29 22 20 20 18 18 18 17 21 24 22 15 17 16 14
14 13 14 17 18 16 17 60 100 100 74 100 100 94 90 89 100 100 94 78 89 100 100 100 100 98 100 96 90 99 86 81 78 52 34 25 22 22 20 20 21 19 19 20 14 13 13 16 25
14 14 14 15 16 15 15 16 63 100 100 100 100 99 100 76 86 96 100 88 75 90 96 85 88 93 99 100 98 73 65 83 83 54 38 24 20 21 22 22 22 23 22 15 14 15 20 35 44
13 14 14 15 15 16 16 15 16 40 100 100 100 95 100 94 77 95 68 100 100 100 100 87 74 95 100 100 78 85 100 88 46 34 28 24 25 28 24 28 30 25 16 15 19 23 43 54 55
21 18 16 15 16 16 13 14 13 15 22 100 100 96 95 90 92 92 98 63 65 76 94 95 95 100 88 56 70 95 90 60 42 31 30 31 36 33 33 30 21 19 16 21 29 52 63 58 51
23 21 22 17 15 14 11 15 15 13 14 46 91 100 88 85 100 99 84 82 85 75 68 67 54 98 100 100 92 76 62 48 38 33 36 45 42 38 34 21 18 17 19 37 57 61 58 40 28
26 26 21 23 18 15 12 14 21 25 13 16 41 98 100 100 100 100 80 60 73 96 98 82 54 44 58 73 64 59 52 45 43 36 46 47 40 38 24 18 17 19 26 54 61 48 31 26 26
26 28 28 23 22 20 17 12 18 31 27 15 18 35 100 100 100 100 90 77 80 100 100 92 86 70 59 60 64 62 54 49 49 45 45 44 40 26 20 19 23 25 46 58 45 33 25 25 23
28 31 32 32 22 22 20 17 17 23 35 17 18 19 64 100 100 100 99 85 64 74 95 100 89 82 84 76 61 53 51 51 47 59 46 46 32 20 22 31 45 65 56 43 32 28 24 27 23
30 28 25 29 30 22 22 20 15 21 31 18 23 18 22 54 100 100 100 100 100 78 85 81 98 100 99 86 61 61 49 54 66 59 54 28 19 24 31 46 77 66 39 24 21 22 27 31 27
33 27 24 23 28 27 21 20 18 24 22 24 21 24 22 29 57 96 100 100 100 93 100 80 98 96 82 72 55 51 50 64 64 53 31 18 22 30 49 83 76 47 27 24 24 25 29 31 31
33 25 27 30 28 29 22 24 24 22 20 22 23 24 25 29 25 30 61 100 100 100 100 84 82 83 84 57 51 58 65 62 54 28 17 25 41 57 78 82 74 52 47 34 29 27 27 28 27
39 31 34 40 40 35 26 36 27 24 20 20 23 22 24 30 27 26 32 89 100 100 100 100 89 79 82 75 62 70 68 52 21 18 24 39 74 84 95 88 80 76 65 52 42 38 37 37 35
50 38 45 54 70 43 30 32 35 26 22 20 24 21 26 30 28 25 34 72 86 100 100 97 84 81 91 90 77 71 39 16 17 21 38 74 87 96 98 88 77 70 65 60 53 48 43 47 48
58 36 45 62 69 59 50 32 33 30 22 19 24 22 30 30 24 24 28 52 49 69 86 81 75 86 100 83 60 27 15 19 20 25 72 86 83 77 81 77 60 55 52 45 41 38 33 30 35
76 46 54 71 76 72 56 53 32 40 29 20 23 22 28 29 24 23 26 26 34 51 66 66 73 78 53 33 19 16 17 20 20 45 77 60 38 40 38 37 32 22 14 11 12 13 12 12 12
78 57 67 73 73 62 90 61 42 42 38 23 24 24 24 29 24 24 27 30 38 46 62 74 54 32 22 20 19 22 26 25 39 37 30 21 17 16 16 17 19 21 20 18 18 18 19 19 16
76 66 82 94 93 53 45 43 39 42 37 22 23 24 26 27 24 25 28 34 47 69 73 43 27 24 24 24 32 40 35 31 27 23 22 20 20 19 20 22 20 21 20 18 18 17 18 17 16
69 64 66 67 71 63 42 30 33 39 35 25 24 26 30 24 22 29 30 44 73 73 48 31 27 28 36 37 34 32 28 25 24 24 24 22 21 21 24 23 22 20 19 18 17 17 15 14 14
51 55 46 53 58 47 64 38 44 39 38 27 23 27 29 23 24 36 38 55 71 58 36 32 29 31 32 31 29 26 24 24 24 24 24 28 28 24 24 23 21 19 18 18 16 14 13 14 12
40 54 50 50 48 32 61 36 58 70 50 26 26 31 28 24 25 41 41 66 64 46 36 32 30 34 32 29 28 28 28 28 28 31 32 30 26 24 23 22 23 23 23 22 17 15 13 12 11
25 30 25 21 25 39 62 38 86 97 44 23 27 29 23 21 26 43 54 66 54 42 36 32 33 33 30 30 30 32 30 30 33 35 35 30 27 25 24 23 23 23 23 18 15 14 14 13 12
10 9 18 18 20 29 41 62 100 64 26 26 28 28 30 20 29 44 64 61 48 41 36 32 35 31 31 34 32 29 32 34 34 34 31 28 28 27 24 22 22 26 21 18 16 15 15 15 14
8 12 10 19 24 34 60 94 72 35 31 30 31 32 30 20 36 50 63 56 48 43 37 34 38 33 29 29 29 33 34 35 34 31 31 28 27 28 24 24 26 26 21 19 17 18 17 17 18
7 13 23 29 51 75 88 87 79 60 48 43 37 36 29 25 40 50 62 58 49 45 39 36 40 35 29 35 36 36 37 34 34 32 30 30 36 32 26 26 28 25 22 20 19 19 20 23 26
13 21 62 91 89 100 97 100 100 92 53 38 32 35 25 35 50 58 61 61 54 48 43 38 41 34 37 42 38 38 37 36 34 36 34 39 39 29 27 31 29 24 22 20 21 23 27 28 33

GFSSGP_250_rhum_003.txt.gz
RH
23 22 18 17 15 16 18 23 25 88 100 100 100 90 68 79 74 79 96 97 80 57 58 56 49 45 57 100 94 73 57 64 66 73 58 55 41 33 36 36 22 18 17 17 16 16 17 19 24
17 16 14 13 14 16 22 32 53 83 100 100 100 99 88 85 90 72 91 100 100 90 69 58 57 53 54 91 100 82 77 88 97 90 78 78 68 69 60 39 23 20 19 18 18 17 18 22 28
15 16 12 14 15 16 17 29 42 74 100 100 100 100 96 100 100 95 74 85 100 100 92 73 63 60 60 71 100 100 100 100 90 88 100 84 66 72 52 35 24 22 19 19 19 17 18 17 18
13 14 15 14 17 17 17 20 44 96 100 100 100 100 100 100 100 100 100 78 79 99 100 100 73 65 71 74 65 98 100 99 63 78 85 71 78 76 56 41 29 25 22 21 18 17 16 19 17
12 13 13 15 16 15 16 20 25 38 60 100 100 100 100 100 100 100 95 99 84 83 96 100 100 81 93 93 75 88 100 100 100 100 100 92 91 70 61 52 38 27 21 21 19 19 19 23 22
12 13 14 16 14 12 15 18 21 26 35 69 91 99 100 100 100 100 100 100 100 94 91 98 100 96 97 100 93 88 71 92 100 100 94 78 72 73 50 35 29 25 22 22 26 25 21 19 19
12 11 14 16 16 12 15 16 19 20 27 66 100 100 100 100 100 100 100 97 100 100 100 100 100 88 93 100 100 100 98 100 100 100 67 56 72 84 56 34 29 26 22 26 27 26 18 18 17
16 15 16 16 16 16 13 15 16 18 20 27 77 100 100 100 100 100 100 100 100 100 100 100 100 92 80 89 95 82 86 100 100 76 55 79 73 50 39 35 33 28 29 24 32 23 16 17 19
21 22 28 27 20 15 12 13 13 14 16 20 25 54 100 100 100 100 100 100 97 100 94 84 94 100 100 100 100 100 96 94 98 76 65 70 57 54 44 40 38 35 23 30 26 17 16 19 32
22 24 29 28 25 21 13 14 14 14 15 16 18 21 62 100 100 100 100 100 100 92 86 85 84 82 82 86 85 75 66 65 90 94 76 62 51 54 46 43 40 37 37 31 20 18 19 24 51
24 27 26 27 27 24 18 18 15 15 17 17 15 14 16 52 100 100 100 100 100 99 88 96 91 91 68 65 70 70 62 59 52 50 42 54 44 44 46 46 53 41 39 25 17 27 36 52 52
22 23 23 26 26 26 22 21 20 16 18 15 15 13 16 19 28 80 100 100 100 100 100 100 100 92 84 78 71 65 72 64 57 55 57 54 61 42 47 60 54 38 31 20 28 48 56 45 30
36 30 25 25 25 25 27 22 23 21 18 16 15 14 14 16 19 22 51 98 100 97 91 100 99 87 78 78 82 77 78 81 74 69 70 72 60 46 42 53 51 35 20 30 50 59 44 29 27
39 38 30 28 31 28 23 24 19 25 26 19 16 14 14 17 25 26 29 55 100 100 93 94 100 98 99 84 79 89 91 82 80 76 78 66 67 46 45 48 31 19 31 47 69 62 49 35 28
38 37 34 29 32 30 27 25 25 27 26 24 18 14 14 15 27 32 34 42 92 100 100 100 93 91 86 80 76 68 72 74 62 70 67 73 66 46 54 35 20 32 64 75 79 67 61 50 42
39 36 36 40 33 30 24 27 28 29 22 25 24 16 14 15 20 32 37 40 40 87 100 100 100 100 100 100 97 72 92 88 71 74 83 86 64 59 27 18 35 60 85 87 85 73 74 68 61
48 46 42 38 32 30 23 25 29 26 24 23 25 23 16 15 17 25 32 36 38 46 70 96 99 100 100 100 100 91 81 88 86 89 90 83 69 36 16 26 63 81 99 98 87 73 59 54 50
45 40 44 43 42 38 34 26 27 23 25 27 22 23 21 18 18 18 25 34 36 38 35 39 49 66 96 100 100 100 100 95 82 78 84 74 43 15 18 50 69 56 57 64 46 34 25 19 16
44 46 44 46 48 46 51 29 30 28 24 32 26 22 24 21 19 19 21 30 33 33 32 32 39 52 79 85 100 100 99 87 86 89 58 24 16 20 27 59 34 31 27 23 22 21 21 22 22
57 52 46 50 54 52 62 45 35 32 30 32 35 25 26 25 21 22 22 27 31 32 31 27 39 68 80 94 96 99 96 93 62 37 18 16 21 28 39 24 17 18 20 22 24 23 21 20 19
56 54 49 49 58 49 58 55 36 38 38 40 42 34 27 28 26 24 25 27 30 29 26 23 24 39 77 89 92 84 52 32 23 18 22 32 36 30 26 25 22 22 23 25 24 22 22 19 18
58 51 46 41 49 45 51 58 48 38 42 50 53 36 36 31 27 31 31 31 29 28 26 23 20 30 62 82 60 28 23 21 22 38 43 38 29 26 27 26 27 26 25 25 24 22 22 21 21
52 63 44 42 45 44 47 44 56 40 62 67 72 53 36 38 32 32 31 32 29 29 30 24 23 39 74 60 28 26 30 35 42 39 34 30 27 28 28 26 26 27 25 23 23 23 22 22 22
49 58 50 46 46 30 55 35 55 60 58 64 54 54 39 34 33 33 34 33 31 29 33 24 25 61 66 36 28 31 39 37 35 34 28 28 29 29 30 28 30 30 26 24 24 21 21 21 22
45 53 49 42 35 25 51 32 46 66 69 61 63 56 46 30 31 34 36 34 29 27 32 25 36 67 49 31 32 32 34 34 33 30 29 32 32 31 34 35 32 28 26 23 23 25 24 23 24
30 34 30 30 28 32 50 23 34 67 93 94 79 70 47 36 33 31 38 35 27 27 35 29 46 64 40 34 33 34 33 33 32 30 31 34 32 37 37 35 32 30 27 26 26 30 26 24 20
27 27 41 32 24 27 28 28 31 53 95 100 77 78 52 43 34 35 40 37 28 29 35 33 54 54 38 36 33 33 32 34 34 32 34 32 37 39 36 33 32 31 29 28 30 30 24 23 20
16 15 13 12 13 11 18 18 29 57 99 98 80 86 60 39 34 35 36 38 31 35 39 44 56 48 39 36 35 37 34 31 31 33 37 38 37 37 34 32 32 30 28 29 33 26 26 24 19
6 7 9 9 10 10 13 20 45 72 96 82 84 85 72 43 38 38 34 34 38 44 44 59 62 49 41 37 35 35 36 34 32 40 44 38 36 34 33 33 32 31 32 36 29 27 26 21 21
3 5 8 9 10 11 14 19 34 65 81 77 89 73 58 38 36 31 30 33 47 60 56 61 59 49 42 40 38 35 37 37 35 42 44 39 36 35 35 36 33 34 36 32 28 29 24 21 19

GFSSGP_250_rhum_006.txt.gz
RH
35 30 22 23 26 31 39 39 32 30 27 26 28 50 47 73 76 82 97 85 78 64 54 61 57 58 53 49 47 47 48 87 100 75 56 50 80 89 56 46 39 34 34 30 25 24 22 23 19
36 30 28 33 30 31 29 25 24 26 26 24 30 33 46 80 100 97 97 100 91 86 69 56 64 66 58 57 55 51 55 64 100 89 63 96 81 70 59 58 45 41 45 38 37 33 30 26 23
37 33 30 25 22 21 19 18 18 19 19 22 24 26 52 99 100 100 100 100 100 94 85 71 57 52 57 62 54 50 50 63 87 89 86 99 68 73 88 59 49 51 55 46 39 35 26 22 19
23 23 18 15 16 16 18 17 16 17 18 24 29 36 52 99 100 100 100 100 100 100 97 87 70 67 63 59 58 54 49 55 70 63 66 100 100 100 100 100 89 68 53 44 39 36 26 24 24
15 15 14 13 12 13 15 16 16 17 19 21 31 34 100 100 100 100 100 100 100 100 100 94 91 93 86 81 73 76 61 57 68 45 40 93 98 100 100 93 75 43 45 60 51 32 29 26 21
12 12 11 14 14 12 11 14 16 18 18 17 20 26 83 100 100 100 100 100 100 100 100 100 99 90 90 95 81 76 82 75 91 76 63 66 71 94 100 76 54 43 53 43 37 37 31 24 21
16 17 19 19 19 15 12 11 13 14 15 17 20 27 38 88 100 100 100 100 100 100 100 100 100 100 95 90 93 91 83 87 91 100 100 100 100 100 100 78 66 61 52 43 38 28 28 31 32
18 18 25 25 21 15 12 11 11 13 12 14 16 21 27 70 99 100 100 100 100 100 100 100 100 100 100 100 96 95 92 81 80 85 97 98 100 100 99 84 71 53 44 38 34 30 32 35 28
21 21 28 25 21 16 12 10 11 11 12 12 14 17 21 24 36 99 100 100 100 100 100 100 98 99 100 100 100 100 100 92 84 100 82 98 79 70 70 78 46 44 37 42 34 31 34 40 32
24 27 28 26 23 21 14 13 14 13 14 14 13 14 18 20 26 60 100 100 100 100 100 100 97 94 99 100 100 100 92 90 94 98 100 96 77 62 59 51 41 46 46 43 33 31 33 38 20
28 31 32 30 25 24 24 23 16 19 16 15 13 12 14 18 21 26 35 99 100 100 100 100 99 98 97 98 100 100 99 81 93 94 84 79 73 63 48 56 58 58 52 47 40 35 34 24 26
34 32 31 38 28 22 20 22 24 22 24 16 13 13 14 18 20 21 24 31 67 97 100 100 100 100 96 95 100 93 91 98 92 79 69 68 68 58 70 75 69 59 60 58 39 43 28 26 43
38 36 34 42 38 28 19 18 24 27 26 22 18 14 13 16 18 20 20 22 24 34 69 100 100 100 100 100 100 100 87 87 94 90 84 84 75 79 73 79 66 53 60 50 49 30 24 45 62
42 47 49 38 44 42 29 20 16 24 29 25 22 17 14 14 18 19 20 20 21 22 26 56 91 100 98 93 97 97 93 81 84 85 87 81 80 80 85 73 55 48 63 64 40 20 37 63 67
47 39 45 53 46 40 34 29 25 25 21 28 23 19 15 14 14 19 20 22 20 22 24 22 36 65 100 96 79 77 89 80 93 96 98 83 79 89 98 69 63 55 68 50 20 41 67 70 71
49 45 43 46 45 41 33 37 34 28 21 24 26 21 19 17 15 17 19 22 24 20 21 23 24 37 72 89 93 80 62 66 74 90 92 83 100 100 81 70 71 66 63 26 22 51 56 66 66
72 56 53 44 44 41 36 34 38 27 24 23 26 25 22 19 18 20 22 22 22 24 24 29 36 32 64 97 90 100 82 83 90 98 100 100 100 100 84 89 79 68 32 18 41 36 38 36 27
84 59 50 49 51 44 39 36 43 34 25 26 23 25 25 25 21 22 22 24 24 25 25 30 36 32 28 46 82 93 98 100 100 100 100 100 100 100 91 88 79 31 18 34 33 18 21 23 24
75 71 56 61 54 54 39 34 44 41 28 27 27 22 23 25 25 22 25 27 26 26 25 28 34 33 33 29 29 26 32 42 49 82 87 100 100 95 78 72 30 17 29 28 20 21 23 25 25
69 61 50 52 52 50 47 36 38 41 40 34 34 27 24 24 28 23 24 28 29 29 28 31 31 32 40 34 27 28 42 92 100 100 100 100 90 80 58 23 19 31 32 26 25 26 25 28 28
67 74 78 63 56 49 46 39 34 47 41 38 40 35 32 28 28 29 24 27 29 32 33 32 34 29 42 28 27 37 60 85 100 100 95 78 55 33 21 28 39 31 27 29 28 29 28 29 27
65 84 76 65 59 54 49 34 44 46 47 55 53 43 35 36 30 32 29 25 27 29 36 36 35 29 33 28 27 29 32 75 80 78 44 31 23 36 44 44 33 29 29 31 30 29 30 30 29
55 62 62 72 64 56 56 28 42 45 51 62 70 52 44 45 43 33 34 29 27 30 32 38 40 30 32 29 27 24 42 54 69 36 24 27 45 49 39 32 30 28 29 31 32 34 36 33 31
44 49 48 48 46 30 46 27 34 61 51 70 75 61 61 75 75 51 35 35 31 35 39 39 34 30 31 29 27 29 46 68 44 27 33 43 39 35 33 31 31 32 32 31 34 38 37 35 33
36 35 28 24 22 13 30 27 37 60 98 73 84 69 62 68 90 98 56 38 34 38 44 45 33 31 31 28 30 31 58 62 35 30 32 36 33 31 32 34 35 34 32 33 37 38 35 33 29
17 16 14 15 14 13 22 19 29 39 78 99 97 80 69 80 95 100 82 43 41 40 47 46 42 32 30 29 32 39 68 56 36 34 31 31 32 33 35 37 34 33 32 35 38 35 32 30 30
11 15 22 15 14 13 16 20 30 31 48 83 100 87 74 73 82 77 66 50 43 42 48 51 49 35 31 30 33 51 71 55 38 35 32 34 33 34 40 40 35 34 39 37 35 32 32 34 32
5 8 11 11 13 13 17 23 26 41 50 57 100 88 77 75 83 66 79 61 46 43 46 56 48 38 34 32 38 56 69 54 40 37 36 36 37 34 33 32 37 43 42 39 34 36 36 34 30
4 4 4 5 7 9 11 17 24 39 52 63 91 89 74 72 83 68 80 69 46 47 49 54 47 40 38 39 46 58 65 54 43 39 38 36 36 37 38 37 37 38 37 38 42 38 35 31 28
4 3 4 5 5 4 5 13 30 33 39 54 82 85 71 74 86 80 85 65 41 42 45 52 46 42 41 46 50 53 63 57 47 42 40 37 34 35 36 41 43 40 44 46 43 36 32 29 27

GFSSGP_250_rhum_009.txt.gz
RH
36 33 37 36 25 37 39 32 24 21 26 32 31 24 32 41 41 42 70 77 75 56 65 76 68 61 52 42 53 59 54 51 49 48 48 91 93 85 60 91 70 66 52 41 37 32 29 27 27
40 38 38 35 24 33 34 35 31 26 25 33 30 35 28 29 29 37 56 92 97 95 71 71 76 75 65 57 49 53 55 57 51 49 52 53 62 74 67 99 74 68 57 55 53 41 55 40 29
32 30 26 26 28 40 32 30 30 26 24 28 26 27 36 35 31 32 56 89 100 100 100 93 78 90 86 67 58 54 46 43 45 45 47 56 62 64 53 93 100 91 88 91 87 73 47 34 30
34 29 25 36 46 36 34 31 27 26 27 29 28 24 23 24 27 32 56 69 100 100 100 100 97 96 94 91 78 62 51 43 38 40 44 42 58 65 48 53 86 100 99 99 90 67 46 46 37
40 34 30 28 28 27 28 25 25 23 21 20 18 18 18 18 23 25 43 97 84 100 100 100 100 100 100 97 95 93 77 58 47 40 42 47 36 50 43 39 50 48 83 99 85 63 71 53 34
32 25 20 18 19 19 19 21 22 19 17 16 16 16 17 17 18 20 26 67 100 100 100 100 100 100 100 100 100 100 92 81 66 60 50 46 46 44 54 63 64 62 95 100 93 83 56 36 33
15 15 16 16 16 15 14 15 15 15 13 13 13 16 18 18 19 21 24 33 63 89 100 100 100 100 100 100 100 100 100 99 93 87 80 74 66 54 61 79 92 100 95 81 75 78 45 36 38
19 18 20 19 15 13 12 12 11 11 11 10 11 15 16 18 19 19 19 26 37 79 100 100 100 100 100 100 100 100 99 100 97 90 92 91 83 77 70 89 79 99 76 63 64 53 42 40 45
21 24 27 20 16 14 11 13 14 15 15 12 12 13 14 15 16 19 21 26 27 87 99 100 100 100 100 100 100 100 100 100 100 100 100 100 98 98 100 100 97 92 88 73 58 47 46 52 50
24 24 30 24 19 17 14 12 14 18 18 15 12 12 11 13 15 17 22 26 32 48 74 75 83 98 100 100 100 100 100 100 100 100 100 100 100 95 93 96 97 93 85 77 65 55 54 57 45
33 33 35 32 26 22 16 17 17 19 19 16 13 11 11 12 13 16 21 24 24 29 68 94 86 95 96 95 100 100 100 100 100 100 100 100 100 95 88 81 78 76 72 82 73 60 58 50 43
42 36 39 39 30 22 20 20 21 22 25 16 14 13 13 12 12 13 15 20 23 23 26 32 84 86 83 82 82 82 88 92 92 84 94 94 100 98 98 99 91 91 91 84 68 60 51 56 46
40 42 40 42 40 33 27 23 23 27 25 18 17 16 17 16 14 12 12 15 20 23 22 25 33 93 100 97 84 85 82 79 76 81 81 84 92 97 86 88 100 92 84 77 65 60 61 63 56
95 54 44 41 42 39 33 29 26 35 28 20 17 17 17 20 20 15 14 14 17 19 22 21 24 26 45 81 96 100 91 94 85 78 75 76 86 100 91 81 81 89 96 82 67 67 70 70 57
100 86 59 44 41 42 40 41 38 28 28 31 21 17 19 20 21 23 18 14 16 17 18 20 21 21 23 25 31 45 66 84 82 73 66 82 86 100 89 89 86 95 97 93 72 80 82 74 56
100 100 76 61 44 41 40 40 41 38 32 36 32 22 17 18 21 25 23 23 16 17 17 17 20 22 21 19 19 22 31 42 65 63 62 65 62 57 61 82 83 83 95 97 90 99 85 63 29
100 100 100 84 78 60 51 42 41 37 35 35 38 37 28 24 21 24 27 25 24 20 18 18 19 21 23 22 23 29 21 29 43 58 75 61 50 54 65 89 100 100 100 100 100 94 73 36 26
95 100 100 99 96 83 66 47 56 45 45 38 33 37 36 30 25 23 24 30 26 24 20 19 22 23 24 23 21 21 23 26 42 86 98 99 99 100 99 100 100 100 100 100 99 85 41 28 24
83 74 94 100 97 91 68 48 46 50 46 45 37 38 37 33 27 23 22 27 30 26 24 21 20 24 26 24 22 29 48 52 40 31 35 33 45 64 79 93 98 100 100 100 80 43 28 31 26
82 64 86 100 100 78 70 54 59 57 56 53 46 40 42 39 33 28 24 24 28 31 26 27 25 23 26 26 29 27 35 55 47 28 25 29 54 93 99 100 100 100 96 65 30 26 34 28 27
100 100 85 73 75 77 76 79 72 76 66 54 55 56 47 43 40 33 28 25 26 31 32 28 28 27 26 40 64 40 28 44 46 30 27 45 74 100 100 99 82 55 35 29 35 35 32 28 28
99 86 67 68 60 63 68 50 56 55 69 59 59 61 62 49 44 40 35 29 28 29 33 32 30 32 38 40 74 42 26 38 32 28 29 32 54 88 88 58 31 32 39 42 42 34 30 27 28
58 60 55 50 46 43 46 36 47 82 94 83 72 70 63 57 51 49 40 29 28 29 32 37 33 36 52 32 49 42 32 38 30 28 25 28 58 74 51 30 43 46 48 41 34 31 28 29 32
49 50 46 40 35 26 34 31 36 67 98 92 85 79 69 56 57 50 42 33 29 34 35 37 37 35 39 53 45 38 33 30 31 28 26 41 59 63 33 37 48 42 37 36 33 31 33 36 37
46 37 34 36 37 32 36 34 35 50 61 79 88 79 81 68 69 52 51 39 40 42 44 40 41 36 38 44 46 34 28 32 33 30 31 52 70 53 35 32 36 37 35 35 34 34 38 40 39
45 34 32 29 24 18 22 23 43 49 74 73 99 70 61 70 67 61 54 45 51 63 58 55 44 42 40 46 47 41 33 32 32 31 38 64 69 54 41 34 35 36 36 35 34 36 40 34 32
31 20 15 10 9 9 11 19 28 33 34 68 86 100 70 72 78 67 55 47 77 79 73 63 51 47 43 49 52 43 38 33 34 34 41 63 66 59 46 44 39 36 35 38 38 40 41 38 36
14 8 6 4 3 5 9 16 26 20 16 53 69 100 100 77 89 77 74 49 60 86 83 80 60 48 48 53 54 49 45 35 36 37 40 58 68 61 52 47 44 42 39 37 36 35 36 36 36
22 12 4 2 2 2 5 11 22 15 13 35 57 100 100 73 92 78 81 61 62 75 76 67 66 56 49 53 53 52 49 41 41 36 39 53 68 68 56 49 46 44 42 41 41 42 43 40 40
41 15 7 4 2 2 3 8 15 14 12 22 43 83 100 79 66 76 82 80 76 81 66 55 58 60 55 50 53 58 52 48 42 40 38 43 64 78 68 58 50 46 45 45 46 50 46 43 44

GFSSGP_250_rhum_012.txt.gz
RH
34 33 35 39 48 55 40 30 30 30 33 32 24 28 35 36 42 48 58 69 82 66 56 50 55 51 59 70 61 60 60 53 47 51 53 44 46 44 43 50 69 68 76 87 75 64 60 53 52
33 33 36 48 46 44 44 36 36 27 29 34 26 21 21 31 38 34 36 49 60 64 62 69 74 47 48 70 76 67 66 64 60 63 58 53 43 48 57 59 57 62 66 89 94 86 76 66 72
34 36 40 40 34 37 42 34 29 30 28 25 30 26 24 26 21 25 29 34 51 57 73 67 62 80 52 66 73 78 72 69 69 65 64 59 53 49 48 52 52 53 49 51 67 97 95 92 66
25 28 29 30 34 30 28 32 35 30 29 22 22 19 22 25 26 24 26 29 34 44 48 55 78 74 80 68 83 89 84 77 76 72 69 66 50 45 42 42 43 53 48 40 42 39 40 39 50
36 34 32 38 31 26 29 25 23 21 20 19 17 18 17 20 21 26 27 28 36 46 56 54 67 85 100 95 97 96 94 92 85 74 74 70 62 53 46 40 41 47 48 55 44 49 49 72 98
44 40 37 51 33 28 26 21 20 18 18 16 15 17 18 21 29 29 32 30 31 39 53 54 80 82 100 100 100 100 100 100 97 93 81 75 73 75 65 57 50 49 50 49 58 91 100 95 81
64 51 55 58 50 33 25 20 25 22 18 17 21 21 25 27 25 23 22 23 24 25 31 40 66 95 97 100 100 100 100 100 100 99 96 88 81 74 72 70 66 67 66 67 67 96 94 91 81
66 59 56 44 36 29 23 21 21 20 19 19 19 20 21 23 20 18 18 18 19 20 21 29 35 75 100 100 100 100 100 100 100 100 100 100 99 93 81 77 75 82 88 93 100 100 100 99 91
52 36 19 20 20 18 15 15 15 15 15 14 15 16 16 16 15 14 15 17 18 20 19 20 24 27 76 100 100 100 100 100 100 100 100 100 100 100 100 98 100 100 95 94 100 97 98 91 82
35 27 21 17 16 17 15 14 13 15 14 14 15 15 13 12 11 10 11 15 18 19 18 19 22 21 27 50 79 100 97 100 100 100 100 98 93 100 100 100 100 100 100 100 88 77 80 76 78
38 38 38 36 26 20 17 18 17 18 16 15 13 14 18 15 12 11 11 11 14 16 16 17 18 20 21 24 45 78 100 100 100 99 92 100 99 96 100 100 100 100 100 100 100 91 90 95 91
56 48 49 44 40 32 21 21 20 20 20 15 16 13 15 18 16 14 12 11 11 13 15 15 17 20 26 32 58 89 87 100 100 100 100 100 100 100 100 100 92 89 86 89 96 98 97 84 78
67 66 53 62 58 40 30 27 25 29 27 21 19 16 19 19 18 16 14 12 12 14 14 14 15 18 20 27 46 83 78 66 67 68 90 87 86 82 78 82 80 76 79 75 92 98 84 78 77
62 71 60 64 87 85 56 34 31 31 27 27 25 25 24 24 21 19 20 18 17 15 14 14 14 14 17 21 24 29 48 80 77 71 66 70 66 67 70 69 74 78 79 69 88 84 85 79 86
75 59 65 67 72 98 81 63 37 37 32 36 30 28 26 26 26 22 21 22 22 22 21 17 14 14 15 17 21 23 26 32 72 83 94 87 87 78 79 82 93 78 72 71 66 75 84 94 75
80 77 54 59 63 78 92 84 54 36 34 40 37 35 31 29 32 27 22 22 22 23 24 23 18 15 15 17 19 22 22 23 24 26 36 37 38 39 38 44 58 62 61 55 51 59 72 94 98
100 89 83 87 62 62 88 99 82 60 47 36 34 35 37 36 34 38 33 22 20 20 22 25 23 19 16 18 19 19 22 22 22 21 21 22 20 18 24 49 59 66 94 91 92 86 94 100 100
100 93 73 72 94 72 58 97 100 81 78 65 51 41 35 38 38 34 36 35 25 24 23 22 24 23 20 17 17 23 24 34 30 27 25 21 17 20 33 65 88 96 100 100 100 100 100 100 100
99 100 94 87 85 83 79 93 100 100 100 100 94 70 44 42 44 41 35 36 33 30 27 21 18 25 24 21 17 18 35 47 47 29 22 21 28 28 28 28 29 29 40 59 76 93 100 100 96
100 100 100 94 90 84 78 62 79 100 100 100 100 81 62 60 55 47 38 34 36 34 33 26 22 20 24 22 20 32 58 73 72 50 26 25 34 42 38 29 29 48 80 100 100 100 100 92 75
96 92 88 77 66 70 74 68 84 80 100 100 100 98 90 85 69 53 48 38 35 35 34 28 25 21 21 24 24 28 51 64 60 57 37 27 30 50 42 30 31 60 77 97 100 84 69 39 31
90 94 82 83 96 89 87 58 85 89 100 97 100 100 99 82 69 60 53 47 43 39 35 29 27 24 22 24 26 28 37 49 55 55 44 38 36 42 33 28 30 38 55 90 71 46 30 33 49
100 100 100 100 97 77 93 50 41 74 88 94 81 82 92 85 75 58 64 50 46 40 40 33 29 25 23 25 30 46 71 53 52 60 54 51 38 39 30 28 27 28 46 63 45 35 45 56 41
95 85 84 82 74 46 54 39 33 58 60 66 64 65 71 73 68 56 68 56 54 52 47 38 34 27 26 26 31 48 68 77 56 53 72 62 39 40 32 30 27 30 44 55 35 39 43 42 39
74 73 57 49 52 49 40 32 29 43 45 48 65 82 74 73 73 63 66 57 68 65 55 45 39 31 28 32 31 46 61 64 60 55 64 58 42 37 33 32 28 31 44 55 40 37 36 40 42
65 65 72 55 45 39 32 27 33 36 39 44 46 57 55 49 51 61 65 62 76 75 60 49 43 36 30 36 39 42 44 45 61 60 49 49 44 36 35 33 29 32 51 59 47 41 42 42 41
69 58 53 46 42 28 19 13 11 18 26 21 34 46 63 57 42 51 69 73 87 84 79 58 47 40 37 41 51 55 52 54 54 68 57 50 41 38 38 34 30 32 57 61 56 49 46 46 49
56 51 42 37 26 22 16 9 6 7 10 13 13 34 53 62 54 48 74 80 87 72 75 68 62 47 47 60 68 66 58 58 53 54 50 51 52 44 40 34 30 34 57 61 61 57 54 51 49
61 81 55 39 20 5 3 4 2 2 4 7 11 22 42 60 62 55 65 98 98 76 73 72 61 48 71 87 82 83 72 68 68 64 58 57 56 51 42 32 32 41 48 57 69 75 72 64 60
77 58 42 32 22 10 3 2 2 2 2 4 6 12 31 52 60 66 60 95 98 90 87 69 58 56 81 93 87 91 84 72 64 62 65 67 60 56 42 33 37 38 40 50 53 58 66 66 59

GFSSGP_250_rhum_015.txt.gz
RH
43 42 41 40 49 54 56 57 43 34 33 32 30 31 32 35 29 28 47 54 56 58 50 37 43 62 59 42 37 37 30 27 34 45 41 45 46 43 37 36 46 42 37 40 41 41 51 73 80
34 40 44 44 46 50 56 52 45 41 42 34 35 33 34 33 37 29 30 36 52 49 45 44 48 50 48 44 49 42 38 33 34 49 50 42 48 54 53 50 44 46 45 48 49 49 48 53 68
31 30 37 49 40 42 39 38 35 38 51 43 38 34 31 29 34 33 30 27 27 33 38 39 45 49 54 62 55 58 53 46 40 55 63 64 62 65 64 52 46 50 49 52 53 51 49 52 50
25 27 27 32 42 40 39 30 28 38 40 38 38 37 35 29 28 30 29 26 28 29 35 36 35 46 59 65 58 72 78 75 52 46 70 78 74 70 73 69 61 56 50 49 47 43 47 53 50
28 28 25 27 29 27 30 30 34 44 43 38 32 35 34 30 32 31 27 32 30 29 28 26 28 28 38 64 75 76 87 84 83 72 68 83 84 83 82 80 75 68 60 56 53 49 44 41 44
36 37 37 44 26 29 30 31 33 29 32 31 29 29 28 30 26 23 24 24 31 31 37 36 30 31 37 58 62 77 87 100 98 92 93 94 93 90 92 92 87 82 74 61 59 64 60 60 62
67 58 54 60 37 32 30 25 30 26 26 28 25 25 22 22 22 23 25 30 29 32 35 48 53 45 45 54 70 78 100 100 100 100 100 100 100 100 96 97 95 88 84 76 72 72 69 59 82
80 81 83 95 55 38 30 33 31 29 27 26 32 23 19 24 26 25 26 28 29 33 36 39 45 44 41 44 59 100 100 100 100 100 100 100 100 100 100 100 100 100 100 100 93 93 87 97 88
75 81 100 88 62 60 47 40 39 45 37 35 33 29 21 23 22 22 22 23 26 29 32 33 31 33 33 36 37 41 76 100 100 100 100 100 100 100 100 100 100 100 100 100 100 78 100 100 100
81 82 98 79 69 68 60 56 47 43 34 29 23 20 17 18 18 19 18 18 19 21 21 22 20 20 19 19 19 21 22 45 64 95 100 100 99 88 100 100 100 100 100 100 100 100 100 100 100
89 94 86 79 70 64 55 48 43 38 24 17 15 14 14 14 14 14 14 13 13 14 14 15 15 16 18 17 18 19 18 22 31 45 99 100 100 100 93 98 97 100 100 100 100 99 100 100 100
75 83 77 68 63 54 45 36 28 24 18 14 14 14 14 14 14 14 13 13 14 14 13 12 11 10 12 16 18 19 20 22 23 25 28 58 99 98 100 100 100 100 100 100 100 100 100 90 80
81 78 67 62 56 51 43 36 33 27 27 18 17 16 18 18 18 17 17 16 15 18 18 17 14 12 11 13 16 18 19 22 21 22 25 40 42 87 88 100 100 100 100 96 92 84 76 66 66
91 78 64 61 63 55 49 48 43 39 30 30 29 24 22 22 21 18 20 18 18 17 18 18 18 15 12 12 13 15 16 18 22 28 37 47 65 84 88 83 79 81 69 68 64 63 66 72 72
89 81 74 66 59 64 58 60 56 58 68 65 42 34 29 30 30 28 25 25 23 23 21 20 19 17 15 13 13 17 16 16 18 23 27 30 41 58 82 89 92 79 67 60 58 79 72 71 67
94 91 82 89 61 63 62 64 64 65 81 88 70 70 52 38 36 33 31 28 25 23 23 22 20 19 18 15 15 14 18 18 16 18 22 23 24 27 28 40 52 62 71 65 42 41 44 46 57
97 100 97 93 79 74 70 55 57 62 66 90 85 81 65 60 44 36 35 31 29 27 24 24 24 20 18 16 19 18 25 25 32 26 20 19 24 24 23 22 20 22 18 16 19 49 79 97 100
100 100 100 100 100 99 81 68 75 59 58 60 73 96 86 73 61 54 44 38 33 32 31 29 27 25 20 17 17 20 25 28 23 29 21 19 22 22 22 21 21 23 18 21 28 35 53 55 63
100 100 100 100 100 91 91 84 82 82 64 69 62 59 99 78 65 67 61 49 40 34 31 33 32 31 28 22 17 16 20 24 29 36 24 20 20 22 25 30 26 22 25 29 32 25 24 24 46
100 100 100 100 100 97 98 96 91 83 69 68 71 94 100 100 100 96 80 64 50 46 35 31 34 32 29 30 23 20 24 32 34 40 32 26 27 33 38 42 28 24 27 33 39 29 24 30 43
90 87 90 88 93 99 98 93 91 85 90 84 86 85 92 100 100 100 86 80 74 65 53 35 37 34 30 32 29 25 25 27 30 31 41 43 43 41 43 56 48 28 28 33 35 28 26 31 30
97 95 88 84 86 92 99 79 86 97 99 79 85 94 88 84 82 97 100 97 100 99 71 48 45 44 31 32 31 28 25 26 29 31 39 57 57 63 63 69 58 36 29 38 32 26 25 24 29
100 99 90 90 86 80 86 77 79 98 100 98 82 66 57 60 77 90 100 100 91 81 71 66 51 49 43 34 34 32 28 26 27 31 31 32 63 77 77 77 65 47 40 44 37 27 24 24 36
100 99 100 96 90 82 98 70 58 100 85 81 80 68 66 76 67 63 88 86 95 86 90 84 72 57 47 40 37 36 31 28 25 31 35 38 50 77 86 80 78 67 54 48 42 28 25 26 36
100 100 95 90 92 91 85 70 68 98 51 46 45 45 55 60 80 84 88 85 87 85 73 95 84 62 58 47 43 38 37 33 38 38 39 48 62 79 82 81 80 80 72 52 41 30 28 28 36
100 100 97 79 75 56 44 39 45 43 48 27 22 28 33 44 61 79 74 73 75 76 81 90 84 73 66 62 60 49 43 39 55 57 54 50 73 85 91 85 86 97 84 58 42 32 31 33 38
63 46 47 50 59 56 57 57 42 45 31 26 20 16 24 29 38 42 53 52 54 60 67 83 96 87 70 73 74 59 57 66 45 58 65 55 82 95 96 82 79 81 83 59 46 35 34 35 41
67 82 94 96 75 56 49 34 24 14 10 9 10 9 10 17 32 40 40 46 42 45 50 71 68 72 72 81 74 72 68 64 48 48 55 70 70 69 66 65 66 62 64 65 48 40 39 37 38
98 85 71 61 54 51 41 50 6 13 13 12 9 6 5 7 16 26 32 42 40 41 51 63 74 70 83 95 76 77 78 68 70 74 77 81 84 70 56 55 67 70 66 59 51 50 44 40 36
73 67 79 88 65 44 32 24 16 8 6 4 4 3 2 4 10 16 24 33 48 46 53 56 73 77 88 93 80 80 82 74 75 82 93 96 85 74 64 55 50 54 59 60 60 57 50 43 41

GFSSGP_250_rhum_018.txt.gz
RH
100 93 72 64 61 58 55 53 54 48 43 35 44 39 36 42 31 29 28 30 27 26 26 18 26 29 24 20 23 27 33 29 24 22 22 19 20 33 39 43 45 44 39 35 33 41 38 36 42
74 92 90 76 57 53 54 49 48 46 43 44 37 41 37 33 31 33 31 30 27 26 26 26 33 33 29 33 28 27 34 41 40 29 22 26 26 24 34 40 41 53 53 48 45 40 40 41 42
67 63 69 79 70 54 52 44 43 42 55 49 48 47 43 35 41 38 31 34 32 33 30 28 29 28 30 33 28 27 31 43 52 53 50 43 42 39 33 46 54 56 71 69 59 53 45 46 44
65 51 57 57 46 45 46 42 43 41 42 40 50 50 41 43 43 39 37 36 34 34 34 34 31 32 28 28 38 37 40 43 48 56 63 64 68 58 53 48 61 72 73 76 73 68 62 60 52
58 44 34 43 46 36 36 32 38 39 43 44 42 45 33 41 48 47 42 39 35 34 32 32 34 34 33 37 38 38 49 56 61 62 81 89 81 94 83 74 71 75 86 83 83 82 79 76 66
51 49 31 38 31 35 33 31 29 39 39 37 39 33 29 37 39 44 44 38 35 38 36 31 29 30 29 30 32 37 34 46 71 78 89 93 90 97 92 87 91 88 88 90 89 90 90 89 81
58 49 39 26 26 28 27 25 27 32 30 38 35 39 37 32 39 42 41 38 36 36 36 32 29 26 28 27 30 38 34 37 39 66 100 100 99 99 100 100 99 97 98 100 100 100 97 95 89
77 61 56 58 37 38 31 23 21 28 29 26 28 38 26 32 54 39 33 31 27 26 26 26 24 21 22 27 30 32 40 42 40 53 66 89 100 100 100 100 100 100 100 100 100 100 100 100 100
75 68 86 86 69 61 38 33 31 38 38 32 39 38 24 26 37 28 28 30 27 24 21 22 19 19 22 25 28 31 38 43 55 52 52 59 89 100 100 100 100 100 100 100 100 100 100 100 100
87 91 100 77 56 61 66 55 56 52 52 49 47 33 30 30 38 36 30 28 25 24 22 21 23 24 26 29 31 36 39 45 48 51 49 48 48 56 94 100 100 100 100 100 100 98 100 100 100
100 100 98 81 72 70 68 59 59 54 64 71 63 62 55 54 50 39 30 28 24 19 17 16 17 19 19 20 20 24 28 29 30 30 30 32 32 36 34 64 100 98 94 100 100 100 100 100 100
100 100 100 95 82 83 73 59 58 60 62 60 59 60 52 48 41 37 29 22 18 15 13 13 13 12 14 14 19 16 16 17 19 20 19 18 18 20 21 24 30 58 81 88 100 100 97 100 100
100 100 100 98 92 99 72 66 63 61 62 56 51 47 40 32 29 25 24 18 15 14 13 12 12 12 15 16 17 18 17 16 17 17 18 18 18 20 20 21 22 25 31 39 68 95 98 100 100
100 100 100 100 100 94 88 74 61 61 57 51 43 39 36 32 27 22 18 15 15 15 16 15 14 15 15 14 20 20 22 25 23 22 18 18 20 19 18 20 25 33 43 47 54 50 75 87 82
100 100 100 100 100 98 68 63 70 66 57 52 46 42 41 35 30 25 24 20 17 17 20 19 17 14 13 15 20 23 24 26 19 18 14 15 18 19 18 21 27 29 33 44 58 68 70 75 77
100 100 100 100 100 100 82 54 58 68 62 54 51 50 50 46 40 36 33 28 26 22 21 24 22 20 19 17 18 22 23 22 26 21 16 16 16 16 16 18 24 26 26 25 26 27 28 28 26
100 100 100 100 100 100 98 74 57 59 59 60 56 55 60 63 79 70 61 55 44 36 28 28 27 24 23 21 19 19 22 22 20 21 20 19 15 15 16 16 20 22 23 25 25 24 22 20 20
96 100 100 100 100 100 100 84 70 64 62 59 63 63 60 65 65 72 82 71 71 67 59 38 33 32 26 25 31 24 20 24 25 26 26 28 34 31 21 18 18 20 21 23 23 23 20 18 18
76 79 93 99 100 100 91 80 87 81 70 88 78 71 59 60 59 67 64 66 75 79 58 41 36 38 36 35 27 26 25 25 28 25 20 25 27 31 38 27 28 31 21 20 21 21 22 20 22
83 87 87 85 96 86 96 93 88 87 80 83 97 97 96 83 57 51 60 60 86 100 100 71 69 53 43 36 43 33 33 29 33 32 24 21 24 29 28 29 27 28 21 22 21 27 36 26 22
92 91 89 86 81 98 99 100 100 100 100 100 100 100 100 95 80 64 52 52 73 100 100 100 72 47 54 42 44 38 38 36 33 33 35 31 29 30 29 29 29 37 34 34 34 42 39 41 28
76 79 91 82 80 81 84 84 100 100 100 100 100 97 83 85 82 74 60 50 47 77 96 100 99 92 75 65 67 45 50 40 36 34 32 34 28 26 29 34 31 40 48 56 52 50 56 57 46
64 86 93 92 81 74 76 71 72 96 94 100 86 81 76 68 76 86 70 57 50 49 74 95 100 98 99 86 86 72 51 55 47 37 31 38 34 28 26 29 30 33 56 66 70 79 79 74 60
62 91 94 95 88 78 92 85 78 99 100 100 77 65 64 72 74 63 56 63 62 52 49 75 91 85 83 89 92 90 70 62 59 44 36 40 38 31 28 27 30 34 38 64 83 92 89 83 72
87 96 98 88 86 92 88 89 100 100 100 91 66 71 72 62 53 51 56 61 56 59 61 57 61 94 98 93 89 89 88 75 68 49 46 43 42 35 31 29 31 34 36 38 54 84 97 94 81
100 100 95 95 100 100 96 87 99 100 93 74 52 45 52 56 46 41 52 61 64 60 58 62 57 93 100 100 90 90 98 86 79 64 54 58 60 54 38 40 37 37 41 48 56 63 84 88 82
100 100 100 95 90 88 98 100 100 94 82 76 62 44 26 20 15 11 18 35 55 66 63 56 58 81 99 100 95 78 100 86 81 78 69 69 68 44 45 38 49 61 54 61 71 90 95 87 85
100 100 100 100 98 92 79 71 60 49 35 28 30 24 20 19 17 17 20 23 22 28 46 49 55 69 86 100 96 77 74 80 97 85 76 66 61 56 52 43 42 48 61 65 89 99 98 97 95
75 76 84 92 89 74 59 48 40 36 31 24 20 15 12 10 9 7 7 12 18 24 31 47 40 52 68 88 90 74 66 68 86 88 88 71 59 63 56 53 64 78 82 80 84 90 83 73 67
100 100 89 64 68 77 70 66 53 43 29 20 14 13 7 4 6 5 5 10 9 17 28 39 39 35 55 65 65 62 63 78 100 99 95 81 66 70 58 76 82 91 97 90 90 88 74 64 56

GFSSGP_250_rhum_021.txt.gz
RH
78 100 95 94 90 75 50 47 53 50 44 46 49 51 44 35 29 27 33 43 42 34 33 30 22 19 18 16 16 23 27 24 22 18 15 16 20 24 24 26 29 32 41 44 43 43 42 38 35
42 74 100 95 94 90 73 64 64 54 50 53 50 50 45 41 36 34 36 37 33 29 28 28 24 21 20 18 17 16 19 21 20 18 20 32 47 42 31 26 28 31 34 39 43 45 52 56 55
33 45 73 94 100 100 94 75 69 66 64 59 55 51 46 35 42 35 31 33 34 34 32 30 28 24 24 23 22 21 21 24 23 19 23 23 28 44 60 57 52 42 32 40 48 52 52 68 72
33 30 42 80 92 94 100 100 87 80 71 61 57 54 47 39 43 38 34 36 34 33 33 35 34 30 29 28 27 26 27 25 24 29 26 25 34 50 47 57 68 77 83 79 63 52 68 71 82
38 32 31 61 87 88 85 83 88 94 83 72 63 51 45 46 46 47 32 40 37 39 40 39 40 36 34 34 28 26 26 26 25 24 28 28 33 36 46 56 59 91 94 90 94 92 76 85 76
43 41 32 46 66 84 83 70 65 68 69 70 61 48 42 40 51 46 40 41 44 39 38 41 41 38 36 36 35 31 30 25 23 23 25 26 27 31 47 65 71 82 94 100 97 94 82 94 92
49 46 42 36 48 64 79 73 54 59 60 55 38 34 32 38 41 46 39 46 43 40 33 35 43 37 37 34 35 39 34 31 29 26 27 26 27 32 41 59 81 96 100 100 100 100 100 99 99
55 48 52 65 87 70 65 67 56 45 40 42 40 39 31 36 52 46 40 40 42 38 34 35 34 39 40 35 32 32 32 32 28 25 25 27 31 37 37 45 66 77 100 100 100 100 100 100 100
63 51 97 100 100 92 49 54 57 43 44 35 33 45 28 27 42 38 28 27 35 37 33 32 33 32 32 30 28 26 25 24 22 20 24 30 40 45 42 53 56 57 66 88 100 100 93 96 100
89 87 100 100 95 94 65 52 52 54 47 36 43 30 29 25 36 48 39 32 28 35 36 32 35 32 28 26 24 23 21 19 21 20 26 35 35 37 45 52 56 57 57 61 65 74 87 100 100
99 100 100 100 98 84 91 77 68 57 69 66 56 42 38 37 40 53 46 34 36 42 48 40 34 30 30 26 25 23 21 16 16 16 20 24 25 29 33 38 43 45 56 55 48 48 50 54 80
100 100 100 100 99 86 100 88 72 59 65 75 71 52 46 47 52 50 48 51 58 52 48 51 41 34 31 25 22 21 17 14 12 12 13 16 17 19 22 24 24 24 22 21 23 24 28 31 26
100 100 100 100 100 99 96 95 86 79 74 68 61 61 55 52 51 46 48 50 48 45 40 34 35 32 28 23 19 16 14 12 13 15 16 17 16 16 15 14 16 17 19 18 18 20 20 21 25
100 100 100 100 100 100 100 97 84 82 78 66 63 63 53 46 47 40 44 42 39 36 32 28 25 23 21 20 18 14 13 13 14 17 17 20 22 26 22 18 19 17 16 18 18 19 19 21 26
100 100 100 100 100 100 100 99 88 95 79 78 70 59 58 53 51 47 40 40 36 31 29 27 23 20 17 15 16 16 17 16 16 16 15 19 19 20 22 26 24 22 18 16 19 20 19 21 25
100 100 100 100 100 100 100 100 100 79 80 83 85 86 68 54 49 53 48 42 37 35 32 30 28 23 20 20 19 22 26 30 32 25 24 26 25 28 28 24 20 19 16 16 18 19 20 21 23
100 100 100 100 100 100 100 100 100 99 95 93 86 89 75 58 50 54 52 45 42 42 40 40 42 46 34 26 26 25 30 36 36 31 31 25 24 23 24 23 23 20 17 17 19 19 20 20 22
81 100 100 100 100 100 100 100 100 100 100 100 88 78 76 65 65 64 58 51 50 51 48 51 49 66 63 57 45 39 42 48 44 36 31 30 26 24 24 22 23 22 21 20 24 22 20 20 21
60 69 93 100 100 100 100 100 100 100 100 100 100 99 86 77 75 68 68 64 65 58 57 59 61 56 70 82 64 46 43 37 36 36 41 35 31 33 32 29 24 20 20 29 34 35 28 28 27
82 68 72 70 93 100 100 100 100 100 100 100 100 100 100 90 69 66 71 70 82 77 58 67 58 57 56 66 84 61 70 67 59 82 82 69 60 39 34 33 29 23 19 20 25 35 41 39 40
75 74 70 69 67 71 84 96 100 100 100 100 100 100 88 74 69 70 74 69 72 82 91 83 65 58 55 57 72 81 74 68 61 72 60 52 53 43 36 36 34 34 29 26 25 27 29 33 43
83 79 80 76 71 63 64 61 76 82 86 97 100 94 82 90 97 98 100 99 90 82 84 81 69 58 56 55 56 81 92 70 64 64 80 74 64 54 46 39 39 32 32 30 28 30 37 39 41
86 80 76 65 66 64 61 52 82 72 86 94 88 88 89 87 90 94 88 88 91 80 79 81 73 70 56 55 65 63 93 98 88 63 74 78 61 56 55 45 37 34 33 31 29 29 28 30 32
93 87 78 72 75 58 63 42 60 99 100 99 79 79 87 86 77 71 70 78 86 81 74 72 76 68 64 62 64 72 71 93 98 74 60 81 64 59 63 50 43 36 32 33 32 29 28 30 33
96 87 67 70 62 52 55 55 69 100 100 100 100 98 84 70 66 67 69 75 75 70 65 67 70 74 66 74 74 71 82 82 80 78 84 79 88 76 67 64 59 48 41 39 38 37 34 31 32
73 71 64 59 43 41 51 86 100 100 100 98 90 87 84 73 67 58 55 65 73 73 68 55 54 64 66 60 64 74 81 73 67 72 100 92 88 80 72 72 62 57 56 55 42 34 32 42 48
70 63 62 72 81 81 100 100 100 100 99 76 66 66 60 59 52 43 39 42 42 41 39 47 53 47 48 59 62 64 75 74 75 80 98 99 89 94 83 69 70 75 69 56 47 44 40 40 43
77 89 87 92 96 100 100 100 100 100 100 90 71 58 46 39 32 28 26 28 22 16 16 22 35 41 42 47 55 63 67 71 81 89 100 100 90 84 77 77 77 66 74 63 62 54 50 53 62
89 95 96 100 100 100 100 99 83 75 68 59 46 33 26 23 19 18 17 19 17 12 12 16 19 22 34 44 51 71 82 84 73 76 98 99 93 82 81 86 99 91 83 85 82 66 66 69 68
100 100 100 100 89 75 67 74 70 64 49 38 38 37 32 17 9 9 9 7 6 5 5 7 10 17 25 29 31 46 63 66 75 77 99 95 97 95 85 98 100 93 96 95 86 71 80 77 77

GFSSGP_250_rhum_024.txt.gz
RH
84 100 100 100 91 88 80 58 49 50 48 40 36 40 38 26 20 24 33 30 32 30 30 34 31 24 21 20 19 19 18 17 18 21 19 16 19 21 24 27 18 22 28 30 34 38 44 50 54
62 80 92 100 100 100 100 84 63 53 56 54 42 44 44 36 35 36 38 36 29 26 27 32 32 31 24 22 21 20 19 19 18 16 19 21 19 16 17 18 28 30 30 29 31 35 40 41 45
50 52 61 74 97 100 100 95 92 83 70 61 48 47 48 48 41 38 37 37 43 39 31 29 31 29 30 30 26 25 21 18 19 19 19 19 21 23 22 21 26 30 40 47 48 48 47 47 43
53 45 48 52 50 62 88 88 99 97 99 91 58 54 54 53 51 44 45 40 37 38 38 34 34 32 31 30 26 26 24 23 22 24 22 22 21 18 18 19 22 23 30 40 48 50 53 70 57
54 46 35 41 43 40 48 65 98 100 100 92 70 68 69 60 60 57 50 48 46 39 36 36 37 34 33 31 31 29 28 27 27 27 27 25 24 25 23 23 24 25 30 35 45 45 56 68 82
56 52 47 45 45 40 36 42 54 86 99 100 86 87 88 81 78 67 60 55 49 44 42 40 36 34 35 35 34 36 36 36 34 32 35 30 29 29 29 27 27 30 36 39 39 46 64 62 65
69 72 56 45 43 42 40 30 36 52 67 96 87 86 99 100 96 88 78 60 51 45 40 39 38 36 38 37 33 34 38 37 37 36 34 34 31 30 30 30 28 27 30 31 35 54 60 79 82
69 77 82 63 53 66 47 32 29 37 48 77 93 82 75 72 66 74 69 58 46 39 43 42 42 38 36 36 38 37 37 35 32 35 34 32 29 28 28 26 24 24 28 25 30 38 46 51 70
77 71 87 93 67 74 48 35 30 30 44 56 66 87 74 61 59 57 54 43 36 35 36 44 49 41 38 38 34 33 34 36 37 31 29 25 25 22 22 20 18 20 24 30 36 47 51 50 50
81 89 98 97 97 85 53 49 40 37 55 67 46 77 75 57 47 42 44 42 40 40 39 57 36 35 35 32 31 30 30 30 33 30 26 24 22 20 20 20 18 16 18 22 27 38 39 50 54
98 96 100 100 98 91 76 58 53 51 59 76 56 47 66 65 53 43 36 35 36 40 42 38 42 44 43 37 34 35 36 35 31 26 24 22 22 20 19 17 16 15 15 17 22 25 29 32 37
100 100 100 100 100 94 94 85 78 63 76 68 54 54 57 60 62 60 53 47 44 50 50 45 41 40 43 41 42 43 41 36 29 25 26 28 25 20 20 16 14 13 13 16 20 21 24 24 23
100 99 94 95 92 89 100 100 98 92 90 91 94 58 67 60 67 68 66 73 70 66 49 46 45 44 46 44 38 37 36 34 32 27 25 24 23 20 17 14 13 14 15 16 16 16 16 16 17
100 100 96 100 100 100 100 100 100 99 74 73 84 92 72 88 83 74 75 64 60 54 52 45 43 40 39 37 37 35 33 31 26 22 20 19 18 16 14 12 14 14 15 16 19 22 21 20 21
100 100 100 100 100 100 100 100 100 100 100 100 85 88 84 79 91 84 67 56 54 51 46 41 39 35 36 39 31 30 28 25 24 24 16 16 15 14 14 14 14 15 16 15 15 19 25 25 23
100 100 100 100 100 100 92 100 100 100 98 100 100 97 86 92 83 74 70 58 51 48 46 38 44 57 59 44 43 43 35 27 24 29 28 24 22 23 22 21 18 23 24 22 21 22 24 22 21
100 100 100 100 100 100 100 100 100 100 100 100 100 100 99 86 88 91 88 70 54 54 50 43 42 49 52 51 50 52 52 43 45 45 36 38 38 37 34 30 30 32 27 23 23 22 21 22 25
100 100 100 100 100 100 100 100 100 100 100 100 100 100 100 100 97 93 99 92 76 64 53 50 50 53 50 61 58 62 66 89 77 72 52 49 48 44 38 35 31 30 29 28 26 26 24 23 23
66 90 100 100 100 100 100 100 100 100 100 100 100 100 100 100 100 100 96 91 85 81 71 69 69 58 54 57 69 68 67 66 65 74 80 59 47 41 42 42 57 57 42 31 27 29 30 28 23
72 56 80 100 100 100 100 100 100 100 100 100 100 100 100 100 100 100 100 98 77 78 73 69 73 63 59 62 61 62 70 85 74 64 80 84 83 88 87 86 76 52 46 44 39 35 34 32 30
77 66 55 61 67 86 95 100 100 100 100 100 100 100 100 100 100 100 100 100 100 100 100 94 76 64 62 68 88 76 63 84 100 96 96 98 91 94 76 66 64 64 56 48 40 34 34 35 36
86 96 86 80 55 63 65 74 86 94 100 100 100 100 100 100 100 100 100 100 100 100 100 84 70 67 69 72 77 76 69 55 54 66 64 83 83 86 100 82 70 65 67 54 44 34 33 32 31
86 82 82 87 82 79 81 65 100 73 76 84 87 94 99 100 100 100 100 100 99 100 96 93 95 87 90 87 92 93 85 79 71 68 68 73 76 93 89 92 69 66 74 69 53 43 37 35 35
100 96 87 90 92 85 78 60 80 90 79 75 77 78 79 80 78 78 78 80 79 74 71 73 75 73 70 71 70 76 93 100 100 87 72 74 70 76 92 100 82 67 82 82 67 63 48 46 47
100 100 100 82 82 98 92 71 79 73 84 76 71 57 60 63 62 62 62 70 75 71 74 76 75 68 63 66 76 77 85 96 94 81 82 99 98 96 81 84 87 92 92 88 79 76 61 56 61
100 100 95 99 84 81 88 81 88 82 100 94 80 69 48 43 48 53 57 57 61 67 70 69 64 61 61 58 52 50 59 69 84 82 81 86 100 99 94 100 89 100 98 92 81 72 68 64 62
88 81 89 86 92 88 88 88 100 93 67 44 28 26 32 38 43 49 49 48 49 52 58 60 55 52 50 51 46 45 49 49 62 82 79 83 89 100 100 100 89 96 97 96 80 77 72 84 85
80 86 88 89 91 87 98 100 86 48 38 48 60 62 60 54 54 54 54 49 49 49 47 44 42 43 42 38 36 33 35 43 57 61 68 74 89 99 100 100 100 100 96 87 84 78 95 97 95
96 88 88 83 86 84 77 81 77 78 84 81 71 68 54 48 48 41 34 29 30 36 35 33 32 29 32 32 33 38 40 44 52 56 62 68 99 100 100 96 100 99 99 90 97 86 86 98 90
86 86 84 80 76 77 98 99 100 87 77 69 64 54 40 35 31 29 24 18 14 15 18 19 17 14 16 20 22 21 22 32 43 54 68 84 100 100 100 100 100 98 97 100 98 85 91 99 95

GFSSGP_250_rhum_027.txt.gz
RH
98 87 71 65 62 51 54 54 61 50 46 48 42 32 24 23 20 23 30 28 30 25 22 24 25 27 26 30 29 27 26 21 19 16 15 16 17 19 20 16 16 21 19 18 16 16 24 29 27
100 100 100 84 73 67 60 54 61 75 59 49 47 43 38 27 26 31 34 29 25 24 25 27 30 32 28 27 27 27 24 20 18 18 19 19 18 17 15 15 16 16 15 15 16 17 18 22 27
91 94 99 100 100 100 100 77 57 67 82 72 54 47 47 45 42 36 40 38 29 27 29 29 27 26 25 28 29 27 26 25 22 22 20 19 18 18 18 20 21 22 21 19 21 23 23 22 23
67 76 84 98 100 100 100 98 94 99 93 92 81 64 52 52 51 47 42 47 51 43 34 30 32 35 31 30 29 26 28 29 29 26 23 22 21 21 22 25 26 27 26 26 26 26 29 29 30
50 58 64 78 86 83 86 85 100 100 100 100 100 87 72 64 60 57 51 50 52 53 50 39 39 38 37 31 33 32 30 29 28 28 28 28 28 29 28 26 29 31 30 29 30 30 32 32 34
52 54 63 79 76 64 64 64 78 90 100 100 100 94 100 100 100 82 62 54 56 58 54 53 48 44 45 43 38 38 35 32 33 33 31 30 32 32 32 26 32 32 32 34 33 32 32 26 27
60 59 60 82 90 71 57 49 56 60 66 73 76 81 100 100 100 100 88 64 60 65 65 70 59 55 52 47 42 38 37 32 30 31 29 30 30 30 30 30 29 32 31 28 27 26 23 23 24
67 66 60 76 100 99 71 53 42 46 51 47 45 51 70 99 100 100 100 87 82 90 85 81 78 68 57 49 43 40 38 37 32 29 29 28 29 29 26 27 28 27 24 23 22 20 20 20 21
82 64 73 97 87 92 65 58 51 41 37 36 37 36 37 48 64 88 100 98 83 77 78 70 65 60 52 43 41 39 37 36 31 29 27 27 25 25 26 25 27 26 25 22 21 20 17 18 18
100 90 94 90 84 72 60 61 55 50 44 43 45 40 32 34 47 48 69 96 93 79 65 60 57 55 46 38 36 37 40 36 31 30 30 27 26 26 27 25 24 24 23 22 24 24 21 21 17
100 100 100 100 100 92 70 60 52 52 49 53 52 43 38 30 35 46 47 53 65 80 72 54 48 50 44 43 46 43 37 30 31 34 34 39 36 35 32 31 28 27 27 26 24 23 21 19 17
100 100 100 100 100 97 84 72 73 68 82 60 52 50 44 49 38 44 61 73 73 77 72 63 53 44 40 40 39 41 44 42 38 37 35 34 34 32 32 32 30 31 28 21 20 20 18 16 15
100 100 100 100 100 100 100 95 91 81 75 62 71 71 50 44 58 54 55 65 70 71 68 69 65 60 55 52 51 57 51 43 42 40 36 32 31 31 31 29 27 26 22 21 19 17 16 15 14
100 100 100 100 100 100 100 100 94 95 82 75 68 72 69 52 71 62 68 66 69 68 73 72 77 77 72 68 62 55 49 45 41 36 33 30 28 27 24 23 22 22 20 18 16 14 14 12 14
100 100 100 100 100 100 100 100 100 100 89 73 83 82 99 99 100 100 79 82 89 89 87 85 79 79 78 72 68 54 50 52 46 41 36 34 31 28 26 24 22 23 20 17 15 15 14 13 14
100 100 100 100 100 100 100 100 100 100 89 81 78 90 100 100 100 100 99 85 80 86 97 93 85 82 80 72 65 59 60 56 58 54 44 46 39 41 36 31 28 28 29 26 23 22 25 23 21
100 100 100 100 100 100 100 100 100 100 100 94 100 100 100 100 100 100 100 95 75 74 84 95 88 80 73 66 58 58 59 70 67 67 62 61 71 59 55 47 44 38 38 36 36 34 30 27 27
100 100 100 100 100 100 100 100 100 100 100 100 100 100 100 100 100 100 100 100 96 86 77 77 86 86 79 65 56 61 61 58 71 74 83 84 88 86 75 73 72 49 39 35 36 38 42 45 44
100 100 100 100 100 100 100 100 100 100 100 100 100 100 100 100 100 100 100 100 100 96 91 79 77 84 91 88 75 66 66 56 52 59 59 82 82 81 64 60 54 80 75 78 69 70 72 54 51
100 100 100 100 100 100 100 100 100 100 100 100 100 100 100 100 100 100 100 100 100 100 88 75 80 93 100 97 92 87 88 85 80 64 54 78 91 95 91 97 96 90 95 95 84 66 57 55 53
85 92 98 100 100 100 100 100 100 100 100 100 100 100 100 100 100 100 100 100 100 100 100 100 87 81 90 97 94 92 86 90 95 84 89 68 64 86 89 93 85 81 85 80 74 71 67 70 63
77 73 64 74 85 99 100 100 100 100 100 100 100 100 100 100 100 100 100 98 98 97 94 96 98 94 87 95 100 100 98 91 83 69 66 65 62 73 84 89 99 100 98 88 88 79 77 64 55
95 95 82 65 54 60 74 82 100 90 99 100 100 100 100 100 100 100 100 100 99 98 97 89 88 94 89 82 87 89 91 91 90 81 78 86 76 75 80 93 100 100 100 89 84 71 64 68 70
94 94 92 93 94 78 76 72 96 92 66 75 87 85 89 92 95 95 96 97 99 99 98 96 99 99 93 87 87 81 75 85 83 81 74 83 74 84 100 100 99 94 98 91 82 82 74 79 83
100 100 94 87 86 94 98 84 100 100 96 92 73 54 53 58 54 53 60 61 58 59 63 65 68 71 76 78 80 78 75 74 78 72 76 71 72 73 86 94 100 96 96 98 94 98 88 88 96
100 94 93 100 100 99 88 80 92 92 97 99 77 74 67 56 57 58 59 58 54 49 47 46 48 51 53 56 60 66 73 80 81 79 77 78 76 72 73 85 92 90 99 100 99 100 99 92 98
100 98 92 98 92 97 100 100 100 92 71 68 70 73 69 67 66 59 54 48 46 45 46 43 42 39 40 42 46 46 45 47 45 70 81 87 81 92 79 75 75 94 100 100 100 100 100 100 100
99 100 100 88 91 95 99 98 94 66 59 64 60 60 65 67 68 67 48 38 33 29 26 22 18 17 18 19 21 24 28 34 40 56 80 92 94 84 67 70 69 76 99 100 100 100 100 100 100
98 94 93 84 85 99 100 90 65 69 83 80 82 86 82 60 51 49 48 50 50 46 39 35 32 32 32 31 33 32 34 38 42 48 61 80 90 86 72 68 65 68 93 100 100 100 100 100 100
85 91 93 96 100 97 79 84 72 94 98 85 76 62 53 60 57 45 36 30 24 20 16 15 16 18 21 22 21 24 26 26 29 40 56 61 74 86 80 76 68 81 92 100 100 100 100 100 100

GFSSGP_250_rhum_030.txt.gz
RH
56 40 36 35 36 37 46 59 66 45 31 36 34 29 32 28 23 24 24 22 24 22 19 19 21 22 21 24 22 23 23 25 27 28 27 23 20 17 16 19 18 16 17 20 18 20 19 18 17
100 87 42 40 34 38 43 52 58 61 43 40 41 40 37 36 34 26 27 25 24 23 22 21 20 20 18 21 25 27 25 26 26 24 23 22 20 20 22 24 23 20 19 19 19 20 22 21 19
100 100 100 60 44 59 43 40 44 51 54 53 47 44 47 45 42 38 31 26 23 24 27 28 26 24 25 26 25 25 28 27 25 24 24 23 23 23 22 23 22 21 21 20 20 22 23 25 24
100 100 100 100 100 82 56 51 48 48 51 52 59 62 65 58 50 46 43 38 34 34 34 32 36 32 29 24 28 29 28 25 25 25 25 26 26 24 24 25 24 24 25 25 24 22 24 30 31
47 98 100 100 100 100 98 72 69 72 76 63 61 60 60 74 78 64 49 49 49 48 51 48 45 49 49 39 33 39 33 30 31 29 29 29 29 29 28 27 27 25 24 24 27 23 23 26 28
35 38 65 100 100 100 100 100 100 92 86 86 78 74 61 64 83 90 84 68 55 51 55 56 50 49 53 54 49 44 42 38 39 40 40 38 37 33 31 31 27 25 26 25 25 24 26 26 27
36 41 41 59 70 85 94 88 100 100 100 100 99 98 97 78 77 80 81 94 83 68 62 61 56 50 50 55 55 56 56 48 48 46 42 39 38 36 34 31 27 28 27 26 24 23 23 23 24
37 39 46 82 79 67 69 80 89 100 100 96 100 100 100 100 100 100 100 94 96 92 92 86 78 74 65 62 66 64 68 66 58 50 41 38 37 35 33 32 29 25 24 22 21 21 21 21 24
66 48 58 85 89 95 63 59 68 80 87 86 84 84 85 86 95 94 94 89 89 91 91 90 85 83 82 72 72 72 71 56 52 47 42 37 34 31 29 23 22 23 23 21 20 27 27 26 27
76 78 96 88 92 81 63 50 46 61 74 70 70 64 62 65 66 65 64 61 59 57 66 70 76 85 88 82 75 66 60 58 55 47 38 36 33 31 25 25 28 29 28 26 27 25 24 24 22
100 100 100 100 97 97 68 56 50 50 56 63 70 69 62 49 43 40 41 39 37 41 41 40 41 48 69 78 79 70 58 50 45 43 40 37 36 33 31 31 31 32 30 27 25 23 24 24 22
100 100 100 100 100 99 78 69 60 60 72 70 77 66 63 62 53 47 40 39 35 36 33 32 33 31 32 37 62 70 66 58 53 45 43 44 45 45 48 41 38 34 30 28 27 25 22 23 23
100 100 100 100 100 100 94 91 72 77 77 56 63 64 66 62 56 61 58 54 51 39 36 36 32 33 32 30 36 47 58 59 56 59 58 52 57 55 48 42 38 36 35 32 30 27 23 22 22
100 100 100 100 100 100 100 100 91 100 77 64 63 66 67 71 82 85 91 79 68 67 58 41 38 40 35 32 40 56 62 58 64 70 69 62 57 54 50 46 46 39 32 29 25 24 22 24 25
100 100 100 100 100 100 100 100 100 100 81 71 80 75 81 90 99 100 98 85 77 69 58 51 42 63 68 59 64 67 77 82 80 83 76 75 65 57 55 51 45 38 34 31 33 34 34 37 35
100 100 100 100 100 100 100 100 100 100 100 100 94 96 97 100 100 100 100 100 86 76 71 61 62 67 84 80 80 79 82 82 82 80 77 77 66 59 56 53 52 48 49 48 53 54 50 51 44
100 100 100 100 100 95 96 100 100 100 100 100 100 98 100 100 100 100 100 100 98 94 91 89 77 80 87 85 76 71 73 88 88 86 84 76 65 63 67 70 66 55 59 71 70 70 61 49 43
100 100 100 100 100 97 86 90 100 100 100 100 100 100 100 100 100 100 100 100 100 100 100 100 99 94 94 97 89 83 76 77 78 82 97 92 78 79 70 60 52 50 54 55 63 72 83 80 82
100 100 100 100 100 100 100 100 100 100 100 100 100 100 100 100 100 100 100 100 100 100 100 100 100 100 100 100 93 91 93 82 80 79 82 86 92 79 67 62 57 52 59 63 64 76 78 76 69
100 100 100 100 100 100 100 100 100 100 100 100 100 100 100 100 100 100 100 98 100 100 100 100 100 100 100 100 100 100 99 99 97 90 91 81 79 74 69 74 73 70 72 74 76 75 71 76 66
100 100 100 100 100 100 100 100 100 100 100 100 100 100 100 100 100 99 100 100 100 100 100 100 100 100 100 100 100 100 98 97 100 99 100 89 78 81 86 87 93 86 76 76 72 89 82 72 66
100 100 100 100 100 100 100 100 100 100 100 100 100 100 100 100 100 99 94 94 96 100 100 100 100 96 91 89 92 96 92 84 79 68 65 77 83 83 86 82 97 83 76 85 84 90 78 87 94
100 100 87 100 100 100 100 100 100 100 100 100 100 100 100 100 100 99 89 87 81 82 89 92 95 97 97 94 95 90 94 98 100 100 99 95 96 100 95 88 86 94 98 100 100 100 100 100 85
100 100 91 91 100 100 100 100 100 100 100 100 100 100 100 99 99 100 100 98 92 95 100 100 100 100 100 100 100 100 100 100 100 100 100 95 94 100 100 98 96 93 99 100 100 100 100 100 99
100 100 99 94 84 94 99 98 100 100 98 92 89 92 92 96 96 96 94 90 88 89 88 84 87 90 90 92 92 92 94 90 86 84 85 87 91 98 100 100 100 100 100 100 100 100 100 100 100
94 95 100 100 100 99 97 96 98 96 82 73 70 66 62 58 59 56 56 56 53 56 60 59 57 53 49 49 52 51 46 50 54 53 53 56 58 67 76 79 92 100 100 100 99 98 100 100 100
84 88 98 92 93 96 100 98 97 89 89 88 91 88 78 62 56 59 64 69 64 56 54 52 51 53 52 50 47 43 40 39 39 42 46 54 65 70 83 94 100 100 100 100 96 100 100 100 100
91 96 99 90 92 94 94 95 85 77 76 84 83 75 71 72 68 64 58 53 52 54 52 49 46 41 35 29 28 28 27 28 30 33 35 36 45 69 86 86 86 90 100 100 100 100 100 100 100
95 92 92 98 100 99 95 86 78 80 84 77 74 72 78 75 56 51 54 54 52 54 50 41 35 31 28 25 23 23 25 26 27 29 30 30 35 52 76 81 87 94 100 100 100 99 100 100 100
91 93 94 98 100 100 94 88 80 78 76 70 82 86 78 69 60 50 59 47 40 41 41 37 29 24 21 18 18 19 20 21 20 22 28 36 50 58 76 93 89 96 100 100 100 100 100 100 100

GFSSGP_250_rhum_033.txt.gz
RH
40 43 50 56 44 45 41 34 28 30 31 50 33 27 28 26 25 26 25 21 23 26 26 33 38 35 36 34 34 32 30 28 28 28 27 30 33 33 33 31 26 24 23 21 22 19 17 17 16
64 38 39 42 54 51 51 41 33 32 33 51 45 24 28 26 27 29 29 25 25 22 20 18 22 26 25 26 27 28 25 24 24 27 27 29 32 31 28 26 24 22 22 22 24 23 20 19 19
100 89 44 36 40 54 57 45 42 35 35 49 57 30 27 29 32 36 31 28 27 26 25 25 22 20 20 21 22 21 22 22 24 25 28 30 30 26 23 24 24 25 25 24 25 26 25 25 26
70 100 98 64 45 49 44 44 50 40 36 46 67 58 37 34 40 41 40 40 38 32 28 29 26 24 23 20 21 24 25 24 23 23 24 24 22 22 22 24 26 26 25 26 26 27 28 25 24
39 75 100 100 98 51 42 43 44 43 40 46 58 65 59 44 47 45 43 46 49 48 44 35 29 27 27 26 25 29 38 37 33 31 31 29 28 27 27 27 28 29 32 32 29 28 26 25 26
41 39 92 100 100 100 68 47 50 42 42 45 49 52 52 53 52 54 54 58 63 61 58 50 45 44 43 44 49 48 43 42 46 47 41 34 34 35 37 36 37 37 36 35 32 30 24 24 26
37 43 42 100 100 100 100 84 71 48 43 44 52 52 49 47 50 52 58 61 58 67 78 79 66 55 53 50 52 56 56 53 50 52 53 48 50 50 48 45 42 38 36 35 33 31 30 26 23
47 51 48 65 100 100 100 99 100 100 92 59 49 57 61 61 67 73 68 65 66 59 61 76 82 82 79 69 64 70 77 70 63 56 57 60 63 60 54 48 44 40 37 36 31 26 22 25 27
38 42 64 80 75 98 100 96 100 100 100 100 100 100 94 73 71 78 82 76 76 78 72 67 73 79 78 90 90 86 85 81 78 72 62 63 64 63 55 48 44 37 33 31 29 26 26 26 28
46 44 89 92 85 74 65 89 100 100 100 100 100 100 100 100 100 100 100 100 98 92 99 100 100 99 97 95 97 87 80 72 67 72 72 68 62 57 49 45 42 40 35 34 33 32 31 32 30
96 69 94 84 74 80 62 44 54 69 82 86 86 94 93 94 97 99 99 96 94 91 84 81 75 72 69 61 53 48 51 46 45 49 54 57 65 61 54 47 43 43 44 47 41 40 43 33 27
100 95 85 100 88 81 66 47 44 56 71 74 72 74 79 83 81 81 83 80 74 71 61 56 52 48 45 41 35 31 28 26 27 27 26 30 40 44 46 41 34 34 35 35 36 36 36 35 32
100 100 100 100 100 92 74 57 52 58 61 73 78 76 63 57 59 59 58 65 63 60 57 52 48 42 34 29 28 26 29 27 29 29 26 24 27 35 40 34 35 40 46 45 47 50 45 46 38
100 100 100 100 100 100 100 92 80 95 81 73 83 86 74 76 71 70 61 56 67 66 59 54 50 45 42 38 37 35 36 32 30 30 32 32 34 41 42 51 55 62 63 60 57 60 50 44 36
100 100 100 100 100 100 100 100 97 89 79 79 88 91 97 100 95 88 77 72 62 56 59 58 54 56 54 50 46 45 45 42 40 40 46 47 52 54 57 60 71 76 71 70 62 53 47 44 42
100 100 100 100 100 100 100 100 100 95 97 96 94 93 100 100 100 100 99 87 74 70 67 63 60 60 64 66 59 56 50 54 59 49 54 66 78 76 72 73 85 89 81 71 55 54 52 46 44
100 100 100 100 100 100 100 100 100 100 100 100 100 99 100 100 100 100 100 84 81 85 81 81 76 72 72 74 73 68 70 67 80 98 84 96 95 89 92 96 92 89 72 65 61 60 55 52 46
100 100 100 100 100 100 100 100 100 100 100 100 100 97 92 98 99 92 100 100 98 96 89 90 89 88 75 76 74 77 82 86 89 95 100 100 99 97 97 95 90 83 74 73 72 67 63 46 44
100 100 99 87 98 100 100 100 100 100 100 100 100 100 97 98 100 98 96 100 100 100 100 100 100 100 99 91 96 98 100 100 94 96 96 99 100 100 93 77 79 80 85 83 81 77 66 68 64
100 100 100 100 99 82 77 99 100 100 100 100 100 100 99 88 98 97 100 100 99 95 99 100 100 100 100 100 100 100 100 100 100 99 98 96 94 95 93 91 96 96 89 86 81 90 99 84 88
100 100 100 100 100 95 84 92 100 92 89 85 95 99 90 83 75 87 100 98 96 100 100 100 100 100 100 100 100 100 100 100 100 100 100 100 97 91 77 73 91 100 96 98 95 96 94 93 94
100 100 100 100 100 100 100 100 100 100 97 99 100 89 100 100 100 100 96 88 96 100 100 100 100 100 100 100 100 100 100 100 100 100 99 96 95 95 100 99 98 99 100 100 100 100 100 99 100
96 100 100 100 100 100 100 100 100 100 100 100 99 100 100 99 100 100 100 100 99 99 96 97 99 100 97 91 80 84 98 100 100 100 98 88 93 98 97 95 100 99 100 100 100 100 98 94 100
87 99 100 100 100 100 100 100 100 100 100 100 100 100 95 100 100 100 100 98 94 86 84 87 95 95 92 89 92 92 93 96 100 100 100 100 100 100 100 100 100 100 100 100 100 100 100 100 100
95 94 94 95 100 100 100 100 100 100 100 100 100 100 100 100 100 99 99 96 94 91 88 91 96 98 100 100 97 96 97 96 100 100 100 100 100 100 100 96 94 96 100 99 100 100 100 100 100
100 100 100 99 97 94 100 100 100 100 100 100 100 100 100 100 100 98 100 100 100 99 96 90 87 80 74 70 66 65 64 62 58 54 57 64 72 77 76 69 66 74 81 90 100 100 100 100 100
99 100 96 100 99 100 98 92 98 100 98 99 100 100 97 93 99 96 94 90 80 68 64 63 60 55 48 44 45 52 54 52 50 50 50 56 68 75 78 81 75 72 74 78 96 100 100 100 100
96 83 92 100 100 100 96 87 86 85 85 89 87 90 94 94 85 72 73 71 62 55 56 49 44 46 43 43 43 41 38 37 38 38 41 44 50 53 56 55 56 60 65 68 77 97 100 100 100
81 83 98 100 100 100 97 95 91 92 99 96 95 89 86 84 82 79 75 73 68 58 52 48 43 39 38 31 26 23 20 19 19 19 20 22 22 26 34 44 50 54 57 62 70 93 100 100 100
97 96 71 77 87 92 89 88 95 94 93 95 88 94 87 81 71 65 71 62 50 49 45 46 37 38 32 28 26 25 22 17 16 15 14 15 18 25 27 34 45 59 68 70 75 77 89 100 100

GFSSGP_250_rhum_036.txt.gz
RH
40 43 41 44 41 22 25 38 31 26 22 25 29 36 38 35 32 37 35 35 38 41 42 43 48 51 49 48 51 57 59 45 33 33 34 33 32 30 28 32 32 31 29 26 24 24 24 24 24
41 44 43 40 38 35 30 30 41 30 26 22 24 30 30 32 32 31 31 30 28 27 28 31 37 44 44 41 37 35 34 32 33 32 31 29 28 28 28 28 30 30 26 23 22 21 23 25 25
65 45 44 44 42 48 44 31 34 36 31 25 24 24 30 32 30 28 27 24 25 24 23 21 21 23 26 29 31 31 29 28 27 27 27 26 24 25 25 26 26 24 22 21 21 22 23 24 25
72 79 45 38 49 58 59 41 35 36 35 29 28 30 28 36 36 32 30 27 25 26 26 25 24 23 22 20 20 21 21 21 21 22 23 24 25 24 24 25 26 26 28 27 26 25 24 27 30
78 93 88 38 43 50 57 55 49 42 40 36 30 30 31 45 52 34 31 30 28 29 28 26 26 26 26 24 21 20 21 22 22 24 26 29 33 36 35 34 32 30 31 34 33 33 33 33 34
56 81 99 100 60 46 46 52 56 51 45 42 40 33 33 37 51 46 32 31 34 38 37 37 41 43 45 42 33 29 28 29 32 36 41 45 42 43 48 49 48 44 43 45 43 41 38 38 36
39 60 77 100 100 78 50 44 52 50 53 49 49 46 37 36 40 61 58 47 45 49 52 47 46 49 52 57 54 50 45 45 46 49 51 53 58 58 54 59 56 51 53 55 51 51 46 42 37
39 52 62 95 100 100 100 77 48 48 46 52 53 51 46 37 38 52 60 62 56 51 51 55 54 57 59 57 62 65 63 58 58 60 62 65 72 75 69 62 65 60 63 66 61 54 47 43 36
62 47 58 80 84 91 100 100 100 79 51 52 48 47 46 40 39 42 50 53 49 49 48 50 53 57 59 57 52 53 56 60 60 63 62 66 67 60 51 50 52 54 54 59 54 48 43 40 38
57 57 82 93 96 76 71 98 100 100 100 77 55 53 50 44 40 41 41 44 44 46 49 54 62 72 71 62 61 71 66 65 70 76 73 78 72 68 59 53 50 52 53 50 49 47 46 46 41
82 74 84 97 100 94 64 54 96 100 100 100 100 99 84 68 62 58 51 47 45 59 63 66 71 79 82 92 100 100 100 98 85 77 66 50 40 33 29 28 27 25 24 27 33 32 29 24 25
100 99 97 89 100 96 85 69 57 100 100 100 100 100 100 100 100 96 91 88 86 92 91 96 98 100 99 99 93 77 62 57 53 46 41 32 26 24 24 24 25 24 22 21 26 29 26 28 33
100 100 100 100 98 75 80 81 67 66 95 100 100 100 100 100 100 100 100 100 96 95 92 95 91 84 77 70 65 56 50 42 38 35 31 28 26 26 27 26 26 25 27 33 34 37 45 42 42
100 100 100 100 100 99 75 80 83 78 58 64 93 100 100 100 98 94 89 83 79 78 77 78 76 68 64 57 48 47 45 44 45 41 38 37 37 35 36 36 34 39 45 47 47 49 51 50 57
100 100 100 100 100 100 97 84 100 83 71 60 60 60 63 70 68 68 71 70 68 64 56 50 46 42 46 46 46 45 50 50 48 46 45 49 46 48 44 47 51 52 58 64 67 66 65 68 64
100 100 100 100 100 100 100 100 87 71 83 86 82 75 72 80 70 73 73 71 60 66 75 66 68 71 71 65 60 58 58 58 66 54 55 67 62 54 56 66 76 74 85 89 82 79 77 79 87
100 100 100 100 100 100 100 100 100 93 87 89 95 95 93 97 92 97 82 78 82 86 81 82 76 71 70 65 62 63 70 72 68 68 61 64 71 59 58 79 91 98 93 86 90 86 86 88 93
100 100 100 100 100 100 100 100 100 100 100 100 100 93 100 100 97 92 98 100 92 83 74 71 75 73 75 74 75 77 73 76 89 84 81 72 81 85 87 96 85 89 91 92 96 93 98 93 97
100 100 100 100 100 100 100 100 100 100 100 100 100 100 100 100 100 99 100 100 98 86 92 93 76 72 67 77 72 80 82 93 99 90 95 100 98 98 92 89 84 88 92 93 100 100 100 100 100
99 100 100 100 100 100 100 100 100 100 100 100 100 100 100 99 92 94 89 94 100 100 100 99 100 90 80 82 81 81 84 100 100 98 97 98 100 99 92 100 100 99 99 99 87 80 79 89 98
38 100 100 100 100 100 100 100 100 100 100 100 100 100 96 91 94 89 96 88 93 100 100 100 100 100 100 98 96 94 95 100 100 100 90 82 85 95 97 98 100 99 98 98 97 96 90 80 81
28 97 100 100 100 100 100 99 100 100 100 100 100 100 93 81 80 83 87 92 96 90 100 73 70 82 98 100 100 100 100 98 89 75 77 83 79 85 92 89 97 100 100 92 90 90 89 88 91
40 69 100 100 100 100 100 100 96 98 100 100 100 97 100 100 98 85 82 87 66 83 67 86 100 100 100 100 86 87 92 94 91 95 96 99 97 100 100 100 100 100 100 100 100 100 100 100 100
31 55 91 100 100 100 100 100 93 84 80 81 82 90 82 73 75 75 71 69 79 67 67 83 92 87 71 78 93 94 91 88 88 100 99 97 92 94 95 100 100 100 100 100 100 100 100 100 100
16 45 53 81 100 100 100 100 100 97 92 84 75 66 68 74 82 89 92 84 74 69 77 73 68 79 86 87 80 78 70 76 83 92 99 100 100 100 100 94 86 86 91 93 94 95 89 93 100
12 18 45 100 100 100 100 100 100 100 100 100 98 90 96 100 100 100 98 91 76 80 85 83 83 83 76 70 74 79 81 88 94 92 87 81 73 69 64 63 61 56 52 60 71 81 98 100 100
16 29 52 100 100 100 100 100 100 100 100 100 100 100 100 100 100 100 100 89 92 98 95 90 90 94 90 77 74 74 67 65 61 54 48 48 48 50 54 53 58 69 77 74 79 98 100 100 100
34 58 66 72 99 100 100 100 100 100 100 100 100 100 100 100 100 100 97 93 94 89 92 95 92 80 76 68 61 54 50 53 50 49 43 34 30 31 36 41 49 54 56 66 72 82 91 99 99
66 60 69 76 94 100 100 100 100 100 100 100 100 100 100 100 100 100 92 86 88 84 80 79 72 63 59 54 47 39 38 33 24 21 20 20 20 20 22 26 31 40 52 60 69 80 82 97 100
74 81 94 94 96 90 84 86 91 95 100 98 96 100 99 97 92 81 82 77 75 84 73 64 62 61 48 40 37 28 28 27 26 23 22 21 23 20 17 20 26 31 34 35 39 49 70 91 95

GFSSGP_250_rhum_039.txt.gz
RH
37 37 35 28 36 31 21 25 26 23 27 38 49 40 41 46 30 37 36 37 34 33 34 39 35 39 42 48 50 48 46 50 56 55 43 34 30 31 30 26 24 22 21 23 24 27 27 22 19
40 38 40 35 33 38 28 26 23 23 28 31 37 45 44 38 37 40 29 32 36 34 35 36 41 46 49 48 47 42 41 39 39 37 34 32 32 30 26 23 23 22 21 22 25 25 24 22 22
56 38 41 35 33 42 32 28 22 29 28 28 36 40 51 52 35 39 32 29 30 31 32 30 37 41 39 35 37 35 33 32 32 32 30 28 27 26 26 23 23 24 24 23 23 23 24 25 26
75 41 43 39 39 47 41 37 25 30 28 26 36 35 44 45 37 37 35 30 28 28 27 26 25 25 24 24 24 28 26 25 24 27 25 23 22 23 22 24 25 29 34 36 40 42 39 36 32
84 66 46 42 50 47 36 46 48 26 29 33 34 38 42 45 43 34 32 28 28 27 26 25 24 23 23 24 23 24 24 23 23 22 21 21 22 23 26 30 33 38 40 42 46 48 49 45 43
49 93 73 48 49 50 40 39 50 43 28 36 39 38 37 46 47 41 35 34 33 31 28 28 27 28 28 28 28 28 29 31 32 29 28 28 29 33 39 44 48 53 56 61 66 64 53 53 49
59 58 100 97 70 49 46 40 41 48 35 38 36 42 40 39 42 38 36 46 55 41 34 30 31 30 30 33 33 38 43 46 52 53 57 57 52 54 55 60 64 63 60 65 64 63 53 45 45
60 51 67 100 100 66 49 43 47 44 42 48 47 39 40 42 38 35 38 39 40 60 61 40 32 34 46 55 52 50 48 50 52 50 46 50 54 60 56 56 52 47 64 67 59 59 54 52 55
58 79 45 78 100 100 74 49 47 52 52 58 58 47 47 42 42 40 36 36 38 41 50 57 56 55 53 50 50 52 53 52 53 54 51 43 46 51 50 55 57 63 67 56 42 36 34 31 28
85 91 91 74 96 100 100 88 53 48 51 53 60 58 55 55 49 43 42 42 39 37 38 48 61 60 58 52 49 44 42 42 47 52 47 48 63 84 96 90 78 59 48 41 30 26 25 23 23
89 84 100 85 77 95 91 90 92 78 53 51 53 58 62 61 58 53 52 50 46 45 41 39 43 50 48 43 41 42 45 45 50 60 79 97 98 76 60 55 51 41 33 25 23 25 24 24 24
84 100 87 100 100 100 99 86 100 100 100 89 69 63 55 57 57 52 48 50 46 46 44 40 39 39 38 40 42 45 66 84 98 100 100 85 72 61 49 39 34 32 29 31 34 33 33 32 30
99 82 74 96 100 100 88 83 89 98 100 100 100 100 100 90 70 55 48 52 50 48 49 50 46 50 65 74 90 99 100 100 97 88 81 67 51 44 36 33 35 34 34 36 39 42 37 35 38
100 87 83 98 100 100 100 93 74 83 95 100 100 100 100 100 100 100 100 100 93 93 93 95 96 98 100 100 98 92 89 82 77 70 57 39 35 39 42 43 40 40 38 40 42 40 39 41 44
99 100 100 98 100 100 100 100 92 75 86 97 91 95 100 100 100 100 100 100 100 100 100 100 100 100 94 86 77 72 62 57 49 41 37 40 43 45 47 42 44 47 47 51 49 45 47 46 51
91 99 100 100 100 100 100 100 100 90 84 86 87 83 76 85 100 100 100 98 100 100 100 100 97 92 85 78 70 64 58 53 54 56 54 54 56 59 58 63 62 53 54 54 51 54 60 61 76
88 98 100 100 100 100 100 100 100 100 96 91 94 96 93 87 67 64 80 91 94 93 91 85 78 75 79 82 69 72 71 72 76 69 63 64 66 65 66 65 66 67 58 64 58 54 61 71 81
100 100 100 100 100 100 100 100 100 100 100 99 92 90 97 100 99 84 71 57 50 44 45 46 57 78 91 83 74 69 71 72 63 69 71 66 68 67 64 65 64 69 88 77 65 77 87 90 93
100 100 100 100 100 100 100 100 100 100 100 100 100 99 98 100 96 86 87 88 77 72 71 71 71 75 88 82 70 78 68 66 80 72 62 66 72 68 68 60 58 72 98 100 94 88 96 100 94
64 100 100 100 100 100 100 100 100 100 100 100 100 100 100 96 89 80 92 96 91 92 95 94 100 80 87 78 74 76 90 80 65 70 54 56 60 66 85 100 92 94 92 94 94 96 97 97 98
22 95 100 100 100 100 100 100 100 100 100 100 100 100 100 100 100 100 100 100 100 100 100 100 100 96 80 77 78 80 68 64 60 60 53 54 61 80 93 86 78 95 100 96 94 98 94 86 94
20 34 100 100 100 100 100 100 100 100 100 100 100 100 100 100 100 100 100 100 100 100 100 100 100 95 79 84 78 80 75 64 62 53 62 67 72 77 71 68 88 92 96 94 98 93 98 93 97
17 20 42 100 100 100 100 100 100 100 100 100 100 97 100 100 100 94 100 100 100 100 99 100 99 93 100 92 77 80 74 64 58 63 77 81 79 53 66 81 92 95 91 100 100 100 100 100 100
17 19 22 48 100 100 100 100 94 96 100 100 100 99 98 98 94 94 98 99 100 100 100 100 100 100 99 94 74 68 68 56 53 71 73 49 56 67 68 62 56 62 73 93 99 98 100 100 100
19 20 21 25 44 100 100 100 100 100 99 99 97 95 97 100 98 99 96 93 99 100 99 90 82 86 75 67 64 68 60 57 59 63 52 54 74 79 88 87 90 88 84 80 81 78 69 68 67
17 20 20 22 29 40 100 100 100 100 100 99 95 93 94 93 90 94 94 90 91 88 78 69 67 55 55 55 56 64 53 50 55 61 84 86 84 97 95 85 72 60 52 51 51 55 58 65 73
17 18 21 23 30 52 57 89 100 100 100 100 97 92 90 95 95 94 87 79 70 62 60 56 52 51 59 61 70 58 56 64 88 100 100 96 74 62 59 52 50 44 46 47 47 47 50 54 60
17 20 20 21 25 33 54 66 88 100 100 100 100 98 94 88 84 77 66 63 63 62 62 74 73 78 80 78 70 70 96 97 78 69 63 56 50 48 38 34 32 34 34 33 35 36 41 46 51
22 20 20 22 27 60 73 63 92 100 100 100 100 100 100 100 99 99 100 99 93 92 92 86 76 69 71 76 88 87 82 73 65 58 45 38 30 28 32 33 31 32 35 36 42 46 44 45 47
36 26 22 20 23 26 80 87 100 100 100 100 100 100 100 100 100 100 100 100 100 99 100 95 92 82 83 96 79 58 54 50 43 37 28 27 26 34 38 34 27 25 26 25 23 24 29 36 46

GFSSGP_250_rhum_042.txt.gz
RH
73 100 44 31 28 22 27 30 37 42 23 42 51 39 39 33 42 44 31 27 28 27 27 24 22 22 26 33 34 36 39 41 42 43 45 48 46 39 37 34 30 29 26 21 20 20 19 20 21
68 99 64 29 29 32 29 26 55 34 27 53 49 39 35 27 29 42 38 29 29 27 29 29 26 26 26 30 32 34 37 37 34 31 33 33 32 29 24 23 23 24 24 22 21 21 21 24 26
69 80 87 32 36 41 43 23 31 28 46 36 46 44 33 53 49 41 33 38 34 31 34 35 34 31 29 28 29 26 27 29 25 24 24 22 23 26 26 24 22 21 20 20 21 22 27 36 40
66 66 100 41 34 49 43 28 32 45 40 40 49 42 47 51 29 30 30 29 30 30 27 31 36 34 32 31 33 33 25 25 26 26 24 22 22 22 21 21 19 19 21 23 28 39 48 50 52
56 66 97 70 45 45 40 25 39 56 37 44 47 43 48 51 39 37 33 27 27 30 26 28 30 34 36 36 31 26 24 23 22 22 22 23 24 25 24 22 25 30 33 41 49 55 65 61 60
60 58 71 100 55 46 38 23 53 47 36 42 40 32 45 45 45 38 36 30 31 34 29 29 30 30 31 31 28 26 25 26 26 27 29 33 44 55 58 58 58 58 62 64 63 58 54 48 47
62 61 63 100 54 41 48 27 57 50 48 47 27 35 46 46 45 40 37 32 29 34 30 31 30 31 30 28 27 26 26 27 29 31 38 44 48 52 58 52 46 45 42 44 50 50 52 54 59
58 62 58 82 100 41 46 30 64 39 46 39 42 31 44 45 49 47 37 31 29 33 33 36 45 38 33 33 32 31 30 34 44 55 54 56 55 53 50 47 45 39 42 50 65 80 74 66 50
50 64 53 68 100 100 63 33 54 48 41 41 50 28 40 63 55 51 46 37 33 33 37 36 44 56 68 64 59 42 35 40 52 53 50 48 45 42 38 38 40 44 52 74 79 62 53 46 36
59 52 61 83 75 100 100 79 61 59 46 54 46 58 51 50 45 51 51 46 40 37 39 36 37 40 43 44 52 55 60 66 62 58 50 45 41 40 39 44 53 58 78 78 62 50 37 32 29
92 70 82 62 68 79 100 100 97 71 55 52 46 44 55 57 44 46 48 46 47 45 41 41 41 38 38 40 39 40 44 50 51 52 46 38 38 42 57 68 82 83 73 63 42 31 26 27 28
100 100 60 56 72 85 88 99 94 96 77 56 47 40 66 57 51 45 51 54 47 46 45 44 45 45 45 43 44 42 40 39 39 39 40 40 50 76 87 89 81 73 61 43 30 28 35 38 36
100 100 63 51 55 88 79 80 93 93 100 90 64 57 55 57 59 51 51 58 60 57 58 58 55 52 48 46 47 46 46 45 43 46 56 68 92 93 90 80 68 52 35 30 30 35 36 36 38
100 100 87 50 52 90 100 94 79 98 95 100 100 80 57 55 63 68 64 59 61 60 61 61 64 62 53 50 49 48 47 50 63 80 99 96 87 76 65 53 42 37 37 38 42 44 48 51 45
100 100 94 62 67 99 100 99 86 79 100 100 100 100 100 94 69 70 63 61 64 68 66 62 59 61 61 67 76 81 86 93 100 100 98 84 74 62 61 54 50 57 55 54 51 52 51 54 59
100 100 81 77 88 100 100 100 100 78 82 98 100 100 100 100 100 100 100 97 98 100 100 100 100 100 100 100 100 100 100 100 100 96 88 76 75 68 62 67 65 54 50 49 48 48 51 52 56
100 100 84 86 98 100 100 100 100 100 91 94 100 100 100 100 100 100 100 100 100 100 100 100 100 100 100 100 100 100 97 94 89 96 86 80 66 58 61 57 56 47 45 44 45 48 55 68 83
94 100 100 95 82 100 100 100 99 100 100 100 100 98 100 100 100 100 100 100 100 100 100 100 100 100 100 100 95 80 63 58 71 85 72 68 64 62 59 63 57 54 49 48 45 51 77 100 100
13 100 100 100 93 88 100 100 86 100 100 99 100 100 100 100 100 98 94 100 100 97 89 86 84 83 73 63 61 55 57 64 83 69 68 71 74 71 66 56 54 48 50 46 41 52 90 98 96
11 45 100 100 90 93 96 100 100 96 100 100 100 100 100 100 100 100 100 96 94 100 100 97 92 72 75 68 62 73 87 97 86 82 81 69 69 58 63 59 53 54 47 47 56 80 83 82 60
10 13 90 100 100 100 96 95 98 99 100 100 98 100 100 100 100 100 100 100 100 95 91 90 83 76 76 82 95 100 100 100 100 87 84 74 58 56 54 54 56 58 54 53 58 68 55 55 66
9 11 16 97 100 100 95 100 100 96 98 96 100 95 100 100 100 100 100 100 100 100 100 90 90 98 98 99 98 96 99 96 88 93 73 66 54 49 44 43 61 64 61 56 69 49 58 70 80
11 10 13 21 96 100 100 100 100 100 100 100 95 88 98 100 100 100 100 100 100 100 100 100 100 100 100 100 100 100 88 72 65 76 76 72 55 52 48 45 49 47 44 59 58 52 57 64 78
13 11 12 14 20 77 100 100 100 100 100 100 100 98 94 92 94 98 100 100 100 100 100 100 100 100 100 100 91 92 97 83 84 69 69 62 59 54 52 50 44 43 43 52 62 68 84 99 100
14 14 12 12 15 18 68 100 100 100 100 100 100 100 100 100 100 98 100 97 100 100 100 100 100 100 93 96 100 98 95 90 92 76 67 62 51 45 48 55 47 50 62 74 81 79 81 70 59
14 14 13 12 13 15 20 64 100 100 100 100 100 100 100 100 100 100 100 100 100 100 100 99 100 100 100 100 91 95 97 89 74 64 52 48 42 54 53 48 61 85 99 98 74 58 49 39 33
14 15 13 12 13 15 21 22 80 100 100 100 100 100 100 100 100 100 100 100 100 100 100 99 94 87 90 83 78 85 74 66 60 47 42 50 49 55 60 78 96 88 64 52 44 37 28 24 22
15 15 13 13 12 15 19 26 30 72 100 100 100 100 98 97 98 96 95 94 96 96 93 95 80 75 85 87 76 72 62 55 46 52 64 74 75 82 87 93 69 42 41 37 37 31 22 16 18
18 17 15 14 14 16 18 20 27 39 57 99 100 100 100 100 100 100 98 96 92 87 88 90 82 80 83 73 67 56 57 72 71 75 78 91 100 85 68 44 41 33 30 34 32 33 23 26 26
19 18 16 16 16 18 18 21 29 39 46 69 91 100 100 100 100 100 100 100 100 100 95 88 83 81 73 66 66 78 86 83 92 83 83 82 65 46 38 32 31 31 34 37 41 28 22 17 16

GFSSGP_250_rhum_045.txt.gz
RH
79 78 100 100 86 66 43 43 33 37 61 46 54 45 35 31 38 37 29 21 23 25 25 26 23 20 20 20 22 23 31 34 35 38 39 38 39 38 37 37 32 24 21 19 19 19 20 19 20
94 74 88 100 100 78 55 44 40 42 84 34 52 25 21 24 37 42 31 27 24 23 22 23 23 24 25 25 25 32 37 38 39 40 37 34 28 25 23 24 24 23 22 20 20 20 20 20 24
99 90 76 95 100 99 58 46 46 42 79 45 46 18 30 44 39 45 46 38 35 29 27 27 26 28 28 29 28 32 38 36 35 35 33 26 22 22 22 21 22 22 22 22 22 23 30 38 45
100 92 80 89 100 100 54 45 55 59 64 37 39 22 40 43 36 30 31 28 40 35 31 29 30 34 33 35 36 35 36 36 33 29 25 25 24 23 23 23 24 29 35 38 43 49 50 50 47
100 100 84 87 100 100 76 36 49 74 66 60 52 31 41 43 32 31 43 44 39 37 41 35 35 36 36 34 33 31 29 28 26 23 22 23 25 25 27 30 40 47 50 54 54 49 45 36 31
100 92 84 86 100 100 96 39 68 66 55 80 67 34 48 51 37 36 37 45 38 37 42 40 39 35 33 31 29 29 29 29 26 25 26 27 27 28 30 38 42 45 51 52 46 41 37 31 37
78 96 75 83 100 97 95 73 59 80 63 69 44 45 50 51 44 36 43 49 39 32 40 41 40 39 35 32 30 29 29 30 28 27 28 29 31 37 47 49 53 53 47 41 37 34 36 35 48
66 78 96 72 86 98 86 94 45 92 65 55 36 60 56 54 49 42 39 44 40 34 34 36 37 36 37 38 34 33 33 32 30 32 32 33 38 48 59 57 44 41 41 37 36 42 48 64 76
100 71 80 72 69 97 82 83 64 66 68 42 36 74 65 60 57 50 40 41 34 32 36 40 40 39 42 42 42 53 56 64 56 60 62 44 42 56 66 57 52 47 40 36 45 54 73 79 76
100 90 67 75 65 90 78 64 96 88 76 45 39 60 81 66 57 55 44 33 36 36 36 41 44 43 47 46 40 48 51 55 55 55 53 48 49 51 46 44 44 41 37 47 57 75 78 76 63
100 100 76 60 65 64 86 72 81 100 81 52 49 59 78 61 53 47 54 50 39 44 42 45 45 47 50 50 50 45 43 44 46 46 47 47 47 41 40 39 39 39 49 66 82 85 74 54 41
100 98 72 68 63 51 73 75 64 100 96 61 54 56 73 72 66 49 50 49 54 51 52 52 53 51 51 52 50 49 49 50 51 51 50 47 43 42 42 42 46 62 78 82 84 67 56 46 39
100 96 80 67 63 64 69 95 66 92 100 88 65 64 76 64 77 61 52 47 50 48 52 60 59 55 52 52 50 51 53 55 57 56 52 45 45 48 46 55 79 87 88 83 67 58 51 46 47
100 100 82 54 78 64 67 54 61 66 100 99 84 86 69 75 66 74 65 74 76 71 62 51 52 58 62 58 55 60 65 66 67 62 50 45 50 62 90 100 100 96 86 77 67 57 54 47 45
100 100 95 49 82 87 76 53 64 60 85 100 99 100 97 74 76 78 72 63 68 69 72 66 61 60 67 73 72 70 71 62 61 57 56 76 97 100 100 100 95 88 72 64 56 52 44 45 44
98 100 82 82 70 96 67 67 50 65 67 94 100 100 100 100 88 80 72 68 68 74 73 72 70 77 78 76 71 69 65 73 84 90 99 100 100 100 98 87 77 64 63 61 66 62 57 55 46
19 100 82 100 99 89 77 58 48 63 68 93 100 100 100 100 92 99 99 82 76 75 85 83 79 79 79 76 81 96 100 100 100 100 100 100 100 88 76 70 66 74 68 71 56 54 53 50 43
18 100 100 100 100 90 77 62 59 53 73 88 100 100 100 100 100 100 100 100 100 100 100 100 97 93 95 98 100 100 100 100 100 100 100 92 80 72 68 66 85 100 95 78 69 58 51 46 45
14 24 100 100 99 99 73 59 66 56 66 76 97 100 100 100 100 100 100 100 100 100 100 100 100 100 100 100 98 100 100 100 100 98 86 83 82 76 98 100 100 87 83 81 64 53 55 52 49
11 15 66 79 97 89 78 58 58 58 68 79 81 97 100 100 100 100 100 100 100 100 100 100 100 100 100 100 100 100 100 98 92 84 76 67 82 100 99 99 91 78 69 59 60 54 51 48 45
11 13 20 45 95 100 90 79 56 58 71 78 74 75 99 100 100 100 100 100 100 100 100 100 100 100 100 100 100 100 99 100 94 83 70 81 77 81 82 85 76 63 66 68 56 53 53 48 45
11 10 12 16 78 100 100 86 68 57 61 70 66 80 88 100 99 100 100 100 100 100 100 100 100 100 100 100 98 99 100 100 88 84 100 100 89 72 63 55 63 67 71 57 57 53 48 47 51
10 10 10 13 30 100 100 73 100 84 74 80 93 79 91 100 100 100 100 100 100 100 100 100 100 100 100 100 100 100 91 87 85 96 98 96 96 83 70 58 55 59 62 60 57 48 43 47 56
12 11 11 12 14 54 100 73 100 95 100 85 88 85 81 81 95 100 100 100 100 100 100 100 100 100 100 100 94 90 94 97 92 81 71 79 92 88 77 66 61 55 58 53 48 44 47 57 74
14 15 14 13 12 15 35 82 100 96 100 100 96 100 89 81 77 88 91 98 100 100 100 100 100 100 100 100 100 97 95 89 87 87 99 92 84 71 76 73 65 60 54 48 42 47 55 75 88
16 16 15 14 13 13 16 18 94 100 100 100 100 100 100 93 82 75 83 90 95 100 100 100 100 100 100 100 100 100 99 98 100 89 88 85 80 73 65 69 68 56 48 56 64 58 80 80 78
15 15 17 16 14 12 12 15 18 32 98 100 100 100 100 100 100 93 85 82 82 88 94 100 100 100 99 100 100 100 100 99 98 86 91 86 76 72 64 65 51 46 58 78 77 72 79 53 30
17 15 16 15 14 13 12 12 14 18 21 72 100 100 100 100 100 100 100 99 99 100 100 100 100 100 100 100 98 100 100 98 90 86 86 75 72 68 57 47 48 65 88 94 85 68 41 35 31
17 16 15 14 14 13 13 12 13 14 17 22 44 96 100 100 100 100 100 100 100 100 100 100 100 100 100 100 100 100 98 86 79 81 75 68 57 55 51 58 83 94 90 72 46 38 32 33 41
20 17 15 14 14 14 13 14 13 14 14 19 25 31 50 92 100 100 100 100 100 100 100 100 100 100 100 100 99 86 82 85 79 73 59 69 71 55 82 93 96 74 56 41 32 35 40 46 36

GFSSGP_250_rhum_048.txt.gz
RH
100 96 82 96 100 100 98 100 62 60 90 63 66 74 69 46 29 28 24 23 32 38 40 41 42 45 46 39 34 28 21 20 21 24 28 33 38 38 34 30 29 28 24 20 19 19 20 20 21
96 100 90 86 100 100 100 85 76 92 100 62 53 62 62 56 25 24 24 23 24 27 32 34 35 30 29 26 23 21 21 22 30 32 36 40 38 37 35 31 27 25 22 22 24 27 30 34 40
85 100 99 90 97 100 100 87 81 92 92 58 37 46 63 42 32 24 25 26 28 26 26 27 26 26 24 23 23 24 27 32 35 38 40 43 42 40 37 30 25 23 24 26 33 40 44 49 50
98 99 100 97 100 100 100 100 85 88 99 39 29 47 71 50 46 30 25 28 32 28 27 25 25 24 25 28 30 31 31 34 40 43 44 43 44 37 28 24 25 26 28 32 40 45 50 51 48
100 100 92 100 100 100 100 100 100 90 98 41 39 58 77 59 51 33 27 29 34 40 36 34 30 29 30 31 36 35 36 36 40 42 44 40 33 25 26 27 26 26 29 33 40 51 51 47 36
100 100 100 100 100 94 100 100 100 94 94 45 43 66 90 70 56 45 30 33 36 36 40 42 42 37 36 36 37 37 40 35 32 33 36 32 28 27 28 27 28 29 41 50 60 49 39 36 36
93 92 100 100 100 92 94 99 100 100 95 65 39 49 93 88 61 59 37 31 31 36 41 43 49 49 46 39 34 34 35 35 34 37 36 33 30 28 30 31 34 41 46 58 62 44 41 40 38
97 97 100 100 100 100 83 93 100 100 100 67 45 55 80 96 76 58 48 32 31 38 44 50 52 51 45 39 37 41 38 36 34 34 35 34 32 33 37 57 55 50 51 51 42 39 38 37 39
98 94 100 100 100 100 99 98 100 100 100 72 58 59 65 97 85 74 56 40 30 37 45 49 51 53 51 50 46 48 43 40 39 44 46 50 75 77 69 59 53 44 42 40 39 39 39 39 43
89 96 100 100 100 100 96 81 97 100 100 86 80 70 58 85 100 95 73 56 41 38 43 46 46 46 50 52 52 54 54 54 48 47 62 63 52 43 40 42 41 45 43 40 40 42 44 51 70
99 100 100 100 100 100 100 86 77 95 100 100 88 83 74 64 94 92 73 64 49 46 49 48 49 47 42 45 49 54 61 62 53 48 53 44 42 45 44 46 50 46 43 41 44 52 59 78 85
75 100 100 100 100 100 100 100 89 72 99 100 99 90 86 67 69 99 87 61 52 46 50 49 50 50 49 48 52 55 54 54 56 55 53 52 53 56 60 64 61 54 45 48 59 73 91 93 88
49 100 100 100 99 100 100 98 80 74 89 100 86 98 73 81 63 70 98 95 78 58 48 48 55 58 57 58 56 55 57 58 60 59 58 58 61 68 72 68 59 52 56 76 92 97 94 83 66
30 100 100 100 99 100 100 97 80 78 94 99 100 98 99 71 77 67 62 80 70 63 45 48 53 58 65 71 63 70 73 72 66 63 63 70 77 80 70 61 58 66 98 100 100 94 78 64 58
21 100 100 89 97 100 100 92 82 73 79 90 100 100 100 100 84 78 68 68 74 68 57 53 54 54 55 58 63 65 66 65 67 78 88 86 76 70 67 69 89 100 100 100 98 84 71 71 68
18 59 79 95 95 100 100 94 73 77 73 74 85 100 97 100 100 89 81 68 68 73 70 66 68 67 64 63 73 81 80 78 77 76 74 73 71 70 78 93 100 100 100 96 85 83 81 82 80
16 25 96 100 100 100 100 99 84 58 76 65 69 92 100 90 99 100 97 83 72 75 76 84 92 87 88 99 98 96 97 93 82 73 75 72 71 85 100 100 100 100 98 90 86 78 80 83 79
17 22 100 100 100 100 100 100 82 53 60 65 57 72 97 100 100 100 100 100 97 84 83 81 78 82 88 94 91 87 87 77 80 80 88 96 100 97 100 100 100 98 89 91 89 92 83 89 79
17 20 100 100 100 92 96 96 87 59 48 56 58 59 97 100 100 100 100 100 100 100 100 95 85 83 83 86 97 100 94 98 96 100 100 100 100 100 100 96 94 85 83 87 89 80 79 84 81
14 19 50 100 87 62 89 87 88 66 44 41 52 52 59 80 96 100 100 100 100 100 100 100 100 100 100 100 100 100 100 100 100 100 100 100 100 100 100 100 100 94 85 79 71 73 76 86 74
13 17 22 100 97 64 59 65 75 86 81 46 51 57 49 58 83 98 100 100 100 100 100 100 100 100 100 100 100 99 99 100 100 98 100 100 100 100 100 100 100 100 79 68 66 70 68 68 64
14 13 18 24 100 99 52 63 63 64 68 60 51 53 56 64 70 91 97 100 100 100 100 100 100 100 100 100 100 100 100 100 100 100 100 100 99 88 75 82 67 64 69 77 70 73 65 62 60
15 13 14 20 24 99 56 29 50 46 50 59 68 66 58 66 80 90 100 100 100 100 96 100 100 100 100 100 100 100 100 100 100 100 100 100 89 99 82 68 66 64 67 71 71 63 68 60 58
15 13 14 14 18 21 44 41 50 40 48 61 53 52 63 63 70 92 99 100 100 100 97 98 98 100 100 100 99 99 100 100 100 97 93 100 100 93 96 90 83 75 69 63 63 67 64 60 56
16 15 13 12 13 16 27 30 82 86 64 52 53 48 49 60 65 75 92 100 99 97 95 98 99 97 95 91 84 83 84 80 85 97 96 85 83 90 91 84 76 75 67 70 71 63 62 52 44
17 17 17 14 13 15 18 19 37 100 100 88 59 61 58 51 64 72 84 93 99 100 98 95 96 97 98 98 92 88 90 92 93 93 94 92 92 82 82 82 83 88 88 81 63 61 50 36 40
23 23 20 19 16 15 14 15 18 22 55 92 94 75 77 75 65 68 69 80 98 100 95 92 90 93 93 95 95 97 100 99 100 94 95 95 91 87 90 98 99 95 85 69 62 43 37 49 68
22 18 16 18 19 18 18 15 15 18 20 27 63 87 78 80 82 69 71 80 88 94 98 100 100 98 98 98 100 100 99 100 100 100 95 96 99 100 100 99 92 81 66 56 36 45 52 73 73
25 21 18 17 18 19 19 17 16 15 15 18 20 26 47 60 61 77 79 79 81 89 100 100 100 100 100 100 100 100 100 100 100 100 100 100 100 100 98 89 70 65 48 30 51 67 80 67 47
27 24 18 15 14 16 16 17 15 15 14 14 16 18 22 47 57 72 78 79 79 82 92 100 100 100 100 100 100 100 100 100 100 100 100 100 100 91 76 71 59 34 30 54 70 65 63 43 32

GFSSGP_250_rhum_051.txt.gz
RH
42 76 87 75 76 81 91 100 100 78 60 50 50 80 94 87 90 69 56 32 29 30 32 37 54 54 48 47 55 56 61 51 39 29 25 23 29 28 28 33 27 25 25 24 22 23 24 28 30
44 56 78 77 82 99 100 100 100 90 65 50 54 77 98 99 88 68 58 29 28 23 26 38 54 53 49 50 54 54 47 38 29 24 22 27 29 33 34 33 29 27 25 23 24 26 29 33 36
40 56 75 89 92 100 100 100 100 94 77 59 49 70 97 100 73 64 58 31 29 24 25 42 48 43 44 42 42 38 34 31 27 24 26 31 33 35 38 32 28 25 24 25 26 27 30 34 47
52 47 58 94 100 100 100 100 100 98 86 64 59 46 100 100 65 57 65 32 29 26 26 27 30 33 33 32 30 28 27 27 25 23 29 34 37 39 34 30 24 23 24 25 28 31 41 48 49
54 50 63 87 100 100 100 100 100 100 77 78 57 50 82 100 73 68 64 32 28 29 30 29 28 29 31 31 29 26 28 27 28 29 32 37 42 37 31 27 24 25 27 29 29 36 43 51 53
62 48 48 91 100 100 100 100 100 100 97 92 60 56 83 100 82 77 58 46 29 30 34 36 34 32 32 30 29 28 28 31 32 35 37 40 35 32 29 27 27 27 31 34 41 47 48 42 39
59 57 52 90 100 100 100 100 100 100 100 96 81 65 86 94 89 85 61 47 32 35 35 42 45 44 43 34 31 32 33 34 35 39 35 37 33 33 34 33 32 32 35 55 64 52 43 40 39
52 67 58 66 100 100 100 100 95 100 100 100 84 74 100 100 82 77 68 55 45 40 38 40 43 51 52 50 44 40 38 40 40 40 41 42 40 35 36 36 38 67 72 48 41 39 38 41 42
33 56 72 57 95 100 100 98 100 99 100 100 100 78 100 100 68 60 74 62 58 46 46 41 40 43 48 52 55 52 48 44 44 43 45 46 43 43 51 64 72 52 42 38 38 42 52 52 47
18 55 97 100 100 100 100 100 100 100 100 100 100 96 100 100 89 65 69 62 62 59 51 50 45 41 44 50 57 59 60 58 54 57 58 51 45 42 49 51 46 41 44 44 53 63 59 49 47
16 23 68 100 100 100 100 96 100 100 100 100 100 100 98 100 100 77 58 66 76 64 56 53 56 54 50 49 53 58 57 52 54 62 60 52 48 46 44 45 46 42 45 51 64 65 54 54 61
15 33 73 100 96 100 100 100 88 100 100 100 100 100 100 100 100 93 63 49 57 66 65 61 58 57 57 56 57 62 61 54 50 48 52 48 48 51 53 53 54 52 53 66 70 59 55 67 82
15 22 60 86 100 100 100 100 99 100 100 100 100 100 100 100 100 99 87 69 66 71 75 71 61 58 56 56 58 59 60 59 57 54 55 58 57 60 63 62 62 68 72 68 63 62 83 91 96
14 18 50 90 100 100 100 100 100 100 100 100 100 100 100 100 97 100 98 92 76 81 87 78 73 65 59 60 60 60 60 62 61 61 62 62 70 80 81 74 71 70 66 67 65 87 100 100 99
13 16 37 74 96 100 100 100 100 97 100 100 100 100 100 100 96 100 100 94 91 93 87 85 74 69 70 64 61 56 63 63 64 64 67 72 81 82 77 73 74 70 74 78 87 99 100 98 94
13 14 20 64 87 100 100 100 100 99 95 100 100 100 95 88 94 98 100 97 98 82 84 83 89 83 75 65 64 64 68 67 68 66 70 70 79 92 89 83 77 74 82 88 100 100 100 98 82
13 12 18 44 96 100 100 100 100 99 95 96 96 98 100 100 100 100 100 100 97 88 80 71 78 81 86 82 73 69 70 71 69 73 74 93 100 94 86 81 82 86 96 100 100 100 100 90 81
17 14 19 36 87 100 100 100 100 100 73 92 85 88 92 94 100 100 100 100 100 100 91 92 89 89 83 80 79 78 77 80 90 94 100 100 95 88 87 83 88 93 100 100 100 100 96 94 82
18 15 17 27 100 100 100 100 100 100 98 72 78 84 91 99 98 95 100 100 100 100 100 90 88 91 85 82 81 85 91 96 94 91 88 83 83 88 81 91 94 100 100 100 100 100 98 90 76
19 16 16 20 53 100 100 100 100 100 100 77 73 68 74 91 94 93 97 100 100 100 100 100 100 98 95 94 94 96 91 91 92 96 100 100 100 100 100 99 100 100 100 100 100 95 87 81 77
20 18 16 19 22 100 100 100 100 100 100 80 62 64 59 74 95 100 98 98 100 100 100 100 100 100 100 100 100 100 100 100 100 100 100 100 100 100 100 100 100 100 100 100 100 97 84 81 84
18 19 16 16 20 100 99 99 77 100 100 79 59 52 58 57 81 100 98 95 94 100 100 100 100 100 100 100 100 100 100 100 100 100 100 100 100 100 100 100 100 100 100 100 97 88 83 83 91
21 20 19 16 18 32 100 98 79 63 97 92 86 61 52 45 57 75 82 93 94 83 100 100 100 100 100 100 100 100 100 100 100 100 99 100 97 92 85 82 93 96 85 80 77 82 88 87 86
20 20 20 18 16 20 73 100 100 74 85 84 72 59 40 40 42 48 56 68 91 92 84 92 100 100 100 100 100 100 100 100 100 100 100 100 100 97 97 100 89 86 82 79 80 86 91 90 89
20 20 19 19 16 17 22 97 100 98 76 61 44 46 35 33 47 54 52 55 66 79 82 80 95 100 100 100 100 100 100 100 100 100 100 100 100 100 100 100 99 98 95 98 94 95 100 89 93
20 20 20 20 18 19 20 21 100 100 82 64 41 40 36 31 33 47 68 82 74 64 73 79 80 92 94 97 100 100 100 100 100 100 100 100 100 100 95 100 100 100 96 98 97 94 86 82 88
18 19 19 19 20 19 18 20 35 100 96 82 69 41 32 27 21 28 44 59 72 72 71 78 80 85 93 93 97 100 100 99 94 96 98 97 97 100 100 99 100 100 100 100 95 93 90 86 73
34 34 30 26 24 24 21 18 19 33 98 84 76 63 54 38 30 29 21 32 57 76 87 90 90 89 96 96 99 100 100 100 100 100 100 98 98 100 100 100 100 99 100 96 98 89 88 76 55
49 38 31 29 27 26 26 24 22 20 23 52 93 70 53 30 20 16 18 18 30 42 53 69 84 94 95 96 99 100 100 100 98 100 100 100 100 100 100 100 100 98 96 97 90 89 70 48 35
38 33 30 24 23 23 25 27 25 22 21 19 19 24 28 24 21 19 21 24 24 28 39 47 56 59 66 80 92 100 100 100 100 100 100 96 100 100 94 100 100 100 96 91 71 50 41 36 60

GFSSGP_250_rhum_054.txt.gz
RH
76 75 99 100 91 78 79 70 83 85 80 63 67 55 76 100 92 76 72 71 58 55 36 35 34 35 42 55 54 55 49 53 57 60 60 48 34 30 28 30 31 25 23 23 22 24 26 27 28
58 58 64 100 100 91 85 79 72 78 65 68 64 68 81 97 84 79 68 68 65 58 37 32 33 35 41 62 58 54 52 53 54 61 49 39 32 29 28 30 28 24 25 23 24 26 26 26 28
40 43 56 74 100 100 97 87 77 71 73 61 77 76 76 89 79 79 66 61 70 60 41 30 29 30 34 58 58 56 52 56 60 47 42 33 31 30 28 30 30 30 24 23 25 25 26 25 28
25 35 39 68 100 100 100 98 91 78 74 56 66 78 79 76 90 94 80 77 63 66 48 30 25 24 37 58 56 53 52 53 48 42 38 33 32 31 30 29 28 26 24 25 26 27 29 30 41
21 34 34 55 91 100 96 99 95 86 77 76 81 80 84 77 74 98 81 85 57 65 55 33 26 26 42 51 45 44 42 41 38 36 33 31 30 33 33 29 30 29 28 29 28 30 31 45 51
24 31 39 44 51 99 97 92 90 100 84 79 82 86 89 88 88 79 82 100 58 72 62 37 31 27 31 32 35 37 38 35 31 30 30 34 32 34 32 30 32 35 34 33 32 35 58 53 41
16 29 39 44 47 67 58 78 99 100 95 92 94 98 90 84 97 94 82 99 81 76 71 41 33 29 29 30 30 31 34 32 32 30 33 35 35 32 31 33 36 37 37 36 45 74 53 39 37
13 24 32 42 52 55 61 73 98 100 99 100 100 100 100 96 98 94 79 92 90 79 77 56 34 33 31 30 30 32 35 36 38 35 36 38 37 32 32 35 36 43 48 64 65 50 42 38 41
13 16 24 38 50 67 56 63 79 99 100 100 100 100 100 100 100 98 90 79 88 75 75 66 43 34 36 36 38 40 47 48 48 45 43 41 41 47 49 45 45 44 47 50 47 43 38 43 47
11 11 16 46 60 80 76 60 85 100 100 100 100 100 100 100 94 95 99 79 72 73 68 75 53 40 39 41 43 44 48 56 56 55 52 46 52 56 58 58 58 54 50 47 48 48 49 53 66
9 12 17 18 60 82 61 59 71 98 100 100 100 100 100 100 100 100 98 98 73 76 67 74 66 51 46 45 44 43 44 49 54 55 55 55 56 57 58 56 55 52 49 52 56 56 59 70 61
11 13 14 16 27 76 78 80 84 70 95 100 100 100 100 100 100 100 100 94 82 67 63 67 78 61 56 53 52 51 48 48 51 55 57 58 58 56 54 53 52 51 54 62 66 64 64 61 60
14 13 13 16 14 40 85 86 78 88 95 100 100 100 100 100 100 100 100 100 100 87 91 78 79 78 66 61 60 56 54 53 54 54 58 61 59 57 56 56 54 54 60 72 70 64 65 66 55
16 14 14 16 19 37 72 82 74 91 88 100 100 100 100 100 100 100 100 99 98 93 82 86 79 90 78 69 67 69 62 60 56 55 58 59 58 58 58 61 61 62 63 65 67 81 77 62 65
19 17 15 16 19 18 39 83 84 93 81 100 100 100 100 100 100 100 100 97 93 88 84 100 96 96 91 80 70 67 66 65 60 56 60 60 62 69 75 74 64 59 58 65 93 84 69 67 74
18 18 16 17 24 21 28 75 88 92 67 86 100 100 100 100 100 100 100 100 96 86 83 80 88 88 87 86 80 84 83 76 74 66 66 66 69 72 74 71 65 64 75 100 89 77 71 68 79
16 18 18 19 18 37 25 91 100 96 78 80 100 100 100 100 100 100 100 100 90 68 67 70 72 70 71 76 86 84 85 85 83 81 77 76 72 74 76 71 72 87 100 93 83 75 73 87 92
22 21 22 21 19 46 40 77 100 100 95 79 96 100 100 100 100 100 100 100 100 94 92 84 78 77 86 99 99 95 96 94 95 93 93 94 95 94 88 96 99 99 93 86 83 88 93 92 86
18 21 25 24 21 19 86 59 90 100 100 88 77 100 100 100 100 100 100 100 100 100 100 100 100 100 99 100 100 99 100 100 100 100 100 100 97 90 92 98 100 94 89 92 92 97 95 90 88
18 18 23 22 21 19 88 67 56 99 100 100 91 80 100 95 99 100 100 100 100 100 100 100 100 100 100 100 93 92 94 96 99 99 95 90 88 84 89 96 100 100 100 100 100 93 86 96 93
18 19 22 25 21 20 20 76 59 82 100 100 100 89 86 99 93 100 100 100 100 100 100 100 100 100 100 100 100 100 100 100 94 89 90 90 92 94 97 92 90 98 100 100 100 98 99 100 100
20 19 19 21 21 20 19 45 65 60 79 100 100 99 89 89 91 82 98 100 100 100 100 100 100 100 100 100 100 100 100 100 100 100 100 99 99 100 100 100 100 100 100 100 100 100 100 100 100
21 20 19 20 22 22 19 20 100 61 77 100 100 100 100 74 77 82 80 87 96 100 100 100 100 100 100 100 100 100 100 100 100 100 100 100 100 100 100 100 100 100 100 100 100 100 100 100 100
18 20 21 20 21 23 21 18 91 100 98 100 100 100 100 87 61 74 70 72 81 94 98 100 100 100 100 100 100 100 100 100 100 100 100 100 100 100 100 100 100 100 100 100 100 100 100 94 93
18 20 20 20 20 24 24 19 24 100 100 99 100 100 100 88 73 61 66 72 69 75 81 87 99 100 100 100 100 100 100 100 100 100 100 100 100 100 100 100 100 100 100 99 100 95 96 96 100
21 22 21 21 22 26 25 22 21 37 100 98 91 88 81 81 76 56 55 59 64 71 82 81 68 78 98 100 100 100 100 100 100 100 100 100 100 100 100 100 100 100 100 100 100 100 100 100 100
23 21 22 22 23 23 24 24 23 22 54 100 99 85 71 72 71 60 41 40 51 62 63 70 75 75 75 80 96 99 100 100 100 100 100 100 100 100 100 100 100 100 100 100 100 100 100 94 88
23 22 22 23 25 24 23 25 26 23 24 43 100 100 79 54 76 69 44 28 20 27 39 50 56 60 64 68 76 88 98 100 100 100 100 100 100 100 100 100 100 100 100 100 100 95 95 89 90
49 39 30 28 28 26 26 28 30 29 24 23 32 100 81 52 37 50 44 26 16 14 15 18 29 38 49 57 65 74 80 88 98 100 100 100 100 100 100 100 100 100 100 98 94 93 84 86 77
86 96 82 67 74 59 42 45 40 35 27 23 23 27 96 99 51 30 21 21 26 25 24 25 24 24 30 37 43 51 62 74 90 98 99 100 100 100 100 99 96 95 91 94 89 79 71 60 55

GFSSGP_250_rhum_057.txt.gz
RH
100 69 91 78 64 78 71 96 94 92 73 80 84 71 78 52 40 52 59 64 61 67 66 60 60 47 36 33 33 39 52 58 56 54 51 56 58 61 49 37 31 28 29 27 24 21 22 25 25
100 100 98 74 62 79 87 89 88 93 80 78 82 85 92 79 56 48 65 54 58 65 67 62 56 42 35 38 36 39 52 59 56 59 55 60 66 60 43 37 31 29 30 28 25 22 23 24 26
59 92 90 90 86 90 100 100 89 95 96 70 69 92 98 97 80 60 67 60 60 60 67 63 56 37 34 38 35 41 55 62 61 58 63 65 62 47 41 35 31 32 30 32 27 24 24 24 26
21 44 71 95 100 100 100 100 100 94 92 92 68 85 90 100 90 67 71 70 64 66 70 65 57 39 31 34 35 35 55 65 67 65 68 64 49 44 37 33 34 36 33 31 28 26 26 26 29
11 24 41 84 92 100 100 100 100 100 91 87 76 83 92 100 99 79 78 75 77 72 72 66 58 41 30 28 25 31 56 66 63 56 61 54 44 40 36 36 44 41 36 32 33 30 30 32 40
11 11 19 42 71 86 100 100 100 100 99 90 74 76 86 100 100 93 92 80 76 84 96 78 60 46 32 27 25 37 56 61 52 50 48 45 41 37 34 34 41 41 33 36 34 33 35 44 57
12 10 11 26 46 68 78 96 100 100 100 99 92 82 79 95 100 100 93 83 75 86 100 93 76 53 36 31 26 37 48 42 42 44 42 38 37 35 36 38 41 36 37 38 35 40 49 58 49
11 12 12 12 29 50 61 78 88 96 96 100 95 90 87 93 95 100 99 90 77 77 94 88 85 61 44 37 28 32 34 37 39 39 37 36 38 39 41 44 45 42 44 40 42 45 42 42 40
11 12 12 13 14 34 50 61 75 83 95 98 91 83 95 91 100 100 100 100 84 81 83 82 84 74 55 40 35 32 31 32 32 32 34 38 44 47 50 46 43 46 48 48 50 49 48 43 37
10 10 13 16 17 22 31 57 60 82 100 100 96 86 89 100 100 100 100 100 91 77 80 93 83 95 64 52 39 37 37 34 34 36 41 43 47 55 56 56 57 59 59 56 54 53 49 45 41
10 11 17 16 14 15 18 39 54 64 97 100 100 93 87 94 98 100 100 100 100 100 93 93 86 92 78 63 51 41 38 41 43 43 46 51 55 58 55 56 55 58 55 52 50 50 48 47 49
11 14 16 19 16 13 24 45 62 51 80 94 100 100 100 96 97 96 100 100 100 100 99 90 89 82 83 71 62 52 42 42 44 46 50 50 52 53 55 56 55 54 52 52 52 54 52 52 54
14 14 16 20 19 15 24 55 59 58 50 57 100 100 100 100 96 99 100 100 100 100 100 100 100 98 85 79 71 59 49 44 44 45 46 46 48 50 54 55 56 54 54 54 56 58 56 55 55
15 15 16 18 19 16 18 53 64 75 52 46 60 75 100 100 100 100 100 100 100 100 100 99 90 92 92 85 79 77 66 53 51 50 51 52 54 56 59 57 55 58 59 63 68 68 60 58 59
15 16 15 19 18 19 15 18 53 80 61 57 64 66 98 100 100 100 100 100 100 100 100 100 100 100 100 97 87 79 79 68 56 54 55 55 60 63 60 57 60 62 61 64 63 62 64 75 90
18 17 14 16 17 19 18 18 25 53 63 70 64 89 90 94 97 100 100 100 100 100 98 100 100 100 100 100 99 91 86 81 70 63 61 59 62 66 64 69 66 69 74 73 78 82 95 93 89
19 19 18 16 17 21 21 20 19 21 40 90 78 87 100 100 98 99 100 100 100 100 100 98 91 99 97 93 93 88 92 92 93 87 84 81 83 81 78 77 78 88 92 95 92 95 90 87 90
19 21 20 18 18 19 22 22 19 20 17 47 82 83 87 100 100 99 100 99 100 100 100 85 78 74 77 93 100 100 100 98 95 93 92 91 92 90 89 82 87 87 96 100 100 89 91 95 83
21 28 29 22 21 21 22 22 18 19 17 17 35 95 98 100 100 100 100 100 100 100 100 100 84 78 81 88 93 100 99 100 100 100 100 100 99 96 100 100 100 98 100 96 91 96 93 97 94
20 26 27 21 21 21 21 23 20 18 17 16 15 56 100 100 100 100 100 100 100 100 100 100 98 80 78 86 98 100 100 100 100 100 100 100 100 100 100 100 100 100 99 98 98 99 98 96 98
16 22 28 30 23 21 22 21 20 19 18 19 17 19 88 100 100 100 100 100 100 100 100 100 100 93 93 99 100 100 100 100 100 100 100 100 100 100 100 100 100 100 100 100 100 96 95 100 100
16 19 21 24 24 22 23 23 22 22 21 20 25 22 29 99 100 100 100 100 100 100 100 100 100 100 91 99 100 100 100 100 100 100 100 100 100 100 100 100 98 94 95 100 100 100 100 100 100
16 17 17 21 21 23 23 24 25 25 25 25 29 56 32 36 100 100 100 100 100 100 100 100 100 100 100 97 100 100 100 100 100 100 100 100 100 97 90 92 98 100 100 100 100 100 100 100 100
16 17 16 19 21 22 25 25 25 25 26 30 30 45 68 43 38 93 100 99 98 100 100 100 100 100 100 100 99 100 100 100 100 100 100 100 100 100 100 100 100 100 100 100 100 100 100 100 100
18 18 17 17 19 25 27 26 29 26 28 27 49 42 54 95 40 34 74 100 100 97 94 100 100 100 100 100 100 100 100 100 100 100 100 100 100 100 100 100 100 100 100 100 100 100 100 100 100
20 17 18 19 24 30 27 25 26 26 26 30 35 42 28 38 64 54 36 72 92 96 97 91 89 99 99 100 100 100 100 100 100 100 100 100 100 100 100 100 100 100 100 100 100 100 100 100 100
26 22 20 22 24 26 24 23 26 23 25 28 30 40 85 49 52 93 89 37 54 77 85 88 94 100 100 100 96 100 100 100 100 100 100 100 100 100 100 100 100 100 100 100 100 100 100 100 100
31 28 22 22 25 25 24 23 24 23 23 26 29 29 46 95 62 66 88 90 49 36 40 58 74 77 78 88 94 98 99 100 100 100 100 100 100 100 100 100 100 100 100 100 100 100 100 100 100
38 34 30 28 27 28 28 26 27 24 23 25 30 30 30 34 99 57 61 82 83 37 25 30 33 52 64 67 68 69 70 78 84 88 97 100 100 100 100 100 100 100 100 100 100 100 100 100 96
68 50 48 42 39 36 37 39 38 30 24 24 28 31 30 28 30 72 49 38 56 79 40 20 22 22 29 34 44 60 68 74 78 82 88 89 84 86 85 84 87 86 82 81 78 77 76 64 57

GFSSGP_250_rhum_060.txt.gz
RH
85 100 55 47 74 70 83 86 89 72 89 100 100 100 100 100 90 61 49 59 54 57 61 65 66 64 62 58 48 41 35 32 29 32 40 46 41 47 50 56 59 47 34 31 30 33 27 23 22
73 97 100 61 40 61 79 86 90 81 66 94 100 100 100 100 98 82 55 53 64 57 56 65 74 67 60 60 53 41 32 28 32 34 48 54 53 54 66 66 62 45 35 31 33 32 27 23 23
44 58 80 90 58 56 78 93 96 91 84 81 91 100 100 100 94 83 66 40 50 61 58 65 72 72 60 56 50 36 32 30 32 42 57 60 60 63 67 68 59 42 37 32 35 35 35 26 24
17 41 56 92 80 54 61 83 94 91 87 79 90 100 100 100 99 88 73 54 43 62 70 67 69 78 67 55 48 34 34 32 32 44 65 67 65 79 70 62 50 40 36 36 39 39 34 29 28
11 20 42 56 100 79 71 77 93 78 88 78 84 90 100 100 100 97 83 76 64 64 78 74 71 71 71 59 48 32 33 34 33 44 67 73 80 83 70 52 45 40 38 41 47 43 34 30 32
11 12 29 43 94 100 83 88 82 88 84 76 83 86 96 100 100 100 96 87 81 67 78 93 79 70 72 64 52 30 29 26 29 47 66 74 62 67 55 47 44 40 39 43 51 41 35 36 34
11 11 14 36 54 98 100 100 100 88 89 84 75 86 94 100 100 100 100 91 78 75 74 76 84 71 67 67 58 33 28 25 30 50 64 63 54 55 50 46 45 44 44 44 48 42 40 38 35
12 12 13 16 48 81 99 100 100 98 76 81 77 76 99 100 100 100 100 100 83 76 82 77 81 80 79 76 67 41 31 26 35 51 57 49 52 53 46 44 47 49 47 47 43 41 43 41 39
10 12 12 13 18 57 61 100 100 99 76 84 83 89 100 100 100 100 100 100 98 77 81 85 79 77 84 74 74 59 35 29 30 39 38 44 52 49 44 44 45 48 51 47 43 43 45 45 43
9 11 14 17 15 22 61 97 100 100 97 100 80 94 100 100 100 94 94 97 100 81 82 84 84 77 82 82 77 72 41 37 34 35 37 41 44 38 37 41 43 46 49 51 48 47 46 45 42
9 12 18 14 16 15 21 56 94 100 100 100 100 96 100 100 100 100 90 90 94 100 98 89 92 89 82 78 82 71 70 42 39 37 34 34 36 36 39 46 54 58 62 60 57 58 57 55 52
10 14 14 15 14 17 16 19 50 62 98 100 94 99 100 100 100 100 100 94 98 92 96 90 78 82 84 75 84 79 71 73 43 41 42 38 38 42 46 49 56 61 60 55 56 56 55 50 46
12 12 15 13 14 17 18 16 17 48 70 92 99 94 100 100 100 100 100 100 100 100 99 79 95 84 87 84 85 78 71 72 63 45 46 44 45 47 51 52 53 54 54 55 59 60 56 52 50
14 11 13 14 15 17 18 19 16 17 34 60 72 85 84 100 100 100 100 100 100 100 100 96 84 91 86 86 99 96 86 70 72 68 46 47 45 47 51 51 52 56 58 61 59 58 57 58 63
14 12 12 15 17 18 17 18 19 19 16 35 49 68 77 84 100 100 100 100 100 100 100 100 100 95 100 99 98 100 95 93 73 69 71 56 52 54 56 55 57 62 63 60 64 67 68 66 78
16 13 11 15 18 18 18 19 22 19 18 18 30 47 64 83 90 100 100 100 100 100 100 100 100 86 87 92 100 100 100 92 83 70 63 71 77 71 65 61 59 65 69 76 79 82 80 82 89
16 16 13 12 19 20 16 18 17 19 19 23 30 42 47 73 93 94 100 100 100 100 99 100 100 96 86 81 88 100 100 100 91 86 80 75 79 82 84 81 82 83 85 89 88 91 89 96 94
16 18 16 15 19 21 19 20 19 19 21 24 27 40 66 83 100 100 100 100 100 98 100 100 100 100 90 87 80 80 96 98 96 94 87 87 82 83 90 91 90 92 91 91 95 95 100 94 90
13 21 23 21 21 22 20 23 21 20 22 23 26 54 91 100 98 100 100 100 99 95 95 100 100 100 100 100 90 85 80 74 74 90 96 96 100 100 100 98 93 97 100 98 100 100 96 99 97
14 18 23 21 21 21 23 23 21 24 23 22 20 20 87 100 100 93 95 86 93 91 96 100 100 100 100 100 99 87 94 77 77 91 97 100 100 100 99 94 92 97 96 94 99 100 100 100 99
13 16 23 24 22 21 24 24 24 28 26 23 22 23 45 100 100 100 94 88 89 90 92 100 98 100 100 100 100 99 90 92 90 88 99 100 100 100 100 100 100 100 100 100 100 100 100 100 100
15 15 19 23 23 22 23 26 25 28 28 26 20 20 22 42 99 100 100 97 84 85 73 71 99 100 100 100 100 99 93 96 100 100 100 100 100 100 100 100 100 100 100 100 100 100 100 100 100
16 17 19 20 21 23 22 24 25 27 29 28 26 21 18 24 33 70 100 100 100 97 94 86 80 95 100 100 100 100 100 100 100 100 100 100 100 100 100 100 100 100 100 100 100 100 100 100 100
17 19 19 20 21 22 22 24 27 27 27 25 24 24 20 19 22 26 34 78 100 100 100 100 92 86 81 97 100 100 100 100 100 92 97 100 100 100 100 100 100 100 100 100 100 100 100 100 100
18 19 20 20 22 27 30 29 31 28 28 28 26 24 22 21 19 18 22 22 49 100 100 100 100 97 89 87 99 100 100 100 100 100 91 93 100 100 100 100 100 100 100 100 100 100 100 100 100
21 19 20 20 24 30 31 30 35 27 29 29 27 26 25 24 24 23 18 19 22 30 72 100 100 100 100 100 98 100 100 100 100 100 100 100 100 100 100 100 100 100 100 100 100 100 100 100 100
25 23 22 22 22 25 30 30 39 28 24 28 29 28 27 25 25 25 24 21 20 33 39 57 91 100 100 100 100 100 100 100 100 100 100 100 100 100 100 100 100 100 100 100 100 100 100 100 100
28 26 24 22 24 24 23 25 31 26 25 27 28 28 29 26 28 28 29 31 28 25 23 38 48 80 91 100 100 100 100 100 100 100 100 100 100 100 100 100 100 100 100 100 100 100 100 100 100
34 34 34 31 26 24 24 23 25 25 22 25 28 28 28 29 29 29 30 33 46 46 43 31 24 34 56 76 90 93 97 96 96 100 100 100 100 100 100 100 100 100 100 100 100 100 100 100 96
44 45 43 39 34 31 28 26 26 23 20 18 25 28 28 28 29 29 31 34 33 68 40 52 21 21 21 25 39 56 73 88 99 100 98 95 98 100 100 100 100 100 100 100 100 100 92 89 83

GFSSGP_250_rhum_063.txt.gz
RH
12 58 100 98 75 44 49 51 78 96 84 74 95 82 91 74 64 52 68 67 56 64 61 42 41 52 60 52 42 36 35 32 29 30 32 31 33 35 41 43 52 54 58 57 48 36 31 33 35
10 23 64 100 90 64 45 45 70 98 84 76 94 87 100 86 71 66 68 71 61 67 70 46 49 62 62 57 47 38 38 35 32 32 29 28 32 41 52 56 63 66 68 63 50 37 34 37 36
10 18 30 63 90 80 55 44 76 88 100 90 86 85 98 100 97 94 92 82 63 59 73 56 61 66 60 59 57 46 48 46 41 34 29 26 30 46 63 61 70 77 75 65 51 38 37 37 40
10 10 17 24 58 100 72 42 63 86 99 100 93 88 82 100 100 96 98 89 75 57 59 69 66 66 62 59 59 57 51 48 42 34 27 26 36 56 69 65 73 76 73 59 48 41 38 41 43
10 11 10 24 57 100 96 56 83 73 96 95 100 91 85 100 100 100 100 96 87 76 53 57 82 76 68 64 65 62 58 50 43 33 28 31 38 59 69 75 81 86 67 53 45 40 37 41 46
9 10 10 20 52 80 98 90 100 76 86 96 100 97 86 81 100 100 100 100 89 76 73 50 56 81 79 70 58 58 60 58 46 32 30 31 35 56 70 81 86 84 58 49 44 39 38 40 46
9 10 11 13 64 53 97 100 100 74 68 91 98 98 87 87 80 90 84 100 99 84 77 64 54 62 81 73 62 58 62 58 49 30 27 26 36 59 72 72 65 64 54 46 45 42 42 43 44
10 10 13 13 43 42 75 100 100 96 85 96 97 85 100 97 81 78 98 99 100 98 70 78 80 70 75 81 80 65 63 56 54 31 26 25 42 58 65 61 57 57 52 46 43 43 48 48 45
11 9 10 13 16 37 62 99 100 100 90 91 83 94 100 99 95 89 83 89 100 100 89 85 88 72 74 76 75 74 71 67 56 37 27 27 43 50 57 50 54 55 48 44 43 46 51 51 49
10 10 10 15 15 31 62 70 100 100 100 84 77 84 98 100 100 100 98 77 86 95 91 98 90 68 78 88 84 81 85 77 59 49 32 28 33 40 41 46 53 52 41 39 42 48 48 47 49
10 10 16 13 13 14 30 41 62 100 100 93 81 89 94 99 100 100 100 100 98 100 95 88 100 84 79 84 80 76 75 71 72 57 41 34 35 37 42 46 50 45 38 39 45 52 54 55 58
12 14 13 13 14 15 17 20 40 66 100 100 100 98 93 99 100 100 100 100 100 100 99 75 87 92 90 77 68 65 70 69 77 72 56 41 42 43 41 41 43 48 49 55 58 62 64 60 58
16 15 12 10 13 15 18 17 29 57 78 100 100 100 95 99 99 100 100 100 100 99 100 100 84 91 94 84 76 67 67 71 62 68 74 55 46 43 50 50 48 48 52 57 59 56 56 54 55
16 18 14 11 16 16 16 17 17 39 74 86 100 100 100 100 100 100 100 100 100 100 100 100 88 83 99 100 96 87 78 71 75 74 71 78 61 58 48 52 55 55 55 56 55 54 55 56 56
14 24 16 13 17 16 18 19 16 21 38 75 98 100 100 100 100 100 100 100 100 100 100 100 94 96 97 100 100 100 96 83 72 79 67 68 75 66 67 65 58 59 58 57 58 59 60 62 63
14 24 23 16 18 16 20 20 20 19 18 51 80 92 90 100 100 100 100 100 100 100 100 100 98 100 99 100 100 100 100 100 94 77 80 69 69 75 67 67 71 74 76 77 76 76 72 80 85
15 24 17 15 16 17 20 24 18 18 18 22 56 82 79 95 100 100 100 100 100 100 100 100 100 100 99 99 100 100 100 100 100 92 91 98 86 72 73 76 68 66 70 75 79 84 87 89 89
13 17 17 16 14 14 20 23 18 18 18 19 22 40 72 80 100 100 100 100 100 100 100 100 100 100 100 100 100 99 91 94 94 94 94 92 90 86 80 78 81 83 84 84 82 79 82 89 85
16 25 23 21 15 16 18 21 23 21 19 21 22 22 28 51 69 83 88 100 100 100 100 100 100 100 100 100 100 100 100 96 84 74 73 74 67 68 74 84 86 89 100 100 94 96 100 100 98
12 14 21 20 20 20 22 24 24 20 20 20 22 21 24 23 39 69 83 84 94 100 100 100 100 100 100 100 100 100 100 92 88 81 73 71 70 74 80 88 98 100 100 100 100 100 100 100 100
14 15 22 24 26 20 19 21 25 22 22 21 23 26 26 23 22 23 46 78 79 68 71 100 100 100 100 100 100 100 100 100 100 93 94 90 88 89 96 100 98 100 100 100 100 100 100 100 100
15 15 19 29 28 24 19 22 21 21 26 25 21 23 25 28 22 20 24 52 88 86 79 74 91 100 100 100 100 100 100 100 100 100 93 84 82 85 96 100 100 100 100 100 100 100 100 100 100
14 14 15 22 31 22 21 22 21 25 28 26 23 23 26 29 25 21 25 42 62 90 99 88 78 92 99 100 100 100 100 100 100 100 100 100 93 78 79 95 100 100 100 100 100 100 100 100 100
17 15 15 17 18 22 24 24 23 24 26 27 24 23 23 27 30 24 22 29 51 85 100 100 100 100 100 99 100 100 100 100 100 100 100 100 100 100 98 100 100 100 100 100 100 100 100 100 100
16 15 15 15 15 19 20 24 26 25 25 27 26 25 23 26 30 28 23 23 38 76 100 100 100 100 100 100 93 88 88 90 98 100 100 100 100 100 100 100 100 100 100 100 100 100 100 100 100
18 18 19 18 18 20 28 28 28 27 27 27 30 27 26 25 30 30 25 24 24 31 65 100 100 100 100 100 98 93 85 72 80 86 100 100 100 100 100 100 100 100 100 100 100 100 100 100 100
23 19 21 21 23 24 30 31 31 30 26 29 30 31 29 26 28 31 32 27 26 25 24 31 74 100 100 100 100 99 93 94 92 87 80 82 100 100 100 100 100 100 100 100 100 100 100 100 100
28 24 24 23 26 29 34 31 32 34 26 25 30 31 31 30 27 30 31 30 27 24 24 23 24 39 75 100 100 100 99 90 88 93 98 92 92 94 100 100 100 100 100 100 100 100 100 100 100
29 29 27 27 28 25 26 24 28 29 24 20 26 30 30 30 28 27 27 30 29 27 25 23 23 24 26 27 33 42 60 72 74 73 77 83 92 98 100 100 100 100 100 100 100 100 100 100 100
33 32 29 25 27 26 27 26 28 32 27 22 24 28 30 31 31 29 27 28 27 28 28 26 24 22 22 22 22 23 24 28 30 38 57 78 88 96 96 99 100 100 100 100 100 100 100 100 100

GFSSGP_250_rhum_066.txt.gz
RH
9 10 28 100 98 86 70 60 63 53 73 70 81 80 76 85 69 66 82 86 81 69 61 57 58 50 39 43 52 43 43 42 42 36 33 33 33 31 32 34 42 46 49 57 61 64 57 50 41
8 9 10 28 67 94 81 85 70 46 63 79 94 78 72 78 80 75 85 82 74 76 71 66 59 61 46 41 48 46 45 41 35 32 32 33 28 30 29 30 41 58 62 65 69 72 63 57 46
8 9 10 9 13 93 100 82 78 50 58 80 88 76 69 74 82 81 78 74 74 68 68 67 62 69 58 41 50 60 50 41 36 32 33 36 36 31 28 28 40 64 68 70 77 79 69 57 47
8 8 9 9 11 79 100 99 72 61 54 88 99 84 80 71 75 78 93 78 68 68 65 66 64 61 70 46 54 57 56 51 47 40 39 40 39 32 26 30 46 68 68 71 76 78 68 55 48
8 8 8 9 12 51 98 100 85 70 83 69 97 100 86 91 83 79 87 76 74 68 65 72 70 59 69 56 55 56 53 52 54 52 47 46 41 30 28 30 51 68 70 77 87 82 65 53 47
9 8 9 10 11 31 100 100 100 100 88 76 87 84 91 92 86 78 86 85 82 88 94 82 87 64 61 66 66 60 60 54 56 54 52 52 45 30 31 32 54 67 85 92 92 86 61 51 45
9 8 8 12 12 17 69 91 100 100 92 97 87 73 96 100 77 81 84 76 83 99 100 94 88 90 63 55 58 61 59 62 61 58 52 53 46 31 27 28 49 68 82 80 73 71 56 50 43
10 10 10 13 13 12 15 96 100 100 99 99 90 86 100 100 100 99 78 85 85 100 100 100 83 85 75 64 47 48 56 61 64 60 54 49 48 32 25 26 44 61 69 69 61 60 55 48 42
9 8 11 13 14 14 13 35 100 100 100 100 84 82 100 100 100 98 82 96 91 97 96 100 87 81 80 68 57 59 60 58 61 67 58 53 54 35 26 29 44 53 59 58 54 57 52 44 42
8 7 10 16 16 14 17 37 61 100 100 100 92 98 100 100 100 93 91 84 78 100 86 86 86 100 92 76 80 73 65 64 66 70 76 64 56 45 29 27 36 42 45 45 50 55 54 43 43
7 8 14 16 14 14 16 28 49 70 100 100 100 100 100 100 100 100 96 90 82 84 86 83 69 100 100 95 88 78 63 61 65 81 80 78 66 56 41 29 31 36 38 42 47 52 45 38 44
7 11 12 17 13 13 16 15 42 53 83 100 100 100 100 100 100 100 100 84 76 87 84 83 71 89 94 99 100 87 68 63 63 68 83 73 73 60 56 41 33 36 39 42 42 40 44 48 58
7 10 16 14 14 16 15 17 21 31 48 81 100 100 100 100 100 100 100 96 100 100 98 86 86 81 81 98 99 89 83 76 76 78 73 74 80 78 65 62 48 39 41 48 52 53 52 54 54
9 13 16 16 18 26 16 19 19 22 42 64 100 100 100 100 100 100 100 100 100 100 100 100 88 86 91 100 98 80 84 83 92 87 77 72 69 78 78 74 61 59 48 40 40 43 48 51 50
10 13 13 15 20 16 16 20 18 18 25 60 76 100 100 100 100 100 100 100 100 100 100 100 100 100 91 95 100 100 93 90 91 92 93 86 76 75 92 87 74 71 64 58 52 50 50 52 54
14 13 13 17 24 24 19 18 24 18 19 37 75 78 96 100 100 100 100 100 100 100 100 100 100 100 100 100 100 100 100 97 98 100 100 100 98 91 80 86 85 75 66 63 63 58 57 61 67
11 12 14 19 24 20 16 21 22 17 20 32 52 80 79 96 100 100 100 100 100 100 100 100 100 100 100 100 100 100 100 98 96 99 100 100 100 100 100 95 94 88 77 71 69 71 72 75 74
10 10 13 20 33 30 24 23 19 19 21 21 28 46 63 70 82 99 100 100 100 100 100 100 100 100 100 100 100 100 100 100 100 100 100 100 100 100 96 88 86 85 85 89 88 94 91 88 94
16 18 21 22 31 38 22 21 24 23 21 22 22 22 25 38 69 66 100 100 100 100 100 100 100 100 100 100 100 100 100 100 100 100 100 100 84 81 76 73 84 90 89 85 85 82 97 100 100
14 13 19 28 42 42 22 24 23 22 24 22 22 28 26 23 32 53 83 98 100 100 100 100 100 100 100 100 100 100 100 100 100 100 100 100 100 100 100 100 96 94 79 77 75 82 94 99 100
11 11 15 25 42 26 14 17 20 21 22 22 20 24 27 26 22 23 84 77 79 100 100 100 100 100 100 100 100 100 100 100 100 100 100 100 100 90 91 95 92 96 85 94 84 83 93 100 100
12 15 13 20 24 24 19 24 26 21 21 19 19 22 26 24 21 19 28 63 88 99 100 100 100 100 100 100 100 100 100 100 100 100 100 100 100 98 100 96 93 84 83 77 83 87 100 100 100
11 14 14 19 24 20 13 20 27 27 23 22 23 22 26 26 26 22 22 42 65 75 91 96 100 100 100 100 100 100 100 100 100 100 100 100 100 100 100 100 100 99 100 99 80 67 92 94 100
12 12 15 19 18 18 16 25 29 30 26 25 28 27 26 25 26 25 22 28 25 28 49 70 82 89 100 100 100 100 100 100 100 100 100 100 100 100 100 100 100 100 97 98 100 100 100 100 97
14 15 16 16 16 23 26 28 26 31 31 26 28 30 29 28 25 26 26 29 23 24 24 29 35 56 67 71 81 99 100 100 100 100 100 100 100 100 100 100 100 100 100 100 100 99 100 100 100
17 18 19 18 19 29 37 37 33 32 36 30 27 26 27 28 29 27 26 27 30 27 24 24 24 29 41 43 52 63 76 84 96 94 94 100 100 100 100 100 100 100 100 100 100 100 100 100 100
18 16 19 19 20 20 22 23 32 36 31 29 25 25 25 26 27 30 28 27 27 30 29 27 22 25 27 33 50 66 67 80 81 84 80 75 86 98 100 100 100 100 100 100 100 100 100 100 100
18 19 19 21 22 21 23 28 32 35 32 28 28 28 26 24 23 27 30 29 28 30 29 28 30 22 25 27 29 50 77 77 69 71 69 70 78 86 93 96 98 98 99 100 100 100 100 100 100
24 21 20 22 22 20 21 21 24 31 29 27 28 27 30 29 27 28 31 32 30 29 32 28 28 29 26 25 26 27 40 67 75 68 64 60 68 73 72 75 77 84 92 89 95 100 100 100 100
29 27 22 19 21 22 22 24 26 26 25 22 19 20 29 32 30 29 29 32 33 30 29 28 28 29 30 28 24 26 25 26 29 36 52 62 55 57 54 59 68 68 68 67 63 70 84 85 91

GFSSGP_250_rhum_069.txt.gz
RH
7 8 8 14 43 68 94 98 73 50 56 47 61 73 84 72 68 67 78 80 79 74 72 71 77 69 64 52 40 36 43 51 54 48 42 42 41 36 35 32 29 31 33 36 48 55 65 67 68
7 7 8 10 34 68 81 100 97 76 59 63 43 73 86 80 59 60 75 83 80 75 65 78 67 64 66 66 58 44 35 42 51 46 43 40 34 31 35 32 33 30 33 40 60 67 72 76 77
7 8 8 7 13 55 100 100 100 96 65 58 58 86 73 94 79 89 81 84 84 78 68 70 67 67 62 65 69 55 40 37 48 47 44 41 39 38 40 38 35 30 33 47 72 78 76 83 77
6 9 8 7 9 37 100 100 96 100 79 64 76 73 63 90 77 69 78 68 69 82 84 85 84 70 69 66 68 65 49 39 41 45 47 53 55 51 46 42 34 28 34 48 71 80 79 88 81
5 8 8 7 12 14 100 100 89 100 90 63 100 82 100 81 76 82 100 82 72 82 78 84 84 65 62 63 66 67 58 44 46 50 49 53 57 56 54 48 36 30 30 41 65 77 85 95 91
5 6 7 9 12 17 97 100 100 100 100 79 78 97 100 88 70 75 96 100 76 73 80 79 76 75 66 60 68 63 65 56 54 52 54 52 55 53 56 51 38 30 30 36 62 77 87 95 86
4 6 7 11 14 31 50 100 100 100 100 100 90 100 95 72 82 85 74 68 98 73 77 74 74 71 69 72 68 61 66 67 63 61 55 49 51 51 52 54 40 30 27 31 55 72 77 74 68
4 6 8 10 14 19 26 30 100 100 100 100 100 80 100 91 100 100 85 71 74 100 94 91 80 75 74 93 79 73 64 71 65 50 49 51 51 56 52 54 48 31 26 30 50 62 66 65 58
4 4 7 11 15 20 15 13 19 89 100 100 100 98 100 100 100 100 66 89 78 84 100 95 81 85 94 87 85 82 81 62 54 49 52 57 54 55 54 51 52 38 27 31 46 51 54 54 51
3 4 7 16 17 21 16 21 13 29 100 100 100 100 100 99 100 100 100 88 98 89 98 97 93 82 82 100 100 75 78 74 60 59 60 56 56 57 60 52 48 47 34 28 32 39 42 44 46
4 4 8 13 16 18 17 17 18 17 82 100 100 100 100 91 100 100 100 99 77 100 100 77 97 90 84 99 100 89 81 74 70 76 64 60 57 64 60 64 58 50 46 37 29 31 34 38 42
4 6 7 11 15 17 18 17 24 30 26 100 100 100 100 100 97 100 100 96 82 100 83 100 100 94 100 100 100 90 97 81 70 81 72 52 60 68 67 73 64 59 49 46 41 34 33 35 37
6 6 8 9 13 16 20 18 16 69 41 99 100 100 100 100 100 100 100 100 88 70 69 83 100 100 100 100 97 68 94 100 100 100 98 68 65 69 74 74 69 64 61 54 53 48 43 40 37
8 7 10 9 12 16 21 18 18 21 65 40 100 100 100 100 100 100 100 100 100 94 87 85 100 98 91 89 99 85 78 93 84 77 84 98 87 88 85 86 78 70 73 67 60 57 52 51 50
7 8 11 13 17 19 20 20 18 18 38 25 70 100 100 100 100 100 100 100 100 92 100 93 100 100 100 100 85 88 92 88 90 100 93 88 81 80 93 100 99 87 80 82 73 68 64 60 62
6 9 11 12 14 24 20 22 21 22 19 38 24 99 100 100 100 100 100 100 100 92 100 100 94 100 100 100 100 95 87 93 99 100 100 100 100 100 100 100 100 100 97 93 84 84 86 84 81
5 7 10 12 14 18 19 26 25 23 22 28 29 35 99 100 100 100 100 100 100 100 98 100 100 100 100 100 98 98 96 95 98 96 100 100 100 100 100 100 100 100 100 100 93 87 94 100 100
5 6 10 11 13 16 20 33 23 24 25 22 36 39 53 88 100 100 100 100 100 100 100 100 100 100 100 100 100 100 84 93 94 99 100 100 100 100 100 100 100 100 91 87 91 89 82 89 100
6 10 11 15 20 26 29 40 30 24 24 24 22 28 38 56 78 100 100 100 100 100 100 100 100 100 100 100 100 99 99 89 85 95 100 100 100 100 100 100 100 100 100 100 100 100 100 100 100
7 7 12 19 21 22 32 25 43 25 24 24 22 22 26 24 34 49 96 100 100 100 100 100 100 100 100 100 100 100 100 100 99 100 100 100 100 100 100 100 100 100 100 100 100 100 100 100 99
7 11 16 13 23 31 39 48 36 28 24 27 28 25 24 29 24 41 70 97 97 100 100 100 100 100 100 100 100 100 100 100 100 100 100 100 100 100 100 100 100 100 100 100 97 96 84 76 86
9 13 17 14 23 36 48 45 21 15 23 23 26 28 25 24 28 26 52 69 91 100 100 100 100 100 100 100 100 100 100 100 100 100 100 100 98 100 100 100 100 100 97 100 100 100 92 87 71
10 12 16 22 27 34 41 29 24 14 18 26 27 28 29 26 25 49 33 64 70 78 93 100 100 100 100 100 100 97 100 100 100 100 100 100 100 100 100 100 100 100 100 100 92 90 91 88 93
12 16 23 28 26 28 35 25 23 17 17 20 28 28 28 30 28 31 77 68 71 62 77 85 78 86 98 100 100 100 100 100 100 100 100 100 100 100 100 100 99 97 100 100 100 100 96 89 88
13 17 29 18 20 22 25 27 27 18 19 22 26 31 30 28 30 29 47 100 100 70 40 29 26 29 42 84 100 100 100 100 100 100 100 100 99 100 100 100 100 100 100 100 100 100 100 100 100
13 13 16 18 21 20 23 19 17 17 18 17 21 28 33 31 31 30 31 35 44 98 99 36 24 27 28 33 43 78 98 100 100 100 100 100 100 100 100 100 100 100 100 100 100 100 100 100 100
16 14 16 18 16 20 21 20 16 19 20 23 27 29 35 35 31 29 30 33 35 34 35 87 75 25 26 28 29 33 37 64 95 100 100 100 100 100 100 100 100 100 96 100 99 100 100 100 100
20 18 19 21 20 22 21 20 18 18 22 24 27 27 31 36 35 31 28 30 36 36 36 34 34 41 30 26 25 27 26 31 35 32 32 37 42 49 52 60 59 54 59 64 72 82 93 91 96
21 20 18 18 23 22 24 25 28 28 24 28 30 26 22 32 36 34 31 29 31 37 38 34 33 32 31 32 30 24 22 23 25 28 28 29 28 26 26 26 26 30 45 48 48 62 72 76 80
20 21 22 20 20 23 25 26 24 24 20 17 20 30 32 36 36 40 40 35 31 31 37 37 34 32 31 30 30 30 33 44 27 22 23 27 27 28 28 28 26 24 24 26 34 44 46 42 40

GFSSGP_250_rhum_072.txt.gz
RH
4 4 5 7 10 10 37 55 98 79 77 72 72 91 86 75 69 65 70 71 63 93 90 69 76 72 66 73 58 44 35 35 34 37 41 47 48 38 40 36 31 34 32 33 31 37 49 57 70
4 3 4 5 8 9 16 58 100 98 70 90 67 93 100 80 74 71 74 74 69 73 100 95 90 92 79 78 72 55 46 40 38 35 36 39 46 38 39 37 38 41 38 34 31 33 48 68 82
3 3 4 4 6 9 13 48 99 100 100 93 79 90 99 94 70 65 79 74 69 67 82 100 89 82 79 74 73 59 59 56 53 44 36 37 47 42 41 45 50 50 43 34 30 34 49 68 87
3 3 4 3 5 11 16 38 75 100 100 100 89 78 77 78 61 59 68 88 65 78 78 85 87 80 72 76 68 53 58 61 58 58 44 42 47 44 48 48 52 53 48 38 31 30 40 56 77
3 3 3 3 7 13 22 27 29 98 100 100 100 83 86 71 61 57 69 72 72 74 70 71 88 86 77 76 75 68 64 64 64 62 50 45 44 49 52 49 52 54 53 42 33 31 32 51 71
2 3 3 4 9 15 24 36 13 77 100 100 97 98 84 100 100 76 77 100 97 77 72 75 89 90 87 92 91 68 57 59 67 63 55 50 51 57 57 52 46 50 55 45 33 29 29 46 68
3 3 3 5 10 14 26 54 29 55 100 100 96 92 98 100 100 82 69 76 100 100 91 93 90 92 96 92 91 75 68 60 66 64 64 63 62 62 59 54 46 46 45 48 38 28 27 40 55
3 3 3 5 8 16 26 34 75 49 94 100 100 85 94 100 100 92 73 76 77 100 100 99 99 79 89 87 85 80 73 64 64 63 63 72 69 51 50 53 51 49 44 45 43 30 27 34 48
3 3 3 4 8 18 25 31 78 71 76 100 100 93 99 100 100 100 100 77 61 100 100 100 100 98 95 89 82 87 80 75 71 75 61 69 66 49 50 55 55 51 47 44 45 39 29 28 32
2 3 4 5 9 16 22 24 91 89 94 100 100 92 99 100 100 100 97 69 88 97 100 100 100 100 100 94 84 87 87 88 82 76 81 70 60 55 58 57 56 57 49 53 46 47 41 33 29
2 3 5 5 10 14 18 23 34 86 100 100 100 100 100 100 97 100 100 93 98 79 89 100 100 100 100 98 100 90 97 94 93 83 78 71 67 63 63 57 55 58 55 52 49 48 46 43 38
3 5 5 6 8 14 17 23 23 21 81 100 100 100 100 93 100 100 100 100 100 95 96 91 100 100 100 100 100 100 96 96 81 87 79 83 77 69 70 66 55 60 63 61 61 60 59 52 50
4 5 5 7 7 11 17 23 25 22 24 99 100 100 100 85 95 100 100 100 100 95 68 78 90 94 99 96 100 100 100 93 93 75 86 98 95 85 96 96 83 75 75 78 77 73 66 67 60
5 6 6 7 7 11 16 20 22 29 23 60 100 100 100 96 95 100 100 100 100 100 80 67 97 100 96 87 79 100 100 100 100 94 78 71 100 100 100 97 82 83 77 80 87 86 84 77 75
4 5 5 6 9 9 16 19 23 32 41 41 100 100 100 100 100 95 96 100 100 100 100 95 88 83 100 99 88 100 100 100 100 100 100 89 76 96 85 97 100 92 95 97 98 100 96 90 85
4 5 5 7 8 11 18 22 23 27 81 54 72 100 100 100 100 100 90 99 100 100 100 100 100 100 85 81 99 95 100 100 100 100 100 100 96 94 100 100 100 100 100 100 100 100 100 100 97
4 5 6 7 10 14 16 21 18 28 40 100 32 64 100 100 100 100 100 100 84 72 100 100 100 100 85 70 87 100 100 100 100 100 100 96 100 98 97 100 100 100 100 100 100 100 100 100 100
4 6 6 8 12 10 16 21 18 28 30 84 91 28 59 100 100 100 100 94 97 91 100 100 93 100 94 84 85 94 100 100 100 100 100 100 100 100 100 100 100 100 100 100 100 100 100 100 99
5 6 7 9 13 12 18 24 32 29 32 30 100 98 40 96 100 100 100 100 100 86 94 93 83 88 100 100 98 100 92 100 99 96 100 100 100 100 100 100 100 100 100 100 100 100 100 100 100
5 6 7 9 12 16 17 17 22 14 29 31 31 100 100 73 100 100 100 100 100 100 98 98 100 94 99 94 100 100 100 100 100 100 100 100 100 100 99 100 100 100 100 100 100 100 100 100 100
7 6 8 10 13 14 20 29 20 24 22 29 32 38 100 100 74 100 100 100 100 100 100 100 100 100 97 90 100 99 96 88 89 81 73 97 100 98 100 100 100 100 100 100 100 100 94 98 100
9 10 11 18 21 23 26 21 21 13 18 26 33 29 48 100 100 87 100 100 100 100 100 100 100 99 98 91 99 100 100 100 97 100 98 100 79 74 90 92 97 100 91 84 79 75 80 80 82
10 13 16 15 20 25 32 31 22 20 16 26 32 36 30 30 82 100 70 93 100 100 100 100 100 100 100 100 84 100 100 100 100 100 100 100 97 100 100 100 100 100 100 99 100 100 100 100 100
12 14 10 9 16 20 22 28 38 31 31 21 30 37 34 30 28 35 85 51 56 92 100 100 100 100 100 100 100 100 100 100 100 100 100 100 100 100 97 99 98 91 78 79 88 98 97 90 99
10 14 12 12 16 18 15 25 43 34 23 26 23 28 36 35 32 31 28 56 59 49 74 97 100 100 100 100 100 100 100 100 100 100 100 98 100 100 100 100 100 100 96 100 94 88 92 92 95
13 14 18 16 10 17 21 27 31 37 21 16 21 24 30 37 38 34 34 30 61 86 85 52 58 87 100 100 100 100 100 100 100 100 100 100 100 100 100 100 100 100 98 98 100 100 100 100 97
13 14 17 20 12 13 19 28 30 27 23 24 18 21 23 28 33 38 38 37 36 34 63 100 96 45 43 64 87 97 100 100 100 100 100 100 100 100 100 100 100 100 100 100 93 92 91 100 100
14 16 18 19 16 11 16 17 24 25 33 34 22 17 17 23 25 29 39 41 40 39 38 36 73 99 100 74 39 26 32 44 60 88 100 100 100 100 100 100 100 100 100 100 100 100 100 100 100
19 18 20 21 22 20 16 24 26 35 32 22 19 17 16 17 22 27 36 43 44 42 40 40 38 37 53 88 100 98 78 45 36 39 39 41 36 41 49 47 48 51 57 51 48 55 57 45 33
20 20 21 23 25 21 22 25 24 29 30 21 20 25 26 23 26 28 35 41 46 49 45 41 40 40 38 37 36 46 82 100 100 100 92 42 28 24 24 26 27 27 27 28 32 31 29 27 26

GFSSGP_250_rhum_075.txt.gz
RH
6 6 5 4 4 4 7 11 23 63 79 74 65 62 81 79 82 76 74 65 62 48 51 53 53 58 39 41 45 39 61 60 50 32 28 30 30 32 34 42 38 35 36 38 40 39 32 31 39
4 4 3 4 3 3 6 12 14 42 100 100 87 89 98 86 75 93 93 73 71 55 60 62 60 80 84 77 68 65 65 67 51 42 32 31 32 32 34 40 41 38 42 45 45 42 33 30 33
3 3 2 2 2 3 6 11 15 21 74 96 65 96 100 86 86 96 100 79 80 73 72 74 80 75 100 94 95 93 84 72 55 48 43 40 37 34 32 36 41 42 42 40 45 46 36 30 31
2 2 2 1 2 3 7 10 16 18 85 100 78 100 100 94 94 96 96 88 88 90 77 78 90 79 88 100 90 83 88 78 59 51 53 48 47 41 36 38 39 46 46 39 45 48 38 34 31
1 2 2 2 2 3 7 10 12 16 23 100 94 96 100 98 100 91 94 84 84 79 73 75 85 77 78 98 100 90 80 77 65 60 58 62 59 47 40 39 44 50 48 39 40 46 44 34 28
1 2 1 2 2 3 7 10 12 15 17 99 100 87 100 89 100 100 94 75 72 65 76 76 76 77 78 80 85 92 84 84 71 73 63 62 60 57 44 42 50 52 44 42 42 41 45 39 30
1 2 2 2 3 4 8 11 12 17 20 59 100 89 84 100 92 94 79 78 99 96 86 83 84 83 90 84 89 100 96 96 90 85 59 59 59 59 54 51 57 49 44 44 44 42 47 42 32
2 2 1 2 2 4 8 12 11 18 24 28 94 93 60 100 95 100 96 90 100 100 100 100 100 99 100 100 97 100 100 100 100 86 70 69 64 59 59 55 61 47 46 48 45 39 42 44 39
2 1 2 2 3 6 8 12 10 17 31 30 100 97 77 100 100 100 100 100 97 95 91 94 100 100 100 100 100 100 97 95 92 85 77 78 72 64 62 59 55 49 49 48 47 46 41 41 40
1 2 2 3 3 6 7 11 11 19 34 46 100 98 72 100 100 100 100 100 78 95 100 100 100 100 100 100 100 100 100 99 94 89 82 82 77 71 69 66 61 56 56 52 50 48 47 46 46
2 2 3 3 4 6 6 10 12 18 47 62 100 100 92 100 100 100 100 99 95 97 100 100 100 100 100 100 100 98 100 100 97 92 80 89 87 79 81 74 67 61 64 56 53 58 59 61 63
1 2 3 3 4 6 6 8 14 18 36 80 100 100 100 100 100 100 100 100 100 99 98 100 100 100 100 100 100 100 100 100 100 99 87 87 84 71 100 84 85 76 70 75 78 70 74 74 76
2 2 3 3 5 8 6 8 13 20 30 74 100 100 100 80 99 100 100 100 100 100 100 84 71 96 100 100 97 100 100 100 100 100 100 100 95 80 88 95 100 81 78 90 88 76 67 68 75
3 3 3 4 5 7 8 9 13 21 36 79 100 100 100 100 95 100 100 100 100 100 100 100 100 90 96 100 100 86 97 100 99 98 100 100 100 99 93 96 98 98 100 95 80 78 86 90 100
2 2 3 4 5 7 10 11 13 21 46 95 100 100 100 100 100 100 100 100 100 100 100 100 100 100 100 100 76 57 91 100 100 100 100 100 100 100 100 100 95 100 92 99 99 100 100 100 100
2 2 2 4 6 8 10 11 13 21 38 100 100 100 100 100 100 100 100 100 100 100 98 100 100 100 100 97 100 88 56 56 85 100 100 98 98 100 100 100 100 100 99 93 96 100 100 100 100
2 3 3 4 6 8 8 13 16 21 35 100 100 100 100 100 100 100 100 100 100 100 100 100 100 100 96 96 100 100 93 49 47 50 93 100 100 100 100 100 100 100 100 100 100 100 100 100 100
3 3 3 5 7 9 9 12 16 22 38 100 100 100 100 100 100 100 100 100 100 94 90 100 100 100 76 95 98 89 90 86 92 87 91 100 100 100 100 100 100 100 100 100 100 100 100 100 100
4 4 4 6 8 10 10 16 17 25 42 100 100 100 100 100 100 100 100 96 100 100 74 87 100 100 83 99 100 100 100 92 80 100 100 100 100 100 100 100 100 100 100 100 100 100 100 100 100
4 4 4 6 10 13 12 14 24 17 44 67 100 100 100 100 100 100 100 100 94 72 77 100 100 95 96 100 100 100 100 100 95 99 100 100 100 100 100 100 100 100 100 100 100 100 100 100 100
5 4 5 7 11 13 15 19 22 50 44 48 83 93 66 99 100 100 100 100 98 100 78 84 100 94 100 100 100 100 100 100 77 78 77 100 100 100 100 100 100 100 100 99 100 98 93 100 98
6 6 6 7 9 15 17 14 16 30 24 40 50 100 96 79 100 100 100 100 100 100 99 98 86 100 97 98 99 91 99 100 100 100 99 100 100 100 100 100 99 98 93 96 87 76 64 67 69
7 8 8 8 10 14 17 17 19 33 30 28 51 65 100 100 75 90 100 100 100 100 100 100 90 87 80 71 84 100 77 94 100 100 100 100 97 97 100 93 91 78 72 74 69 61 58 51 57
7 8 10 12 14 12 20 17 25 24 40 25 46 54 80 100 100 66 86 100 100 100 100 100 100 89 99 97 99 97 100 90 94 100 100 100 100 100 100 100 97 92 100 100 100 78 83 80 88
8 12 13 17 9 10 15 25 40 32 32 26 23 44 54 59 100 100 85 75 100 99 100 100 100 100 100 100 100 99 96 100 100 100 100 100 100 100 100 100 96 98 100 100 100 100 94 91 87
11 13 13 11 9 12 14 23 44 33 30 23 19 21 39 46 50 95 100 100 63 57 87 92 100 100 100 100 100 100 100 100 100 100 100 100 100 100 100 100 100 100 100 100 100 100 100 100 100
11 10 10 11 9 11 14 24 39 45 40 28 20 21 21 37 42 47 64 100 100 100 72 86 96 100 100 100 100 100 100 100 100 100 100 100 99 96 98 99 100 100 100 100 100 100 100 100 100
14 12 13 12 11 12 13 21 38 30 29 27 33 24 21 23 30 41 48 46 68 100 100 100 87 100 100 100 100 100 100 100 100 100 100 100 100 100 100 100 100 100 100 100 100 100 100 100 100
19 18 17 14 14 15 14 15 22 30 26 17 18 20 19 19 21 27 38 47 50 43 49 100 100 100 100 100 100 100 100 100 100 100 100 100 100 100 100 100 100 100 100 100 100 100 100 100 100
22 22 20 18 14 14 15 17 16 14 16 22 18 23 23 18 18 20 24 32 41 48 47 39 42 87 100 100 100 100 100 100 89 77 92 100 100 100 100 100 100 100 100 100 100 91 87 80 81

GFSSGP_250_rhum_078.txt.gz
RH
7 6 5 5 5 4 4 6 8 9 12 15 48 44 70 59 60 62 90 98 84 99 65 59 55 53 50 50 56 55 40 40 33 50 58 55 39 26 26 26 29 33 39 41 38 35 36 38 35
10 7 5 4 4 4 5 7 10 10 10 13 18 24 55 62 64 62 59 93 86 84 80 71 62 52 52 53 54 57 45 55 48 53 66 63 45 33 27 27 28 30 32 40 40 35 33 39 36
8 6 5 4 3 4 5 6 10 12 12 12 15 14 41 67 67 75 70 70 96 75 74 78 66 55 50 53 57 72 90 92 85 85 76 72 49 42 37 37 36 30 31 35 39 37 36 42 44
8 7 5 3 3 5 7 8 10 10 11 12 18 20 18 49 94 80 78 78 96 92 77 76 78 69 54 61 61 70 96 100 96 90 88 78 59 52 50 47 43 37 32 34 39 35 33 36 44
7 5 5 4 4 5 6 7 8 8 10 11 20 24 18 65 94 94 84 91 91 95 86 74 82 79 70 79 82 82 80 100 97 91 78 69 62 60 57 57 49 46 36 40 43 35 36 37 37
4 4 4 5 4 4 4 4 6 5 8 10 20 26 32 58 100 90 82 100 99 84 90 87 80 84 90 82 84 87 72 97 98 86 82 66 67 70 65 60 55 50 46 48 45 37 39 40 31
2 2 3 3 3 2 3 3 4 5 7 10 17 70 41 48 100 100 84 81 91 91 76 94 88 86 98 95 84 93 82 79 78 76 83 79 66 72 64 63 62 58 50 51 49 42 42 40 36
2 2 2 2 3 3 3 2 4 4 6 12 18 86 93 51 100 100 91 100 100 100 100 91 92 73 91 97 83 96 98 92 87 91 92 91 66 68 74 68 70 63 61 52 50 46 45 42 38
2 1 2 2 2 3 2 2 3 4 6 12 18 58 100 53 62 100 100 100 100 100 100 100 100 100 100 100 100 100 100 100 100 94 98 100 85 66 70 74 75 68 67 57 52 55 52 51 44
2 1 2 2 2 2 2 2 3 4 5 12 19 35 100 96 35 100 100 100 100 100 100 100 100 100 88 100 100 100 100 100 100 100 95 94 84 72 80 85 81 80 70 70 65 58 58 58 58
1 1 2 2 2 2 2 2 3 3 5 13 22 33 100 100 42 98 100 100 99 100 100 100 100 93 100 100 100 99 92 100 100 97 88 94 90 84 83 82 88 82 78 70 68 70 64 68 66
1 1 2 2 2 2 2 2 3 4 6 15 23 61 100 100 36 88 100 100 100 100 100 100 96 86 84 73 75 98 96 100 100 100 100 100 100 94 92 80 74 73 70 71 75 72 61 70 81
1 1 2 1 2 2 2 2 3 4 6 13 28 35 100 99 68 68 100 100 100 100 100 100 86 100 100 100 100 100 100 100 100 100 100 100 100 100 100 100 88 83 82 80 100 100 98 99 92
1 1 2 1 2 2 2 2 3 5 7 13 40 41 100 88 100 86 95 100 100 100 100 100 96 100 99 99 100 99 100 100 100 96 84 83 88 89 100 100 100 100 94 90 82 79 90 99 100
1 1 1 1 2 2 3 3 4 5 8 14 51 99 100 89 100 87 100 100 100 100 100 100 68 98 92 100 93 98 70 93 90 90 71 65 76 90 100 100 97 93 95 100 100 100 100 100 99
1 1 2 2 2 3 3 4 7 8 11 18 48 100 100 98 100 100 100 100 100 100 100 100 100 100 100 100 100 100 92 82 98 65 57 53 51 88 100 100 100 100 100 100 100 100 100 100 100
2 2 3 2 3 3 3 7 6 6 11 23 47 100 100 100 100 100 100 100 100 100 100 100 100 100 100 100 100 100 100 78 80 67 62 54 63 95 100 100 100 96 100 99 100 100 100 100 100
2 3 3 3 4 3 4 6 6 9 14 30 54 100 100 100 100 100 100 100 100 100 100 100 100 100 100 98 87 100 100 100 100 100 85 99 77 80 99 99 97 100 100 100 100 100 100 100 100
2 2 4 4 4 4 6 8 10 12 17 26 64 100 100 100 100 100 100 100 100 100 100 100 100 100 100 100 100 92 100 100 100 100 84 71 74 77 93 96 83 100 100 100 100 100 97 100 100
3 3 3 5 4 4 7 10 11 12 16 26 92 100 100 100 100 100 100 100 100 100 100 100 100 100 100 100 100 100 100 99 100 100 98 100 100 81 76 90 100 100 100 100 100 100 100 99 97
3 4 4 4 5 5 8 12 11 12 19 28 76 100 100 100 100 100 100 100 100 100 100 100 100 100 94 100 100 100 100 100 85 84 100 95 74 85 81 93 100 100 100 100 100 100 100 100 92
4 4 4 4 6 8 10 13 9 12 16 28 73 100 100 100 100 100 100 100 100 100 98 100 96 100 100 100 100 100 100 100 100 100 100 100 100 86 85 91 88 88 85 97 98 89 90 99 92
4 4 4 5 7 10 12 10 13 13 18 30 72 100 100 100 100 100 100 100 100 99 100 100 100 100 100 100 100 100 100 95 100 100 100 100 99 100 100 100 100 100 90 87 77 62 59 54 59
5 6 6 7 9 12 12 15 15 27 25 35 44 100 100 100 100 100 100 100 100 100 100 100 100 100 100 100 100 99 99 100 100 100 100 100 100 100 100 100 100 100 100 95 86 84 62 48 45
7 7 7 8 9 18 16 19 20 29 29 34 37 93 100 100 100 100 100 100 100 100 95 100 97 100 100 100 100 100 100 96 100 100 100 100 100 100 100 100 100 100 100 100 97 82 91 88 94
10 9 8 9 9 14 17 18 19 25 48 33 28 45 100 100 100 100 100 100 100 100 100 100 100 96 81 100 100 87 75 75 66 88 100 100 99 98 100 100 100 100 100 100 100 93 96 100 98
10 10 9 12 10 12 14 16 16 20 43 38 27 30 52 99 100 100 100 100 100 100 99 100 100 100 100 100 100 78 80 93 100 100 100 90 84 99 96 100 100 99 78 78 100 100 100 100 100
10 9 8 8 8 10 12 15 17 17 26 43 31 22 35 53 100 100 100 100 100 100 100 100 100 100 100 100 100 98 90 97 100 92 82 100 78 98 100 100 100 100 100 100 100 100 95 100 100
11 10 11 11 10 9 9 14 13 15 22 35 46 46 27 41 91 100 100 100 100 93 99 100 100 100 100 100 100 100 100 100 100 100 100 100 100 100 100 100 100 100 100 100 100 100 99 95 99
16 12 13 14 12 12 13 14 17 17 18 23 29 34 33 32 35 61 98 100 100 100 90 83 85 100 100 100 100 100 100 100 100 100 100 100 100 100 100 100 100 100 100 100 100 100 100 100 100

GFSSGP_250_rhum_081.txt.gz
RH
23 17 11 6 5 4 4 5 6 8 8 11 24 35 49 59 66 73 100 100 74 86 100 92 94 78 48 46 49 48 45 51 51 46 41 34 44 58 56 44 30 29 29 30 32 38 37 34 29
24 22 15 11 6 4 3 3 6 8 7 8 12 21 31 55 87 78 99 97 83 85 92 94 93 100 77 51 55 51 52 51 55 45 43 48 48 62 65 47 38 32 32 36 31 34 35 36 28
17 16 16 16 12 6 4 3 4 6 7 6 9 12 18 28 42 58 81 83 84 86 88 87 98 94 96 60 59 50 51 52 54 57 72 78 85 78 71 53 46 44 43 41 37 36 35 37 31
16 14 12 14 18 9 4 4 3 4 7 6 6 10 12 15 20 28 74 86 69 69 92 81 97 90 91 73 66 57 50 53 55 66 99 100 89 84 70 64 49 52 51 46 41 37 42 38 35
12 13 12 13 15 14 5 4 3 3 5 6 6 7 10 14 15 18 61 90 96 80 80 82 86 100 92 86 85 71 57 54 62 68 71 94 86 71 62 59 57 57 56 51 49 45 48 40 39
11 9 10 11 10 14 12 4 3 3 4 5 5 7 8 10 12 16 52 79 100 82 85 67 75 92 92 82 80 77 70 60 79 84 83 95 99 79 69 63 59 66 58 54 60 53 47 44 43
9 7 8 7 8 11 12 6 3 4 3 5 5 6 9 10 12 16 58 65 74 90 90 71 67 70 92 83 78 83 82 71 84 88 96 88 92 80 74 66 59 65 69 63 65 58 59 47 44
6 5 7 6 7 9 7 8 7 5 4 4 5 5 9 13 15 16 24 100 100 100 100 100 68 74 100 96 88 80 86 87 91 96 99 96 84 87 85 74 68 58 65 65 70 65 61 54 50
5 5 6 5 5 6 5 6 6 6 6 4 5 7 11 15 14 15 38 80 83 100 100 100 100 99 100 100 100 92 86 97 100 100 100 96 92 83 86 92 81 76 66 65 75 74 63 58 56
4 5 5 4 4 4 3 5 6 4 5 4 5 6 12 17 17 15 40 100 100 92 100 100 100 100 100 100 100 99 96 100 100 100 100 100 100 98 94 95 92 85 73 80 82 84 68 62 60
3 5 3 4 3 3 2 3 4 4 4 4 3 6 14 19 26 15 22 100 67 99 100 100 100 100 100 100 100 100 100 100 100 85 79 99 96 98 100 92 80 80 91 82 80 64 68 63 65
3 4 3 3 2 3 2 2 2 2 3 2 3 5 15 21 47 52 21 100 90 77 100 100 100 100 100 96 100 100 100 99 76 74 80 94 90 100 98 98 100 100 95 91 90 86 87 78 79
3 3 2 2 2 2 2 2 2 2 2 2 3 4 15 98 99 75 38 74 34 100 100 100 100 95 100 100 100 97 95 86 69 68 94 98 100 100 100 100 100 100 100 100 99 93 90 83 80
2 2 2 2 2 2 2 2 1 2 2 3 3 5 14 85 100 91 95 44 51 100 100 100 100 100 100 100 100 100 100 100 100 100 98 100 94 83 74 77 91 79 67 88 100 100 88 78 92
2 1 1 1 1 1 1 1 1 2 2 3 3 6 13 76 100 100 100 81 68 100 100 100 100 100 100 100 100 94 100 100 96 94 100 100 86 63 54 68 59 72 84 84 91 100 100 96 99
1 1 1 1 1 1 1 1 2 3 3 3 4 8 16 60 100 100 100 99 75 75 100 100 100 100 100 79 100 100 100 99 100 95 100 100 100 81 74 58 57 77 92 89 99 100 86 99 99
1 1 1 1 1 1 2 2 3 3 4 4 4 14 19 91 100 100 100 100 97 78 100 100 100 77 77 98 100 100 100 100 100 92 100 100 99 80 66 64 83 86 100 100 100 98 98 91 100
1 1 1 1 2 2 2 2 4 4 4 4 7 21 33 100 100 100 100 100 100 100 98 100 100 100 100 98 100 100 100 100 100 99 100 100 83 62 52 66 94 100 100 100 96 91 100 100 100
1 1 2 2 2 3 3 4 4 6 6 8 14 29 78 95 100 100 100 100 100 100 100 100 100 100 100 100 100 100 100 100 100 72 99 100 100 100 83 66 64 97 91 85 74 83 100 87 92
1 1 2 2 2 2 4 5 7 9 7 13 26 49 100 93 100 100 100 100 100 100 100 100 100 100 100 100 100 100 90 100 100 100 99 100 100 93 99 90 93 85 75 68 64 58 81 100 89
1 2 2 3 3 4 5 6 7 6 9 18 24 45 100 100 100 100 100 100 100 100 100 100 100 100 100 100 100 100 100 100 94 100 100 100 99 100 100 100 95 95 86 80 59 47 60 65 81
2 3 3 3 3 4 6 7 7 7 6 12 23 50 100 100 100 100 100 100 100 100 100 100 100 100 100 100 100 100 100 100 100 100 100 95 81 95 100 100 100 100 100 99 78 67 65 52 47
3 4 3 4 4 6 8 8 9 8 8 13 21 62 100 84 100 100 100 100 91 100 100 100 100 100 100 100 100 100 100 100 100 100 100 100 100 100 90 98 89 64 74 82 76 52 51 78 74
4 4 4 4 6 7 9 10 13 12 10 15 24 54 100 93 100 100 100 100 100 100 100 100 100 100 100 100 100 100 100 100 100 100 100 100 100 100 100 100 95 63 60 60 65 72 83 96 84
6 6 6 6 7 9 8 9 11 9 12 18 32 94 100 100 100 100 100 100 100 100 100 100 97 100 100 100 100 100 100 100 100 100 100 100 100 100 100 99 92 100 100 100 97 98 100 100 88
7 7 8 7 8 7 7 8 7 11 16 20 29 100 100 100 100 100 100 100 100 100 99 85 100 100 100 100 100 100 100 100 100 100 100 100 100 100 100 96 100 100 100 100 100 100 100 100 100
7 8 9 9 8 8 8 9 11 15 15 25 32 62 100 100 100 100 100 100 100 98 100 100 88 94 100 100 100 100 100 100 100 100 100 100 100 100 100 89 100 100 100 98 96 87 100 100 100
9 8 9 9 8 8 9 11 15 23 18 27 39 50 99 100 100 100 100 100 100 100 100 100 89 86 100 100 100 100 100 100 100 100 100 100 100 100 100 100 100 100 100 100 100 100 100 100 96
13 13 13 14 14 14 11 11 15 17 29 28 35 51 82 100 100 100 100 100 100 100 100 100 100 99 69 67 85 98 91 89 100 99 100 100 100 94 100 100 100 100 100 100 100 100 100 99 78
18 18 21 20 19 22 24 22 18 16 22 24 27 38 48 99 100 100 100 100 100 100 100 100 97 100 100 100 100 100 91 100 100 100 100 100 100 100 100 100 100 100 100 100 100 100 100 74 71

GFSSGP_250_rhum_087.txt.gz
RH
26 28 36 36 32 36 38 37 17 15 10 7 8 10 12 16 25 28 50 57 65 61 59 67 100 100 90 80 80 79 79 63 40 41 45 42 44 39 38 36 36 43 58 54 44 46 48 42 39
27 25 24 26 31 32 31 31 27 21 12 6 6 8 10 10 11 21 39 51 55 60 60 64 83 100 100 97 88 90 83 87 74 41 43 44 45 49 45 41 45 48 55 54 44 47 50 48 43
32 22 22 22 23 28 32 29 32 31 19 10 6 5 7 9 10 11 26 40 49 57 52 56 70 97 100 100 98 94 94 94 93 80 46 45 42 50 55 50 55 63 63 54 49 49 48 49 52
38 32 19 20 22 24 27 25 28 25 21 10 6 5 6 7 10 10 20 35 39 46 46 52 60 63 92 100 100 98 99 92 93 87 73 55 49 46 52 73 100 99 73 59 54 52 47 52 53
34 32 29 21 20 20 22 23 24 24 22 12 8 5 5 6 9 11 10 22 35 43 46 47 54 57 71 98 100 100 99 97 92 98 87 74 60 51 50 58 74 91 78 72 63 59 56 55 59
39 24 26 25 20 17 22 24 23 21 18 14 8 4 4 5 7 11 11 10 16 32 52 50 56 60 62 78 87 75 82 93 97 95 90 82 76 66 54 55 62 97 90 81 75 63 61 62 61
30 32 23 19 22 18 18 18 24 16 17 17 11 6 3 4 7 8 12 12 10 24 57 68 69 70 74 71 95 89 76 76 91 92 86 79 95 83 77 61 65 85 100 99 87 67 66 68 67
20 21 19 20 19 14 16 16 19 20 17 13 10 6 4 3 5 7 16 13 11 11 40 55 69 74 70 68 69 100 89 75 71 79 82 78 84 74 81 82 72 80 79 79 72 63 65 72 70
19 16 21 22 14 16 13 15 20 22 20 13 9 7 6 2 6 7 7 10 12 15 11 57 90 90 85 72 70 73 98 99 78 76 78 75 84 80 83 93 93 80 89 82 67 71 74 70 63
15 15 14 14 12 12 14 14 15 18 19 14 9 8 7 3 5 6 8 10 12 15 13 14 60 98 97 90 94 91 96 92 90 85 88 80 75 85 86 84 74 82 77 92 90 100 100 74 65
12 14 11 12 9 9 12 13 12 16 19 17 9 8 6 3 5 5 8 9 11 15 18 27 59 58 98 100 100 100 94 100 99 100 100 98 92 87 88 87 77 95 100 90 100 100 91 74 63
9 8 8 8 7 8 10 12 10 13 17 13 6 9 6 4 4 5 9 10 11 16 19 22 60 83 100 99 98 100 100 100 100 100 100 100 99 98 100 94 99 100 99 95 73 73 64 59 70
6 6 6 5 6 7 10 11 9 11 12 8 6 10 8 8 5 5 10 9 11 18 14 18 81 95 100 99 90 100 100 100 100 100 100 100 100 100 100 100 100 100 100 91 88 76 66 63 69
4 4 5 5 6 5 9 10 7 11 8 7 6 10 8 9 5 4 8 9 11 18 18 75 100 100 100 100 93 100 100 100 100 100 100 100 100 100 100 100 97 100 100 98 95 65 62 86 98
3 4 4 6 6 5 6 7 7 8 4 6 6 8 7 8 6 5 8 8 9 17 22 100 100 100 100 98 92 84 100 100 100 100 100 100 100 96 99 100 100 100 100 97 75 65 72 90 86
3 4 4 4 4 4 4 5 6 6 4 5 8 8 7 8 7 8 10 7 11 14 26 100 100 100 100 77 76 100 100 100 100 100 100 98 97 100 98 98 100 100 100 100 89 60 68 68 54
3 3 4 4 3 3 3 4 6 5 4 5 6 7 8 8 8 11 11 8 8 19 31 45 100 93 100 98 100 100 100 100 100 100 100 98 85 96 99 100 100 100 100 100 76 39 47 56 62
3 3 3 3 2 2 3 3 5 4 3 4 5 5 6 6 8 9 10 8 9 12 24 34 28 86 100 100 100 100 100 100 100 100 100 90 77 98 100 100 100 100 100 100 85 46 43 81 90
3 2 2 2 2 2 2 2 2 2 2 2 3 4 4 5 6 8 8 8 7 13 23 26 59 100 100 100 100 100 100 100 100 100 100 100 100 100 100 100 100 100 100 100 99 72 52 63 100
2 2 2 1 2 2 1 2 1 1 1 1 2 2 3 4 5 6 7 8 11 16 18 35 100 100 100 100 100 100 100 100 100 100 100 100 100 100 100 100 100 100 99 96 82 75 89 100 100
2 1 1 1 1 1 1 1 1 2 2 2 2 2 2 4 4 6 7 8 18 24 24 34 100 100 100 100 100 100 100 100 100 100 100 73 93 100 100 100 100 100 100 100 100 100 100 100 98
1 1 1 1 1 1 1 1 1 1 2 2 2 2 3 4 4 6 7 13 40 45 42 75 100 100 100 100 100 100 100 100 100 100 100 100 100 100 100 100 95 100 100 100 100 100 100 100 100
1 1 1 1 1 1 1 1 1 2 2 2 3 3 4 5 5 8 13 97 95 100 100 100 100 100 100 100 100 100 100 100 100 100 100 100 100 100 100 100 100 100 100 100 100 100 100 100 100
2 2 2 2 2 2 2 2 2 2 2 3 4 4 4 7 11 18 40 100 100 100 100 100 88 100 100 100 100 100 100 100 100 100 100 100 96 100 100 100 100 100 100 100 100 100 100 100 100
3 3 3 3 3 3 4 4 4 4 4 4 5 6 10 12 18 100 100 100 100 100 100 100 100 100 100 100 100 100 100 100 100 100 100 100 100 92 84 98 100 98 100 100 100 100 100 100 100
4 4 4 4 4 4 5 5 5 5 5 7 8 11 15 18 86 100 100 100 100 100 100 100 100 100 100 100 100 100 100 100 100 100 100 100 100 100 91 73 80 86 100 100 100 100 100 100 100
5 5 6 6 7 7 7 6 7 8 10 12 14 42 56 62 100 100 100 100 100 100 100 100 100 100 100 100 100 100 99 100 100 100 97 100 100 100 98 94 100 100 77 83 94 100 94 100 100
6 7 8 10 10 10 11 11 10 10 13 15 60 69 96 100 100 100 100 100 100 100 100 100 100 100 100 100 100 100 100 100 95 100 100 100 100 100 100 99 81 91 84 98 100 100 100 93 96
6 8 10 13 13 14 16 19 23 16 21 26 60 64 92 99 100 100 100 100 100 100 100 100 100 100 100 100 100 97 100 100 87 100 100 100 100 100 100 100 100 98 100 100 100 100 100 100 100
8 9 12 17 20 23 28 41 49 42 34 49 44 71 77 100 100 100 100 100 100 100 100 100 100 100 100 100 100 100 100 100 100 99 91 98 100 100 100 100 100 100 88 100 100 100 100 100 100

GFSSGP_250_rhum_090.txt.gz
RH
59 47 46 42 35 28 29 36 36 32 24 13 11 13 15 19 14 24 25 33 41 63 39 44 46 66 86 100 98 78 72 71 68 57 40 44 45 41 43 39 39 39 39 43 52 43 38 42 44
71 49 47 47 50 36 29 35 33 31 26 25 18 11 9 12 15 13 20 28 37 56 50 41 44 48 64 88 99 85 74 78 73 71 69 50 40 44 46 49 44 43 46 48 55 52 46 46 46
66 63 63 52 49 48 45 36 32 30 26 31 25 12 9 8 11 17 28 26 38 58 39 36 41 42 46 63 86 100 92 82 86 78 71 76 58 44 44 47 55 52 48 61 71 61 53 50 44
53 58 70 58 56 70 50 40 32 34 24 31 25 13 11 7 6 11 18 17 13 21 36 37 38 42 41 47 67 76 98 89 66 79 79 79 76 60 48 50 48 55 91 100 87 69 60 55 51
50 59 51 41 51 59 65 47 42 46 32 23 24 19 13 8 7 9 9 11 17 14 18 32 32 37 46 46 52 62 86 99 94 62 78 66 87 82 65 56 53 52 62 77 82 77 70 67 61
46 49 54 56 52 42 40 49 40 41 31 25 21 26 12 16 15 7 7 12 27 19 14 14 23 35 49 48 48 55 67 81 97 79 62 70 66 89 81 58 60 56 55 62 90 88 80 74 65
49 42 46 43 43 47 48 40 34 32 30 26 22 21 16 14 13 8 10 16 20 17 17 13 26 32 83 83 53 48 63 65 85 100 83 72 95 77 85 68 63 68 69 64 74 100 100 98 64
44 27 28 41 50 44 40 25 33 34 29 32 21 20 21 20 22 13 7 13 18 19 18 16 46 45 38 67 75 60 49 64 76 99 74 56 70 76 74 67 69 71 70 74 69 66 73 72 60
37 45 46 40 26 38 28 20 25 30 28 33 24 33 23 14 27 26 43 40 17 12 16 17 16 53 68 71 71 77 78 74 78 94 97 72 62 75 62 70 67 62 66 77 82 79 84 78 76
32 26 37 32 24 24 22 17 24 23 24 25 20 27 23 13 25 25 10 16 12 13 16 20 22 16 47 95 91 73 79 79 86 92 100 100 87 71 70 67 61 63 62 66 69 68 92 100 100
37 25 20 20 19 16 21 21 22 14 17 23 19 19 17 13 20 30 12 6 8 10 16 23 20 20 27 71 91 77 83 71 83 92 86 100 100 100 87 72 68 65 61 71 68 70 100 89 85
18 19 20 17 14 13 14 14 16 16 15 14 13 16 16 13 28 33 12 7 6 7 12 18 18 24 69 84 89 97 83 96 100 97 81 94 100 100 100 83 97 90 89 100 98 96 100 80 88
8 10 13 13 16 14 10 11 13 13 11 10 8 11 14 12 22 31 13 9 9 5 10 14 19 19 40 72 98 100 92 94 100 95 95 96 100 100 100 100 100 100 99 100 100 100 100 100 98
4 7 9 9 9 9 8 9 8 10 6 7 6 8 12 11 18 24 15 9 5 5 9 14 19 24 23 49 81 100 88 100 100 100 100 100 100 100 100 100 100 100 100 100 100 92 94 86 96
3 3 4 6 4 5 4 5 7 6 5 6 7 8 9 9 13 23 17 9 9 5 8 13 18 16 26 27 94 100 100 100 100 100 97 86 84 97 100 100 100 100 100 100 87 98 100 100 100
3 3 3 3 3 3 2 4 4 4 5 5 6 7 8 8 10 18 17 13 9 6 8 12 18 19 25 63 93 77 100 100 100 91 87 94 100 100 100 100 99 100 100 81 73 88 100 100 100
2 2 2 2 2 2 2 3 4 4 4 5 5 5 6 7 9 14 15 16 12 8 9 13 15 19 40 91 74 92 82 100 100 100 97 94 99 95 94 100 100 100 98 96 100 100 100 100 94
2 2 2 2 2 2 2 3 3 4 3 3 4 4 4 5 8 12 14 22 15 7 9 15 17 18 33 61 75 100 100 100 100 100 100 80 81 100 100 100 100 100 100 100 100 98 100 100 95
2 2 2 2 2 2 2 3 3 3 3 3 3 3 4 5 6 10 15 19 18 8 10 15 16 16 23 44 52 67 96 100 100 100 100 100 100 100 100 100 100 100 98 100 100 100 100 100 100
2 2 2 2 2 2 2 2 2 3 3 3 4 3 4 6 8 9 13 18 14 13 14 16 15 20 25 35 87 100 100 100 100 100 100 100 100 100 100 100 100 100 100 98 99 94 100 100 100
2 2 2 2 2 2 2 2 2 2 3 3 4 3 4 6 8 9 14 18 16 14 14 14 16 20 42 51 100 100 100 100 100 100 100 100 100 100 100 100 100 100 100 100 90 90 100 100 99
3 3 3 2 2 2 2 1 1 2 2 2 3 2 3 6 6 7 13 13 13 13 15 12 16 25 56 45 100 100 100 100 100 100 98 100 100 100 100 100 100 100 100 99 99 100 100 100 100
2 2 2 2 1 1 1 1 1 1 1 2 2 2 2 3 4 6 8 10 10 11 12 13 14 29 74 49 100 100 100 100 100 100 100 100 100 100 100 100 100 100 100 100 100 100 100 100 100
2 2 1 1 1 1 1 1 1 1 1 1 2 2 2 2 3 4 5 7 7 8 11 13 15 34 69 100 100 100 100 100 100 100 100 100 100 100 100 100 100 100 100 100 100 100 100 100 100
2 2 2 2 2 2 2 2 2 1 2 2 2 2 2 3 3 4 5 6 9 12 16 16 21 40 100 100 100 100 100 100 100 100 100 100 100 100 100 100 100 100 100 100 100 100 100 100 99
4 4 4 4 4 3 3 3 3 2 2 2 2 3 3 4 5 6 8 12 16 18 55 37 51 66 87 100 100 100 100 100 100 100 100 100 93 100 100 100 100 93 100 96 100 100 100 100 100
4 4 4 4 4 4 4 4 4 4 4 4 4 5 6 8 11 16 19 15 23 99 100 100 100 100 100 100 100 100 100 100 100 100 100 98 86 96 100 84 100 100 96 99 100 94 99 100 100
4 5 5 6 6 7 6 7 8 8 8 10 11 10 11 15 22 32 28 76 100 96 100 100 100 100 100 100 100 100 100 100 100 100 100 100 100 95 100 100 95 87 88 97 100 100 90 100 100
5 6 7 8 9 10 10 11 12 14 16 20 33 35 25 30 39 73 100 100 100 100 100 100 100 100 100 100 100 100 100 100 100 100 100 100 100 100 96 100 86 100 100 100 99 99 100 100 100
7 6 8 11 11 14 19 16 16 21 30 58 56 55 27 33 89 100 100 100 100 100 100 100 100 100 100 100 100 100 100 100 100 100 100 100 100 100 100 100 100 88 100 100 95 60 84 100 96

GFSSGP_250_rhum_093.txt.gz
RH
58 59 54 56 45 43 49 46 44 30 21 11 12 14 17 20 19 16 18 30 35 51 52 36 47 53 62 84 100 99 90 65 62 61 57 40 42 50 49 38 38 37 33 32 34 43 49 43 46
49 47 50 60 58 55 68 75 65 42 27 14 12 10 14 13 17 15 15 19 18 37 62 39 35 37 45 49 57 85 86 94 68 65 64 58 52 40 41 44 46 47 40 36 43 47 52 48 48
38 44 51 46 58 60 72 86 83 65 42 27 19 18 11 9 13 12 16 23 19 27 51 49 33 32 32 37 46 56 78 86 86 64 69 68 60 60 49 44 45 46 48 45 43 62 77 58 53
56 36 43 47 53 67 66 97 92 87 74 49 38 30 10 8 10 11 10 23 24 18 31 56 40 37 32 37 38 48 59 74 84 76 63 66 70 60 67 56 46 48 49 49 55 92 89 79 63
50 43 41 43 49 57 65 65 56 76 94 86 64 58 13 9 17 10 9 19 30 40 28 27 48 52 42 39 41 45 55 63 71 88 86 69 60 81 78 69 71 55 52 53 52 61 71 82 79
64 44 42 41 48 47 53 65 63 60 82 84 73 69 13 16 15 17 12 16 24 30 25 24 28 33 48 52 43 42 45 56 57 75 87 100 97 67 84 74 83 78 59 56 54 55 65 91 97
29 38 39 35 44 48 45 45 55 47 50 71 69 58 30 25 20 24 20 17 10 30 50 49 32 21 21 19 35 38 39 47 58 58 71 99 100 100 68 75 78 78 77 62 62 61 59 63 85
26 27 24 26 31 35 39 43 44 36 33 40 35 34 34 41 31 37 26 17 56 44 23 75 50 19 18 17 17 42 41 41 50 58 66 80 100 100 100 100 90 74 80 73 71 70 64 61 61
34 25 26 36 49 46 50 36 34 34 35 39 40 34 32 41 48 35 29 14 23 40 43 57 66 27 17 14 14 24 27 40 48 54 61 65 90 100 100 100 75 71 68 69 70 69 68 69 63
28 32 36 38 38 43 44 43 46 41 38 39 34 32 35 30 40 42 38 21 14 17 57 41 44 43 21 16 15 15 24 32 57 74 57 62 77 99 100 100 100 73 67 60 67 64 69 69 71
30 27 26 29 28 23 27 26 26 34 30 29 29 22 29 21 31 39 54 30 26 24 25 24 42 41 23 16 14 16 23 37 42 57 74 63 68 94 100 100 100 100 87 73 73 70 74 80 93
25 24 18 15 17 16 19 22 17 21 23 23 24 23 23 18 24 38 49 45 24 23 13 14 19 42 21 14 18 46 64 39 44 54 60 80 81 97 100 100 100 100 100 95 86 87 87 96 100
26 18 12 12 12 13 16 20 19 20 25 16 16 16 17 16 18 29 38 54 20 18 13 18 12 24 42 22 16 53 38 36 64 69 75 75 84 88 96 100 100 100 100 100 100 97 100 100 100
10 16 14 12 10 10 8 11 11 14 15 15 10 12 15 13 16 20 21 36 19 15 17 11 9 10 14 34 35 34 35 52 67 86 91 90 90 95 92 100 99 100 100 100 100 100 100 100 100
6 7 8 7 7 7 4 5 7 9 9 12 10 12 14 12 12 16 20 35 14 14 14 8 11 13 16 28 32 50 74 82 85 82 66 79 76 85 85 96 100 100 100 100 100 100 100 100 94
3 4 4 3 3 3 2 4 4 6 6 8 8 8 10 11 10 11 15 34 12 14 13 12 21 18 13 23 30 50 94 100 100 100 97 84 99 100 94 89 93 100 100 100 100 100 91 100 100
3 3 3 2 2 2 2 3 3 3 4 5 4 5 6 7 6 8 9 20 12 13 11 10 19 23 18 19 38 100 100 100 100 100 69 87 92 88 96 100 100 85 100 100 100 100 100 95 86
3 2 2 2 2 2 2 2 2 2 2 3 4 4 4 5 6 7 9 14 13 11 11 10 20 27 18 19 26 51 95 97 84 100 100 100 75 85 100 100 100 100 100 100 100 97 88 91 100
2 2 2 1 1 1 2 2 2 2 2 2 2 3 3 4 4 6 8 9 13 11 9 15 20 17 12 18 24 34 54 100 100 100 100 98 100 100 92 100 100 100 100 100 97 94 99 100 100
3 2 2 2 2 2 1 2 2 2 2 2 2 3 3 3 4 5 6 7 10 13 10 16 20 17 12 17 25 28 43 69 100 100 100 100 100 99 100 100 100 100 100 98 100 100 100 100 100
2 2 2 2 2 1 1 1 2 2 2 2 2 2 3 3 4 5 5 6 9 12 11 14 15 20 12 17 26 26 43 97 100 72 100 100 100 100 100 100 100 100 92 100 100 100 100 100 100
2 2 2 2 2 2 2 2 2 2 2 2 2 3 3 3 3 4 5 6 9 13 14 13 16 16 11 16 24 24 38 67 97 95 100 100 100 100 100 100 100 100 100 99 100 100 99 100 100
4 4 4 3 2 2 2 2 2 2 2 3 3 3 3 3 3 4 6 8 12 13 14 15 15 16 16 19 22 26 30 49 100 100 100 100 100 100 100 100 99 100 100 100 100 100 88 100 100
3 2 2 2 2 1 1 1 1 1 1 1 2 3 3 3 4 6 7 9 10 13 14 17 17 17 19 21 21 26 32 72 100 100 100 100 99 100 100 100 100 100 96 97 100 100 100 100 100
2 2 2 2 2 2 2 1 1 1 1 1 1 2 2 4 5 6 8 10 10 13 15 22 28 22 21 22 21 23 34 67 90 100 100 100 100 100 100 100 100 100 100 100 100 100 100 100 100
3 4 3 3 3 3 3 3 2 2 2 1 1 2 2 2 4 5 7 10 12 15 20 29 30 27 23 20 19 27 27 47 61 100 100 100 100 100 96 100 100 100 100 100 100 100 100 100 100
4 5 4 4 5 4 4 3 3 3 2 2 2 2 2 2 3 3 4 5 7 11 16 20 20 19 18 18 26 81 56 96 100 100 100 100 100 100 100 100 85 98 100 100 100 100 100 100 100
5 4 4 4 5 4 4 4 4 4 3 4 3 4 4 4 4 5 6 7 8 8 12 16 22 25 19 30 61 100 100 100 100 100 100 100 100 100 100 100 100 100 100 84 100 99 100 100 100
5 5 5 6 5 4 5 6 6 4 5 6 6 6 7 7 9 11 15 22 24 16 28 38 38 75 71 87 100 100 100 100 100 100 100 100 100 100 100 100 100 100 100 100 100 100 100 100 100
8 8 8 7 6 8 7 8 12 7 8 11 10 12 12 18 22 36 71 100 53 71 73 100 99 99 100 100 100 100 100 100 100 100 100 100 100 100 100 100 100 100 100 100 98 96 99 100 100

GFSSGP_250_rhum_096.txt.gz
RH
51 46 57 54 37 27 40 58 68 27 20 17 16 17 20 21 21 24 32 38 42 41 45 38 32 40 47 62 82 83 100 76 50 49 48 50 46 36 41 48 52 43 35 37 33 31 34 44 46
55 52 44 56 62 48 50 76 95 51 26 20 15 18 20 14 18 20 20 22 20 21 40 50 39 38 42 48 58 78 88 92 67 58 52 55 60 52 43 44 46 44 46 45 43 37 42 44 55
56 57 50 39 43 63 77 68 87 75 56 46 27 22 16 16 19 17 17 18 19 21 32 38 41 36 36 45 50 58 74 92 94 78 71 58 61 66 58 52 42 46 45 46 50 49 51 85 84
60 44 47 56 44 55 60 85 80 75 82 66 52 40 16 18 16 16 16 17 18 21 18 21 25 25 25 36 48 52 59 56 61 84 80 74 67 72 74 69 65 58 45 47 50 51 52 65 79
92 77 36 52 64 66 52 51 51 66 67 76 60 50 17 17 21 16 15 16 16 17 21 24 24 19 20 33 40 47 49 47 49 47 64 72 72 68 73 79 69 73 70 50 54 56 57 56 58
100 100 70 37 66 58 60 44 48 50 56 53 60 74 35 34 29 26 18 20 39 21 17 25 23 17 16 23 33 45 44 46 49 50 50 62 72 76 89 75 79 88 84 82 64 66 65 58 58
91 97 100 83 40 44 51 38 56 47 51 53 41 48 31 36 36 44 34 59 37 63 61 24 28 31 21 22 33 38 43 41 44 47 54 52 60 74 100 96 87 78 86 88 78 77 67 64 67
60 70 84 55 36 46 50 44 35 42 47 48 49 40 38 33 43 37 41 34 58 76 77 74 60 47 37 40 22 22 26 36 48 48 53 55 54 64 98 95 99 98 83 80 91 76 79 76 76
49 48 58 42 33 33 28 31 32 36 40 45 40 41 45 48 49 50 64 40 24 32 30 81 99 99 51 43 51 35 21 25 37 48 57 57 57 57 71 83 94 100 100 100 100 81 74 70 81
28 30 37 30 31 25 30 22 27 28 31 34 35 34 41 40 46 42 65 50 40 27 18 31 76 66 54 53 51 31 18 17 22 29 33 55 59 61 63 68 86 97 100 100 100 88 73 72 74
26 24 23 28 21 21 26 23 22 23 25 29 27 30 40 39 41 45 61 56 62 50 24 27 23 63 68 64 46 34 27 12 12 11 15 32 63 70 66 68 80 86 84 99 100 100 88 73 70
31 25 18 18 17 17 19 23 22 23 23 26 27 31 39 37 41 43 45 62 66 54 35 37 19 17 30 40 53 71 45 19 14 12 10 14 36 62 69 72 86 86 87 85 96 96 100 96 85
32 30 24 18 18 16 16 18 19 25 23 30 37 29 19 29 29 32 36 38 68 46 33 27 28 20 13 15 32 90 68 29 16 11 11 14 25 39 68 76 84 89 88 84 94 98 93 97 96
12 14 14 12 10 11 12 15 14 24 25 28 22 24 15 17 16 18 29 35 47 56 44 35 33 22 13 14 15 23 44 52 22 15 11 13 15 33 51 99 100 88 95 90 93 100 99 92 100
7 6 5 5 6 8 8 13 14 17 16 15 14 14 12 10 14 21 17 24 33 45 40 41 25 22 23 17 15 30 31 33 22 20 14 11 24 36 55 87 98 96 98 95 100 100 100 100 100
7 6 5 4 3 3 3 5 6 10 9 11 10 11 12 12 13 18 20 16 31 45 39 33 24 18 16 17 22 20 26 25 24 27 20 22 58 66 70 87 98 100 100 100 100 100 100 100 100
8 6 5 5 3 2 2 2 3 4 5 7 7 8 8 12 14 13 13 14 18 28 27 19 24 19 15 16 18 19 21 30 24 26 45 37 55 70 56 65 94 100 100 100 100 100 100 100 100
5 5 5 4 2 1 1 2 2 2 2 3 4 4 5 6 8 8 7 9 15 25 21 16 14 17 16 17 19 18 18 29 36 51 86 73 58 47 60 75 81 92 100 100 100 100 100 100 100
5 4 3 2 2 1 1 1 1 1 2 2 2 2 2 2 3 4 5 7 9 14 19 16 15 16 19 16 24 15 14 22 28 33 84 100 95 86 83 93 95 68 89 100 100 100 100 100 100
4 3 2 2 2 2 2 2 1 1 2 2 2 2 2 3 3 3 4 6 8 10 15 15 14 12 17 20 19 14 16 18 24 30 57 100 100 100 100 100 100 100 100 87 96 100 100 100 100
3 3 2 2 2 2 2 1 1 1 1 2 1 2 2 2 2 3 4 6 7 9 13 12 13 13 17 17 17 12 18 19 27 40 100 100 100 100 100 100 100 100 100 100 100 100 100 100 100
4 4 3 3 2 2 1 1 1 1 1 1 2 2 2 2 2 3 3 4 6 8 9 11 10 12 12 11 12 13 16 19 23 44 100 100 100 100 85 100 100 100 100 100 100 100 100 100 100
6 7 6 4 3 3 2 2 2 2 2 2 2 2 2 2 2 2 3 3 4 5 7 9 8 10 9 10 12 16 19 20 22 28 68 100 100 100 100 100 100 100 100 100 100 100 100 92 93
6 4 4 3 2 2 2 1 1 2 2 2 2 2 2 2 2 2 3 3 4 4 5 6 7 7 8 10 15 19 21 22 20 25 34 47 92 100 100 100 100 100 100 100 100 100 100 100 100
3 3 2 2 2 2 2 1 1 1 1 1 1 2 3 4 3 3 3 4 4 5 5 6 7 8 10 12 16 21 26 26 24 22 33 48 68 64 82 100 100 100 100 100 100 99 100 100 100
3 4 4 4 3 3 2 2 2 2 1 1 1 1 2 3 4 6 6 6 6 6 6 7 8 10 14 15 18 25 36 32 21 24 32 40 80 98 100 100 100 100 100 100 100 100 100 93 97
5 5 4 4 4 4 3 3 3 2 2 2 2 2 2 2 3 5 7 10 11 10 11 10 11 12 15 20 30 40 52 45 36 36 31 45 98 100 100 100 100 100 100 100 100 100 100 100 100
6 5 6 5 5 5 5 4 4 3 3 2 2 2 2 2 2 3 5 8 13 17 15 17 21 28 40 52 51 45 46 57 46 36 33 69 100 100 100 100 100 100 100 100 100 100 100 100 100
8 7 7 8 7 7 6 6 6 5 4 4 3 3 3 3 3 4 4 5 7 11 16 25 39 47 56 68 70 67 63 58 39 30 46 91 100 100 100 100 100 100 100 100 97 100 100 100 99
8 7 8 8 8 8 8 8 11 9 6 6 5 5 5 6 5 6 6 5 6 7 9 16 24 37 53 68 63 61 99 75 59 69 55 60 100 100 100 100 100 100 100 100 100 100 100 100 100

GFSSGP_250_rhum_102.txt.gz
RH
73 73 66 63 54 28 39 42 34 28 25 23 20 22 24 31 42 40 34 51 63 64 62 56 51 49 57 73 70 64 57 58 45 46 47 40 36 38 38 40 42 42 39 31 42 47 37 36 36
57 76 74 74 73 52 30 42 46 40 30 25 22 25 22 24 21 22 27 30 44 52 57 55 50 43 42 48 60 70 67 62 65 49 47 49 47 42 39 37 39 47 44 44 49 50 40 42 41
78 73 84 75 79 72 56 32 32 34 37 30 25 24 24 26 24 24 26 28 27 34 39 39 37 38 37 36 45 56 64 66 59 68 59 53 54 51 49 42 42 50 57 53 51 48 46 46 45
98 96 80 93 83 83 82 64 54 30 29 33 31 24 27 30 24 28 29 26 31 27 24 26 27 27 33 34 38 39 44 49 58 58 56 65 85 67 66 57 48 52 61 67 62 52 51 48 48
80 80 82 98 91 73 60 82 76 67 39 32 36 24 21 29 33 29 34 27 28 26 27 30 27 30 31 36 31 28 32 42 41 44 48 51 72 97 100 83 56 52 58 65 71 74 73 64 50
100 95 91 59 99 96 77 79 79 84 70 54 36 31 26 22 34 36 34 30 38 27 27 27 26 27 25 24 21 16 18 25 36 37 37 46 51 64 78 98 75 66 58 58 72 77 78 82 83
97 100 100 100 82 97 100 100 98 93 94 84 78 46 46 28 27 25 35 32 68 71 48 42 32 26 36 30 24 21 21 20 22 22 22 34 45 53 72 85 100 99 95 73 57 69 80 83 94
100 100 92 100 100 74 80 92 78 92 100 96 94 78 70 65 29 28 23 27 39 79 62 51 68 85 99 88 48 28 41 36 25 23 24 35 39 36 40 72 86 100 99 96 86 68 66 78 91
98 100 98 82 73 91 94 86 89 96 82 76 85 89 55 60 68 36 27 26 28 31 94 88 67 96 100 100 99 100 74 99 63 33 24 23 26 31 34 44 65 69 75 66 82 85 71 66 79
77 82 87 97 97 85 100 84 99 98 98 100 70 58 45 41 39 53 41 24 26 30 29 77 79 92 100 100 100 100 100 100 98 79 45 34 22 20 22 34 48 60 68 64 61 66 83 76 72
58 50 60 78 70 71 70 72 80 78 77 94 86 83 55 41 30 33 40 44 25 25 26 24 28 70 90 92 83 100 100 100 100 99 85 39 26 19 16 20 37 56 67 58 59 64 66 74 82
77 56 49 55 60 50 44 40 48 50 62 51 55 60 47 55 45 31 28 41 31 25 26 26 31 28 52 72 74 63 89 95 100 97 75 54 35 21 19 16 18 29 44 61 60 66 64 66 66
76 65 64 58 49 47 40 39 41 44 28 26 29 29 36 26 21 34 37 37 40 28 24 28 35 28 24 27 31 54 75 79 93 98 87 84 67 42 42 34 32 26 26 34 44 54 62 73 76
52 62 64 59 48 44 39 44 43 37 23 21 23 24 22 21 18 18 33 44 32 33 22 25 29 31 27 30 30 24 47 30 47 91 100 100 98 88 70 55 49 39 33 36 32 36 50 69 84
13 20 37 49 50 56 52 47 40 27 22 19 18 21 21 19 14 12 13 22 23 25 24 25 27 29 29 28 29 29 21 34 31 34 79 96 70 72 84 86 75 55 48 39 31 34 46 81 88
14 13 11 9 9 10 12 14 21 18 14 14 13 13 14 9 7 7 8 12 18 16 18 20 20 22 25 27 24 27 27 37 32 37 40 40 36 35 55 70 67 68 68 57 44 33 26 26 51
20 16 13 10 10 10 8 8 7 8 7 7 8 7 6 6 5 6 6 6 9 11 13 14 17 20 23 23 27 26 32 31 38 38 43 53 39 26 28 32 35 62 79 55 48 46 31 30 33
34 26 24 16 10 10 9 8 6 5 4 4 4 4 3 4 5 4 4 4 4 9 10 10 13 18 18 22 25 23 28 38 32 35 42 41 41 38 28 25 23 37 41 29 30 44 40 35 25
38 28 18 16 13 13 9 7 5 4 4 3 3 3 2 2 2 2 2 3 3 5 9 9 11 13 18 18 18 22 26 38 36 35 30 36 41 33 28 33 32 34 34 30 32 43 47 30 30
32 23 18 19 13 8 6 6 4 4 4 3 3 2 2 1 2 2 1 2 2 3 6 9 11 12 12 16 17 22 25 30 37 39 36 38 50 51 29 24 32 33 34 36 31 29 28 26 29
27 26 21 13 9 8 6 5 4 3 3 2 2 2 2 1 1 1 1 1 2 2 3 5 10 12 14 14 18 23 19 25 33 32 30 39 49 52 46 28 34 43 31 38 24 23 27 26 45
36 24 13 9 8 6 4 3 3 2 2 2 2 2 1 1 1 1 1 1 1 2 2 4 4 8 14 14 18 19 20 25 36 36 39 42 56 55 66 63 44 44 56 44 40 39 31 41 63
10 8 10 7 5 5 5 5 4 3 2 2 2 2 1 1 1 1 1 1 1 1 2 3 4 4 6 11 13 17 26 31 36 42 47 48 50 51 55 48 49 53 56 63 47 36 40 49 67
10 12 10 8 10 6 4 3 3 2 2 2 2 2 1 1 1 1 1 1 1 1 2 2 3 3 3 5 10 16 28 32 36 38 44 53 47 32 32 36 35 65 53 64 77 32 25 42 44
14 19 10 6 6 5 5 4 3 2 2 2 1 2 2 2 1 1 2 2 2 2 2 2 4 4 4 5 8 16 23 27 35 38 43 47 25 26 22 13 30 74 55 62 86 45 35 32 45
8 8 10 7 8 7 6 4 4 3 2 2 2 1 1 2 2 2 2 2 2 2 2 3 4 4 6 7 10 15 22 26 29 24 18 13 13 10 10 31 60 58 59 76 63 53 48 66 97
9 8 10 11 10 9 7 5 4 3 3 2 2 2 2 2 2 3 3 2 2 3 3 3 4 5 6 6 7 7 8 8 8 9 9 10 13 32 44 49 43 46 44 46 43 90 100 100 92
8 13 14 14 14 14 11 7 6 4 3 3 3 2 2 2 2 2 4 4 4 4 4 4 5 5 6 6 7 7 8 8 8 11 18 27 38 37 36 34 37 33 26 24 78 100 99 100 100
17 12 13 18 16 15 18 13 8 10 10 6 4 3 3 2 2 2 3 7 10 9 8 7 6 6 6 7 7 8 9 10 12 16 19 20 22 23 23 23 20 18 20 39 90 100 100 100 100
13 14 19 21 16 20 33 30 13 18 23 22 11 5 3 3 3 3 3 4 8 12 14 14 10 8 7 8 8 10 10 10 11 11 11 12 13 14 14 15 20 26 66 92 100 100 100 100 100

GFSSGP_250_rhum_105.txt.gz
RH
75 75 71 71 66 63 48 33 24 23 22 20 22 24 26 28 30 33 42 50 62 61 64 70 66 61 77 78 81 96 93 78 69 64 49 41 43 38 63 79 97 91 64 49 47 39 40 47 41
75 78 72 74 81 75 70 60 40 29 27 22 28 28 25 25 28 25 30 33 40 40 38 42 56 56 56 56 60 64 75 81 69 60 60 54 45 47 43 40 43 50 48 47 48 43 51 58 45
78 68 76 68 65 70 80 72 71 43 39 36 32 29 30 28 28 29 29 30 33 38 40 38 41 51 56 58 56 56 54 54 56 51 53 60 60 49 51 49 46 44 47 45 50 52 50 55 49
100 83 80 78 68 75 75 83 68 74 59 39 38 39 38 33 32 30 30 30 26 26 26 28 29 31 38 48 48 52 49 46 45 47 51 57 56 66 57 52 55 53 52 47 50 57 59 58 52
95 96 84 85 85 80 85 81 82 78 79 70 63 50 34 32 33 37 42 33 27 26 22 23 23 24 28 27 36 41 42 46 49 52 53 62 59 58 68 66 69 91 60 61 55 58 59 61 67
92 99 88 84 91 90 77 72 71 76 81 82 70 72 72 45 31 34 46 44 28 34 68 39 26 26 28 24 25 22 24 45 64 52 51 51 55 58 53 58 60 85 100 95 71 60 62 60 62
99 100 100 100 81 70 96 96 93 79 73 79 90 86 82 77 61 41 28 37 33 31 69 76 80 36 33 30 25 26 30 30 34 38 40 32 37 50 50 53 52 62 81 95 96 73 68 66 65
57 62 81 99 100 98 84 82 75 66 65 88 100 91 84 82 82 71 66 29 37 36 35 68 86 81 63 41 33 31 28 38 32 24 24 24 24 33 47 47 45 53 68 71 78 100 87 86 76
94 86 77 60 55 75 94 100 100 100 94 66 56 94 100 82 64 88 82 57 41 38 33 41 74 96 90 90 67 64 81 61 63 45 29 26 27 23 25 33 41 41 47 63 65 77 99 99 96
100 94 68 75 88 70 74 72 88 98 73 71 89 88 65 84 83 60 74 85 60 52 46 33 38 89 92 80 98 98 78 95 95 73 71 74 72 49 22 22 25 36 46 51 50 57 72 80 86
84 76 63 47 54 70 84 97 93 85 80 60 50 47 67 66 70 76 79 76 50 50 42 47 29 51 83 100 90 98 100 100 100 100 100 99 97 90 62 34 21 26 31 37 41 48 55 70 70
85 79 76 56 53 52 50 71 72 85 94 56 42 41 44 58 58 60 74 98 88 66 41 37 45 33 32 98 83 71 82 100 100 100 100 100 90 81 68 60 43 29 28 25 26 32 54 69 75
97 88 74 84 56 71 61 54 50 56 39 38 39 42 51 42 41 43 44 47 65 54 40 31 33 37 31 28 56 68 78 92 99 96 99 100 100 100 84 79 72 58 47 34 26 24 28 54 75
33 41 66 79 82 82 84 75 56 67 41 32 31 37 38 37 28 26 27 35 38 50 45 34 25 31 34 35 37 27 25 44 74 84 88 100 100 96 97 88 85 90 80 56 63 54 48 40 33
18 20 26 46 59 59 62 71 64 52 42 42 41 36 34 30 26 25 20 16 23 23 25 29 32 20 23 30 36 41 24 26 41 64 62 76 100 86 100 98 100 94 95 78 94 88 89 60 59
18 16 14 13 13 14 17 28 36 34 32 36 29 26 28 29 21 18 16 12 10 14 14 17 16 19 19 25 28 34 41 24 26 35 35 30 57 60 65 99 97 99 90 72 74 89 78 65 65
29 26 22 16 13 12 11 11 10 9 8 8 10 12 14 14 12 9 7 8 7 5 10 10 14 19 19 18 24 40 30 26 27 29 19 24 33 36 34 62 60 84 83 61 50 68 74 52 41
52 50 38 27 24 17 12 12 12 9 8 7 6 6 6 5 4 3 3 4 4 4 4 6 9 14 19 19 20 25 28 26 20 23 23 19 25 33 36 48 46 49 43 38 37 45 47 40 36
84 72 53 44 34 31 20 16 12 9 8 6 5 4 4 3 2 2 2 2 3 3 3 3 6 8 10 14 20 15 20 20 22 19 21 22 29 31 39 43 46 41 36 36 40 45 48 35 38
71 68 55 45 35 28 23 20 14 11 6 5 4 4 3 3 2 2 2 2 2 2 2 2 3 4 6 11 13 16 15 14 20 22 20 23 31 30 33 51 52 32 31 36 41 48 53 42 45
62 56 51 52 40 26 22 24 15 7 5 4 3 3 2 2 2 2 2 2 2 2 2 2 2 3 4 7 10 12 14 15 14 16 18 22 26 34 32 45 48 42 42 51 51 52 65 75 53
49 54 51 33 26 20 11 9 6 5 4 3 3 2 2 2 2 2 2 2 2 2 2 2 2 3 3 4 5 9 10 12 13 15 17 20 23 28 31 33 40 49 50 51 50 56 65 72 82
49 29 27 21 15 9 9 8 10 7 5 3 3 2 2 2 2 1 2 1 1 1 1 2 2 3 3 3 3 4 6 12 13 16 19 18 18 27 31 34 40 44 53 50 52 55 59 69 78
35 24 13 12 11 13 14 9 7 6 4 3 2 2 2 2 2 2 2 1 1 2 2 2 2 2 2 3 3 3 4 6 11 15 22 19 18 22 30 33 34 39 46 48 48 55 67 65 54
13 12 13 15 16 10 9 7 6 5 4 3 2 2 2 2 2 2 2 2 2 2 2 2 2 2 2 2 3 3 3 4 6 10 18 25 22 22 28 33 34 36 40 54 54 61 67 70 42
17 20 11 9 11 10 10 8 7 6 4 3 2 2 2 2 2 2 2 2 2 2 2 2 2 2 2 3 4 4 4 5 6 6 12 23 26 26 28 33 33 32 48 64 57 60 66 52 38
8 12 12 12 10 12 10 11 13 8 5 4 3 2 2 2 2 2 3 3 3 3 3 3 3 3 3 3 4 5 6 6 7 8 8 12 22 26 26 30 35 38 48 55 49 54 46 24 19
12 11 11 11 12 14 18 15 20 10 6 6 3 3 2 2 2 2 3 6 4 4 4 4 4 4 4 4 5 6 6 8 9 10 10 10 11 13 18 25 32 34 36 39 37 19 14 24 77
13 16 14 14 17 20 16 19 25 27 16 13 9 6 3 2 2 2 3 5 8 7 5 5 5 5 5 5 5 5 6 7 8 9 10 13 17 21 22 22 25 25 19 13 15 28 60 92 95
24 23 19 19 20 28 25 29 46 45 34 26 18 14 9 4 3 3 3 4 5 10 11 8 6 6 6 6 7 7 7 7 8 9 9 10 10 10 11 12 12 13 18 36 50 64 62 61 55

GFSSGP_250_rhum_108.txt.gz
RH
65 73 68 71 67 64 53 56 52 24 22 21 20 21 21 22 25 30 35 44 46 51 56 60 76 85 76 71 71 74 83 84 74 70 66 62 58 57 49 41 79 71 72 84 98 78 51 45 40
59 62 75 77 73 74 64 65 63 58 54 38 24 22 22 29 30 27 28 34 39 43 50 59 63 74 84 80 77 78 66 70 69 69 72 71 60 60 55 47 49 50 79 88 81 58 47 44 40
68 64 64 82 84 78 73 64 70 72 74 61 52 30 26 31 36 33 29 27 28 29 31 38 47 61 60 60 64 69 67 59 56 56 56 60 56 51 52 55 52 53 49 47 46 49 49 48 42
70 79 85 86 87 89 80 74 69 59 73 67 64 56 33 30 32 33 32 30 29 26 24 25 31 36 49 60 52 60 65 67 61 57 57 60 57 53 51 55 64 66 58 52 54 52 52 49 52
93 82 83 100 99 96 90 82 78 73 56 70 78 65 57 50 38 38 37 32 30 28 26 29 29 34 37 44 65 66 63 62 68 66 67 73 61 52 49 57 57 70 71 64 58 63 60 59 55
78 78 84 65 91 100 99 90 73 66 75 78 82 69 79 62 54 48 42 39 39 36 31 29 35 27 32 32 30 41 52 65 64 61 61 64 78 67 52 56 80 72 78 74 66 70 93 72 70
75 74 83 68 49 64 85 99 91 83 89 88 77 83 84 86 79 70 63 48 40 40 38 39 29 73 94 66 41 30 24 40 46 48 50 47 63 83 79 69 65 70 64 72 78 71 74 100 100
99 99 75 70 53 58 76 78 89 98 85 95 98 81 75 79 81 84 76 72 67 39 36 39 36 33 100 100 87 69 37 30 27 26 31 42 35 57 67 66 59 55 62 68 73 78 74 68 89
100 99 91 90 78 67 60 62 78 72 92 90 71 80 95 83 85 84 97 82 83 68 75 71 53 33 49 100 100 100 80 52 41 33 26 27 32 29 26 25 30 27 36 53 62 64 68 70 70
83 69 74 90 80 62 52 53 56 54 51 58 80 88 86 86 81 76 82 95 97 77 62 77 84 61 35 70 100 100 100 97 69 73 74 81 98 81 36 27 26 26 23 23 36 47 54 57 73
88 71 60 54 56 67 62 53 65 71 52 50 48 55 63 81 82 63 46 57 87 98 78 59 63 82 56 42 65 84 99 100 99 82 94 100 100 100 100 84 87 48 50 47 25 22 30 38 50
75 74 58 46 55 69 75 72 74 89 77 66 40 51 51 52 62 62 68 57 58 55 70 52 45 63 83 46 39 47 71 100 100 100 99 100 100 100 100 100 100 90 67 70 58 33 23 26 33
100 97 85 96 89 81 93 88 74 74 89 68 59 37 41 51 48 49 42 43 49 62 49 53 49 43 52 74 42 40 45 77 86 93 99 100 100 98 96 100 90 89 86 96 83 62 56 59 41
100 100 100 100 99 99 100 100 96 87 79 73 60 58 42 39 37 44 39 50 39 32 39 35 36 37 37 54 65 50 34 42 54 73 95 100 100 100 95 96 97 93 82 91 88 87 78 68 76
45 79 84 86 96 100 100 100 98 96 91 82 66 46 51 41 38 31 25 18 19 24 28 29 32 30 32 36 42 40 46 40 39 47 73 87 90 100 100 99 97 100 96 96 100 97 97 88 90
22 19 17 17 26 32 29 28 38 42 37 34 35 32 35 39 26 23 20 18 15 11 12 20 19 24 26 26 26 28 29 32 33 40 43 52 50 52 47 99 100 97 100 98 100 100 99 95 86
43 34 22 17 14 16 16 19 16 14 12 14 14 16 18 18 14 12 12 12 12 10 9 8 12 15 15 18 20 21 23 24 28 35 36 48 36 32 28 45 78 79 97 97 96 87 96 100 96
68 54 44 33 27 20 15 17 16 12 10 10 9 8 8 8 7 6 5 5 4 4 5 4 5 9 11 9 13 14 22 20 20 22 30 29 37 39 18 31 46 53 46 64 68 76 83 72 75
76 61 45 40 47 33 24 23 17 13 11 10 10 10 10 7 4 3 3 3 2 2 2 3 2 2 5 8 8 10 11 14 15 15 19 22 27 36 32 23 43 39 38 43 49 51 53 43 54
69 64 68 59 49 44 37 24 23 17 15 18 15 10 6 4 3 4 4 3 3 3 2 2 2 2 2 4 6 6 9 9 10 15 12 16 22 28 21 24 23 24 27 40 45 46 49 52 53
52 52 51 53 53 47 49 40 37 31 30 25 10 6 5 4 3 3 3 3 2 2 2 2 2 2 2 2 3 4 6 7 8 9 11 12 14 22 15 30 23 24 25 30 40 42 52 49 43
52 52 52 56 48 43 34 37 46 46 20 13 10 5 4 3 3 3 2 2 2 2 2 2 2 2 2 3 3 4 4 6 8 8 8 10 12 14 15 21 27 24 34 32 30 36 46 43 53
44 41 33 28 33 40 44 47 40 23 14 8 6 6 4 3 3 2 2 2 1 1 2 2 2 2 2 3 3 3 4 4 5 9 9 7 12 14 16 17 25 27 32 32 33 30 38 43 40
36 33 33 35 41 39 35 28 16 13 14 11 7 5 3 2 2 2 2 2 2 2 2 1 2 2 2 2 3 4 3 3 4 4 4 6 10 17 18 21 21 29 26 26 33 38 36 40 40
21 18 20 21 19 16 14 16 18 14 12 9 6 4 3 3 2 2 2 2 2 2 2 2 2 2 2 2 3 2 2 3 4 4 4 4 7 13 21 25 26 32 32 31 29 33 34 35 40
14 12 12 13 16 24 19 16 18 14 10 8 7 5 3 3 2 2 2 2 2 2 2 2 2 2 2 2 3 3 3 3 4 4 4 4 5 7 10 17 23 32 43 43 38 38 42 36 42
18 20 19 14 13 19 19 17 17 18 17 16 9 6 4 3 3 2 2 2 3 4 3 3 2 3 3 3 3 3 4 4 4 6 6 6 7 8 8 8 12 24 39 38 45 54 58 39 36
13 15 14 14 16 16 15 20 21 21 21 22 14 8 4 4 3 3 2 3 4 5 4 3 3 3 3 3 4 4 4 4 4 4 5 6 7 8 8 8 9 12 19 30 38 40 46 49 44
19 18 20 23 23 17 22 23 20 23 29 31 25 18 10 5 4 3 3 4 6 8 8 5 4 4 4 4 4 4 4 5 5 5 5 6 8 9 9 8 9 10 11 13 18 29 43 51 46
27 24 24 25 26 26 27 26 30 32 28 35 33 23 16 12 8 5 4 4 4 8 13 13 8 7 6 6 6 6 6 6 7 7 7 8 8 9 10 10 10 11 11 12 12 14 17 21 24

GFSSGP_250_rhum_111.txt.gz
RH
62 53 65 62 67 62 52 51 40 26 23 23 21 21 22 23 26 30 34 39 36 48 60 62 52 68 87 96 91 78 62 61 66 73 80 73 65 54 54 62 65 50 70 96 78 71 73 96 81
61 65 59 68 67 71 60 64 59 52 49 37 34 30 23 22 20 21 24 25 26 34 47 50 52 58 68 67 70 87 72 68 66 76 72 76 68 64 59 52 61 62 50 48 54 63 80 86 68
58 60 53 64 63 51 65 62 62 64 58 57 65 63 52 34 24 22 22 24 23 24 30 30 46 50 48 75 93 93 96 86 73 66 66 67 70 74 64 62 53 47 49 54 53 52 49 48 45
66 72 70 66 66 69 61 78 78 76 70 66 58 58 76 62 52 32 25 27 26 25 35 30 34 38 37 47 66 86 92 94 85 73 61 66 65 62 60 56 57 54 50 49 52 52 54 54 51
65 70 71 76 71 72 69 65 78 84 82 78 76 68 53 69 66 62 42 31 30 28 26 25 27 27 26 24 41 57 74 78 94 98 90 80 72 66 64 73 83 76 65 53 56 58 59 57 56
64 70 76 73 79 85 77 72 70 78 83 85 84 79 76 66 66 67 66 63 48 41 41 29 27 28 27 25 24 44 69 70 76 97 100 100 100 92 78 66 80 100 95 74 67 65 62 62 62
76 74 79 78 70 77 74 75 70 80 98 100 94 83 79 80 83 78 72 63 58 57 64 56 43 37 30 29 34 36 46 61 71 54 71 76 83 87 86 86 75 71 96 88 74 89 100 98 77
100 100 88 71 91 89 84 78 96 74 57 66 93 100 89 84 91 89 83 80 75 71 73 67 58 46 47 48 37 39 80 92 83 56 48 32 34 41 51 54 63 69 80 90 91 85 100 100 100
96 100 100 100 97 88 76 90 91 98 63 49 66 94 100 100 100 94 95 92 88 84 73 64 72 63 46 40 45 46 61 90 96 82 73 67 53 47 32 28 26 30 35 75 75 75 77 82 97
89 84 94 96 86 86 100 100 91 85 68 75 57 49 57 82 100 100 99 99 86 90 86 83 69 67 74 73 59 60 54 66 100 99 99 97 87 63 65 70 78 43 29 26 28 33 38 49 63
78 80 78 84 97 90 97 99 92 84 64 69 68 53 45 41 42 53 55 69 78 80 82 86 79 74 82 72 69 74 68 51 58 96 100 100 100 94 100 100 100 100 96 71 48 31 26 33 27
72 66 57 62 77 72 63 67 91 86 73 64 72 57 60 59 49 53 54 52 53 81 95 99 96 84 68 77 74 67 72 71 59 69 94 100 100 100 100 100 100 100 100 100 99 83 62 62 64
86 79 69 68 67 63 69 72 71 76 69 57 49 51 56 57 61 61 61 56 54 55 51 48 68 62 53 52 70 66 65 61 65 67 75 90 95 100 100 100 100 100 98 98 99 100 96 76 65
79 81 72 78 84 78 83 85 73 76 71 65 49 53 59 55 65 56 57 56 48 45 44 36 35 40 47 44 44 46 52 46 51 56 55 67 81 93 100 100 100 100 100 96 99 100 99 83 74
100 100 98 90 79 85 100 99 91 80 89 90 76 72 78 66 77 78 57 54 46 36 35 30 25 24 31 31 31 35 37 41 42 42 40 49 52 73 88 82 93 100 100 100 100 93 97 90 93
57 63 93 90 81 79 87 85 81 80 96 95 78 62 66 71 66 78 82 66 47 31 22 22 28 24 20 30 29 20 23 27 33 32 32 39 38 41 68 75 70 97 100 100 100 100 100 99 98
24 22 24 21 21 19 22 22 22 32 65 85 81 72 62 53 47 48 44 39 36 32 21 13 10 12 15 14 16 18 18 15 21 25 31 29 38 40 31 61 50 84 93 100 99 100 100 100 100
34 35 31 22 25 18 15 15 15 16 16 15 14 13 13 13 11 9 8 8 7 6 6 5 5 6 6 9 10 9 12 11 11 12 18 22 28 28 33 35 39 55 65 72 86 73 77 100 100
67 66 57 42 36 38 29 32 27 23 17 12 11 12 10 10 9 8 7 6 6 4 4 4 4 4 3 3 4 6 7 7 8 9 9 11 14 24 22 28 35 60 50 46 56 47 46 92 93
84 78 77 57 55 53 57 38 36 28 22 18 18 18 14 12 11 8 7 5 4 3 3 3 3 3 3 2 2 3 4 5 7 9 8 7 8 11 17 20 28 33 50 29 32 32 41 42 56
91 90 79 63 60 49 63 50 44 34 29 23 20 17 14 14 9 6 5 4 4 4 3 3 3 3 2 2 2 2 3 4 4 6 7 8 8 10 16 16 17 24 41 30 26 22 26 36 46
78 76 59 51 48 49 46 43 52 47 29 20 17 15 16 11 6 4 4 4 3 3 2 2 2 2 2 2 2 3 3 3 4 5 6 6 7 8 12 18 16 23 51 26 25 18 20 28 39
64 68 72 71 64 53 50 48 38 25 21 20 20 16 12 7 4 4 4 3 3 2 2 2 2 2 2 2 2 2 2 2 4 5 5 5 6 7 11 18 24 26 40 38 29 15 18 27 26
49 46 44 44 42 40 38 33 26 21 23 18 11 8 8 6 4 4 4 3 3 2 2 2 2 2 2 2 2 2 3 3 4 5 5 4 4 5 6 10 17 14 22 29 36 33 19 22 26
38 33 27 23 20 20 21 20 18 15 12 11 12 11 9 6 5 4 3 3 3 2 2 2 2 2 2 2 2 2 2 3 4 5 4 3 3 4 4 6 9 12 18 26 29 40 39 45 29
18 18 18 16 14 12 11 11 13 15 13 14 14 13 11 7 5 4 3 3 3 2 2 2 2 3 2 2 2 2 3 3 3 4 2 2 3 4 5 5 6 7 11 19 31 42 39 40 42
14 14 16 16 15 12 12 13 15 17 18 17 18 16 11 7 4 4 4 3 3 4 4 4 4 3 3 3 3 3 3 4 4 4 3 5 6 5 5 6 6 6 7 9 16 27 40 37 39
16 16 17 16 14 16 19 21 22 21 17 23 22 21 17 12 8 5 4 4 4 6 6 6 5 4 3 3 4 4 4 4 4 5 5 5 6 7 7 7 6 6 8 8 9 10 15 30 43
33 29 29 28 28 27 26 27 29 28 28 30 30 28 26 20 16 14 10 6 6 7 10 9 6 5 5 4 4 4 4 4 4 4 4 5 5 6 6 7 7 8 9 9 10 11 11 13 15
50 51 49 45 43 42 41 42 41 39 37 40 42 38 34 28 22 18 16 18 14 8 9 11 12 8 8 6 7 7 7 7 7 7 6 6 5 5 5 6 6 8 10 11 11 11 11 12 12

GFSSGP_250_rhum_114.txt.gz
RH
42 39 33 44 48 51 34 25 28 29 23 22 20 20 19 20 19 21 24 38 42 58 69 66 63 58 55 70 91 83 82 79 72 76 99 96 82 72 70 59 53 55 62 59 50 45 49 48 45
66 54 49 48 64 61 46 55 52 51 40 41 27 24 22 20 19 21 22 21 21 24 29 34 45 42 52 73 71 100 100 97 86 78 95 98 90 81 82 74 65 59 58 61 62 57 48 46 47
57 57 56 58 52 53 57 64 62 56 57 50 46 38 33 31 24 26 23 20 19 19 19 24 26 26 38 59 61 52 85 100 100 97 89 95 100 100 87 70 76 73 74 65 50 50 51 47 47
53 62 62 59 60 41 57 60 57 57 64 64 62 59 56 45 37 44 42 36 34 23 19 20 51 36 34 26 38 55 62 67 100 100 100 100 93 84 98 92 71 64 62 60 66 62 64 62 52
58 54 62 62 60 54 52 57 60 62 60 72 78 75 70 64 56 53 47 44 49 51 36 24 24 52 47 27 29 31 41 42 59 98 100 100 100 100 96 100 97 84 79 70 72 86 81 69 64
57 58 58 54 50 58 63 66 59 65 66 63 66 73 88 78 78 70 67 66 60 57 61 57 44 44 47 35 25 22 22 26 27 37 60 90 100 100 100 100 100 100 95 83 76 97 100 96 83
59 57 59 62 62 66 67 69 67 65 73 72 72 70 88 95 92 87 79 79 74 77 68 62 59 54 54 59 46 34 27 24 25 30 38 56 69 71 81 100 100 100 100 100 100 93 100 100 100
95 73 70 66 69 62 62 68 72 69 67 68 66 71 77 82 91 100 94 86 85 81 80 76 67 66 62 61 61 55 46 40 37 34 44 74 78 64 53 58 76 83 86 86 87 92 100 100 100
100 100 100 92 80 77 67 66 74 76 75 77 76 72 73 78 67 60 70 89 94 96 88 88 76 69 66 68 64 64 58 50 36 38 42 70 94 85 68 51 48 46 42 31 39 56 72 86 100
76 81 100 100 100 100 100 94 86 83 81 90 78 62 70 81 84 75 62 56 71 96 100 99 88 90 93 71 72 64 69 66 55 46 49 57 71 88 90 78 86 77 62 52 34 40 54 62 66
84 70 66 93 100 100 100 100 100 100 100 100 100 100 100 99 89 63 57 53 47 46 54 76 88 84 78 80 64 62 58 68 67 68 68 62 62 61 86 98 90 96 80 79 79 64 57 42 50
95 79 80 71 92 94 90 90 76 94 97 95 91 72 63 70 68 72 63 46 54 46 42 46 47 54 59 57 56 66 54 50 59 62 57 75 79 62 54 84 98 99 100 96 100 93 87 75 81
99 95 82 72 73 82 86 94 95 77 70 74 82 84 75 76 75 69 75 64 53 47 46 47 49 46 44 48 49 61 78 66 59 49 76 55 72 83 88 79 90 100 100 100 100 100 96 92 82
100 98 86 79 72 67 65 68 75 62 62 62 59 60 64 59 61 67 68 78 66 54 43 42 46 55 50 39 40 42 38 46 45 54 56 61 63 58 73 83 87 89 98 100 100 100 100 100 90
100 95 93 91 84 72 65 69 76 76 80 64 68 70 67 68 72 69 62 59 56 50 48 48 49 41 39 44 35 27 26 26 29 33 39 44 58 72 48 58 85 99 96 93 100 100 100 100 100
100 100 89 100 88 86 78 74 75 64 66 71 65 64 67 68 64 67 73 63 56 44 35 36 30 31 29 27 23 22 21 20 21 24 25 26 32 47 52 40 47 70 94 96 86 97 99 100 100
100 100 100 100 99 98 90 88 73 83 79 74 63 56 62 62 63 55 52 51 48 46 43 37 26 21 17 14 17 16 16 15 20 14 18 21 19 27 34 39 38 38 54 75 96 99 92 96 100
68 90 90 83 78 66 67 55 46 49 53 56 58 56 51 38 18 12 11 11 14 18 21 25 25 21 16 12 10 10 11 11 14 12 11 15 17 14 17 26 30 32 34 45 65 92 96 82 79
19 22 26 42 28 23 23 20 15 15 14 12 13 14 15 13 11 11 11 11 10 9 8 7 6 5 5 4 4 4 4 4 5 7 8 12 10 11 10 13 19 28 34 26 36 64 48 75 76
31 31 31 24 21 21 22 20 18 18 17 17 14 12 12 12 11 10 10 9 8 6 5 5 5 5 4 4 4 4 4 4 3 4 4 5 7 7 8 10 12 15 23 32 32 38 53 39 55
44 39 36 33 30 23 20 19 18 21 22 21 16 14 13 16 20 13 9 7 5 5 5 5 5 5 4 4 4 3 3 3 3 3 3 4 5 7 9 11 11 12 15 21 37 38 52 74 31
44 40 38 36 32 28 27 29 36 42 32 29 25 23 23 27 16 12 8 6 6 5 4 4 3 3 3 2 2 2 2 2 2 2 3 3 4 5 7 14 7 10 16 19 21 32 48 73 66
50 50 50 46 43 39 40 45 54 44 34 25 23 24 21 20 14 8 6 6 5 5 4 3 2 2 2 2 2 2 2 2 2 2 3 3 4 7 7 9 6 8 13 17 20 22 26 36 43
51 54 49 41 35 37 33 28 28 24 21 22 22 20 16 12 10 8 6 5 5 4 3 2 2 2 2 2 2 2 2 2 2 2 2 3 4 6 12 7 7 7 6 8 16 20 24 30 40
49 43 39 33 32 33 29 27 24 19 16 15 14 14 12 11 10 10 7 4 4 3 3 3 3 2 2 2 2 2 2 2 2 2 2 3 4 7 7 8 6 6 6 5 7 10 18 28 34
40 37 24 18 17 17 15 14 13 14 16 16 15 16 20 17 17 11 7 5 4 4 3 4 4 4 3 3 3 3 3 3 2 2 3 4 4 5 6 6 4 5 5 5 5 6 8 14 26
14 14 14 14 13 13 14 14 14 14 18 22 26 27 31 24 20 20 14 14 9 4 4 4 7 7 5 4 3 4 3 4 4 3 3 4 4 4 4 3 3 4 5 6 6 6 7 8 11
22 22 25 22 19 17 18 23 27 33 31 34 36 37 36 36 33 33 32 26 21 13 7 8 8 11 7 6 5 4 4 4 4 5 7 6 6 6 5 6 7 8 11 10 8 7 7 8 8
34 33 32 32 32 34 36 37 36 38 40 40 40 39 39 39 40 40 39 36 34 29 18 10 10 13 13 7 7 6 6 7 7 6 7 7 8 10 13 12 11 9 9 9 8 8 8 8 8
34 35 36 36 38 38 38 38 40 41 41 42 44 44 43 41 39 36 36 35 34 34 34 29 18 11 14 16 13 9 7 6 6 8 8 7 7 8 7 7 7 6 6 6 7 8 8 9 9

GFSSGP_250_rhum_117.txt.gz
RH
35 29 23 20 21 19 18 23 22 21 18 18 18 18 20 18 17 17 18 17 18 20 36 62 80 77 68 74 69 68 60 63 85 89 94 100 100 98 90 95 90 93 73 64 59 55 53 53 49
50 45 31 25 24 21 22 41 40 27 23 23 23 23 21 20 20 19 18 18 18 17 19 25 31 36 54 63 60 63 63 84 85 85 85 98 93 100 100 100 90 89 84 70 62 64 64 59 58
47 54 49 43 32 30 36 62 58 43 37 39 36 28 35 29 25 28 30 29 26 21 19 19 20 26 41 41 35 36 40 80 95 100 98 89 100 90 92 100 100 99 87 79 71 65 71 63 58
56 47 60 64 47 41 45 60 58 50 52 41 44 43 38 37 40 39 30 30 33 29 29 27 26 20 32 87 71 46 37 49 63 59 61 100 100 100 100 100 100 100 99 96 92 87 76 62 59
57 56 53 49 50 55 58 50 45 53 51 45 50 45 44 55 54 49 50 48 37 32 27 23 23 32 28 27 36 50 55 46 41 44 63 69 71 97 100 100 100 100 100 100 99 92 88 78 78
53 56 60 54 40 46 55 58 57 60 54 46 49 57 52 55 52 59 67 68 67 60 52 39 32 23 25 30 30 37 39 34 35 34 32 37 44 56 95 100 100 100 100 100 100 100 100 100 97
70 58 66 66 57 52 54 51 48 53 61 60 60 63 71 68 54 58 47 59 78 85 78 65 55 50 44 41 37 36 42 44 40 33 36 29 26 27 32 46 64 89 100 100 100 100 100 100 100
90 97 92 78 69 64 59 60 56 55 63 61 60 70 72 73 63 63 57 65 71 74 88 96 84 80 76 73 72 52 42 35 40 42 49 44 38 32 32 38 54 62 71 81 84 89 97 100 100
97 99 100 100 100 82 69 64 62 63 64 66 68 70 74 73 71 70 70 66 71 74 62 55 63 93 92 99 93 92 84 59 51 43 41 52 55 45 39 41 73 83 74 61 59 56 55 52 56
100 100 87 91 89 100 97 76 76 77 75 68 64 64 67 73 76 80 82 73 60 71 72 68 64 55 51 60 84 92 95 96 89 78 57 49 51 56 55 50 49 53 69 82 85 87 78 52 33
100 99 81 70 63 74 100 100 100 100 100 92 88 84 84 84 88 87 89 100 99 98 97 98 77 58 57 57 53 56 83 82 82 94 86 70 69 62 64 67 60 47 52 53 70 78 76 71 54
98 100 87 79 64 100 73 99 100 100 100 100 100 100 100 100 100 100 100 100 100 94 85 82 78 63 58 53 50 52 48 48 58 68 63 83 63 63 67 71 70 74 72 63 52 70 95 89 76
90 87 71 57 68 87 85 85 83 74 70 81 92 96 91 88 76 78 94 98 84 81 76 63 63 72 55 46 40 43 41 41 44 41 45 43 45 49 55 55 65 76 80 88 76 74 94 99 82
100 99 80 83 95 89 92 88 78 79 74 62 60 81 92 94 76 60 62 66 64 64 62 61 59 51 51 49 42 34 32 33 35 43 42 38 34 37 46 45 45 53 73 76 92 95 98 100 94
97 88 85 74 78 70 89 82 79 71 64 69 73 65 64 61 57 62 50 43 44 45 46 49 47 43 40 46 51 38 27 26 25 31 37 37 36 33 35 44 47 45 48 55 73 92 96 95 100
99 95 93 80 83 79 70 73 91 98 94 80 70 65 65 56 50 50 52 53 51 52 52 52 48 44 39 36 34 32 26 24 25 21 19 24 28 31 29 30 29 31 49 39 51 66 83 89 96
100 100 94 94 85 74 72 84 85 85 80 69 64 63 69 64 55 57 55 44 44 50 49 50 48 41 37 34 28 25 19 16 16 19 17 17 18 21 24 27 29 29 25 35 38 46 74 82 88
96 96 98 93 90 90 88 92 71 60 61 64 63 56 52 54 58 59 56 52 48 50 46 43 40 33 25 24 19 9 6 7 7 8 10 10 12 13 15 16 19 27 24 22 25 30 46 71 68
79 84 73 60 87 85 79 87 79 72 66 64 54 58 56 48 44 40 31 26 17 12 10 10 9 9 9 7 6 5 6 6 6 6 6 8 9 10 12 13 15 17 19 23 24 21 34 41 50
18 17 15 21 72 42 26 34 31 42 57 46 22 28 26 14 11 10 10 9 10 9 8 8 7 7 6 6 6 6 5 5 5 4 4 4 4 4 5 5 6 9 11 15 20 20 25 32 38
32 29 24 21 21 20 20 22 21 20 18 16 16 14 12 12 12 14 13 10 10 9 7 6 6 6 5 5 4 4 4 3 3 3 3 3 4 4 4 5 4 5 5 6 10 18 29 26 36
48 43 41 40 38 35 34 31 33 28 23 20 17 16 17 17 16 15 14 13 11 9 7 6 6 4 4 3 3 3 2 2 2 2 2 2 2 3 4 4 5 5 6 6 7 7 14 25 35
47 44 44 43 41 36 31 27 32 31 26 23 20 19 18 19 18 15 14 14 10 8 7 6 5 3 3 3 2 2 2 2 2 2 2 2 2 2 2 3 5 6 7 12 9 7 7 7 12
44 44 40 35 32 31 30 28 31 26 23 25 27 24 19 15 13 14 13 12 13 10 6 4 4 3 4 4 3 2 2 2 2 2 2 2 2 2 2 3 4 11 24 26 13 8 7 6 7
37 35 35 35 35 35 31 31 29 27 18 16 14 13 13 14 18 20 18 19 16 13 9 5 4 5 5 4 4 4 3 2 2 2 2 2 2 2 2 3 4 7 24 34 32 11 10 6 7
37 39 37 36 30 23 15 16 15 14 14 15 15 19 23 29 31 37 39 34 30 27 21 14 9 5 4 6 5 5 4 4 4 3 3 3 3 3 2 3 5 10 15 18 21 38 29 8 6
25 20 18 17 15 15 15 15 14 16 18 23 28 32 34 36 35 36 35 33 32 31 29 26 23 15 11 9 7 6 5 4 4 4 4 4 4 4 4 4 4 6 11 20 19 21 15 8 6
32 33 33 28 24 23 28 29 28 30 31 33 35 37 37 40 44 44 42 41 36 33 29 28 24 22 18 12 12 9 9 6 5 5 5 5 6 6 6 5 5 6 7 6 8 6 6 6 6
31 30 29 29 29 30 30 30 32 33 33 32 32 32 32 34 33 33 33 35 33 32 33 30 27 26 27 27 21 17 18 16 12 9 7 8 8 8 10 9 8 8 6 6 6 8 16 25 28
34 32 32 32 33 32 34 36 33 28 24 20 21 23 25 27 26 25 24 24 23 24 28 31 34 32 29 29 28 28 26 26 28 27 19 12 9 20 17 12 18 12 16 20 16 35 28 22 20

GFSSGP_250_rhum_120.txt.gz
RH
32 24 21 19 16 14 17 21 24 34 84 68 66 55 28 20 18 19 18 18 18 18 20 25 33 43 57 72 86 92 82 78 76 67 58 63 98 100 100 100 95 87 94 85 79 75 70 67 69
46 29 28 24 21 18 20 21 22 24 23 23 23 21 19 18 20 20 20 20 19 18 17 18 18 24 39 56 63 60 55 63 69 68 63 60 76 76 93 99 100 100 99 87 78 78 71 65 67
60 42 41 31 31 31 21 22 20 19 24 32 32 31 27 24 25 26 29 24 22 22 22 24 32 32 21 29 29 41 48 53 48 50 56 64 100 94 75 75 85 84 95 98 91 84 83 79 72
68 66 51 46 41 38 32 28 25 23 26 37 41 38 31 34 35 32 32 34 28 23 23 26 23 45 33 34 22 56 82 73 48 37 36 61 78 97 100 100 100 100 100 92 100 100 98 87 89
58 68 65 54 51 50 46 41 36 33 33 35 38 41 43 38 31 28 26 28 26 24 23 22 22 38 20 22 32 34 35 50 55 60 56 45 58 63 54 52 75 94 100 100 94 88 97 95 93
50 54 66 63 58 53 58 64 46 45 43 42 42 43 40 36 37 36 31 32 33 34 38 32 28 28 26 23 24 23 29 39 44 49 51 49 46 44 41 46 56 60 69 100 100 97 100 100 100
57 55 49 49 60 59 58 56 62 60 58 55 52 49 45 42 42 42 42 45 48 48 47 50 44 40 46 47 42 36 31 28 36 35 41 51 46 44 42 32 30 32 38 64 92 97 100 100 100
76 66 62 61 48 55 58 61 56 53 52 53 56 61 57 52 53 57 57 52 54 53 51 56 54 47 45 50 60 65 70 72 67 51 46 45 38 41 44 47 39 33 30 29 39 52 64 80 96
83 92 99 77 65 58 58 59 68 66 61 61 62 61 57 58 61 62 62 60 63 67 68 68 71 69 63 59 58 57 47 44 52 75 88 88 76 66 54 48 47 41 38 38 54 63 77 67 68
94 98 77 99 99 76 76 73 82 85 81 75 72 66 65 65 65 67 67 68 67 70 74 80 83 77 79 80 82 77 68 61 57 50 48 58 72 82 78 74 57 43 43 40 47 62 79 94 79
100 100 100 96 82 94 100 100 100 100 100 99 95 84 81 82 86 85 84 77 72 79 86 92 96 93 94 99 100 99 90 88 71 56 50 59 62 62 67 79 73 60 47 44 49 47 51 49 63
78 100 100 95 98 100 99 88 86 83 87 81 80 82 98 99 94 100 100 100 100 100 98 94 100 100 99 100 97 86 76 64 65 58 47 45 50 52 57 50 56 68 67 64 56 56 50 44 48
97 100 86 84 98 99 100 100 100 81 77 64 62 77 95 100 100 100 100 99 89 94 99 94 84 80 68 64 70 66 57 53 49 48 44 36 32 37 41 41 44 42 41 61 56 62 71 67 54
95 82 77 82 96 98 100 100 100 94 66 58 54 58 60 71 73 70 67 64 68 81 94 89 81 62 51 48 43 46 46 38 37 34 37 31 30 29 31 35 38 36 34 34 38 50 52 69 73
98 91 84 83 84 76 88 91 84 89 82 65 59 62 67 69 64 53 53 59 60 57 54 51 55 60 54 44 37 32 30 28 28 27 25 28 28 25 24 23 26 31 34 42 38 35 43 50 52
91 89 90 93 90 92 84 78 78 69 74 67 62 59 64 59 69 73 72 71 65 58 57 53 48 47 46 43 41 38 32 27 31 31 28 25 24 26 24 23 23 24 26 30 38 43 40 42 37
100 100 100 91 88 82 85 88 82 77 85 77 66 67 62 63 53 52 58 61 60 56 50 48 46 43 40 37 34 34 30 28 27 29 27 30 22 20 19 20 22 21 20 27 28 32 39 38 33
100 100 100 100 96 87 82 78 72 76 75 69 67 62 59 52 56 52 45 51 50 46 41 43 43 43 40 38 35 30 32 31 29 26 17 12 12 12 12 16 17 18 12 14 22 25 28 31 32
31 47 65 79 100 100 100 100 81 70 74 79 87 74 65 53 68 65 58 50 38 34 39 31 16 14 13 10 9 8 7 6 6 6 6 6 6 6 6 6 6 6 6 6 8 15 22 30 31
26 25 20 17 44 77 80 73 70 75 77 71 56 47 29 53 40 16 14 12 12 13 12 10 10 10 8 7 6 6 5 5 5 4 4 4 4 4 4 4 5 5 5 6 6 6 8 16 20
31 26 24 22 22 20 19 18 22 25 22 19 16 15 20 18 14 12 12 11 11 13 14 14 13 14 10 8 7 6 5 4 4 3 3 3 3 3 4 4 4 4 5 6 6 6 6 8 12
35 29 25 24 25 24 22 18 25 20 19 17 16 18 18 20 21 20 21 22 20 19 17 17 17 13 9 8 6 4 4 3 3 3 2 2 2 2 2 2 3 3 4 5 6 6 6 7 8
41 40 38 36 36 35 32 26 42 29 24 26 27 28 33 36 30 23 24 20 18 15 15 20 22 18 12 8 5 4 4 3 3 3 3 2 2 2 2 2 2 3 3 4 5 6 8 8 10
39 39 38 38 39 37 33 29 39 38 37 36 35 34 28 24 19 15 14 14 14 21 27 27 23 20 15 9 6 7 8 5 4 3 3 2 2 2 2 2 2 2 3 3 5 9 11 14 12
38 35 33 34 34 35 36 36 37 36 30 26 21 16 14 15 14 14 21 29 33 36 30 26 25 24 25 19 10 8 10 8 6 5 5 4 3 2 2 2 2 2 2 3 5 8 16 39 18
32 32 32 33 30 24 18 15 13 12 12 12 13 15 16 21 29 32 36 39 35 34 33 30 27 24 21 19 18 14 8 9 7 5 4 5 5 4 3 3 3 3 3 3 4 6 10 31 36
23 19 23 22 21 18 18 19 19 19 20 24 30 33 35 37 36 34 33 34 30 30 30 29 26 25 25 24 24 22 20 9 9 7 5 5 5 5 4 4 4 4 4 3 4 5 8 29 49
42 40 39 37 35 36 32 32 31 31 32 31 29 28 27 27 28 27 26 27 27 25 24 23 21 19 17 17 20 24 26 25 19 13 11 6 7 6 6 6 6 6 6 7 14 11 14 15 16
46 43 41 38 35 34 33 33 33 33 32 32 33 35 34 34 35 36 37 38 39 39 39 36 33 31 31 30 24 20 20 22 26 25 22 15 11 10 10 16 16 17 11 9 9 11 11 9 12
44 42 38 37 36 35 37 38 35 36 41 44 45 46 47 47 47 44 39 36 37 37 38 39 37 36 35 32 28 26 21 16 17 20 25 29 30 24 20 19 21 34 46 24 34 20 15 14 16

GFSSGP_250_rhum_123.txt.gz
RH
26 30 23 18 18 19 19 18 16 16 15 19 20 31 60 95 93 72 52 29 21 18 18 19 20 23 24 27 46 55 53 57 70 77 78 75 73 67 59 100 96 79 81 76 76 79 75 70 59
29 23 23 24 24 22 21 19 16 15 16 18 20 30 56 30 25 20 18 17 18 19 19 18 24 23 30 27 28 31 36 49 48 56 56 54 72 70 55 56 88 100 100 100 100 97 91 88 81
41 35 31 41 31 26 26 25 21 20 19 18 20 24 22 23 22 22 20 20 21 21 22 21 20 27 50 56 35 37 42 39 38 46 48 48 50 59 57 47 55 60 68 100 100 100 100 95 90
45 46 54 58 44 38 38 34 32 27 22 22 21 25 26 28 29 30 27 24 25 24 26 27 24 22 38 86 41 32 35 29 38 63 85 74 49 39 40 46 68 80 92 89 95 100 100 95 98
48 50 53 62 58 52 46 42 38 34 31 29 27 27 28 30 31 31 30 28 28 26 24 24 24 23 21 24 49 42 37 37 43 43 45 49 51 54 53 44 52 72 72 70 73 81 88 96 100
44 55 53 56 66 66 56 52 47 41 39 36 34 31 32 33 31 34 36 34 30 28 27 26 26 26 24 22 30 25 28 30 42 34 37 38 46 50 51 52 54 60 57 46 50 50 64 69 84
56 43 56 55 61 70 65 60 55 52 51 50 45 40 42 42 48 45 41 38 37 38 39 37 35 38 37 35 34 32 30 28 29 35 40 49 49 43 43 46 47 48 51 49 52 38 40 53 78
93 70 49 57 55 58 65 68 62 54 55 55 61 51 50 47 48 48 51 55 55 54 58 60 58 51 46 45 48 52 50 42 40 42 40 36 42 42 48 48 40 37 39 46 51 49 45 35 41
95 95 98 98 69 57 54 53 54 56 58 59 56 54 54 55 55 54 58 61 59 60 62 65 65 66 69 70 71 72 76 69 63 55 53 56 47 41 46 45 44 44 48 42 36 42 48 53 59
95 92 100 100 91 76 59 56 60 60 56 55 57 61 68 68 68 67 67 68 67 67 69 70 70 72 72 72 74 81 86 90 83 81 76 71 74 63 52 55 43 48 46 38 42 36 34 42 48
100 100 99 100 100 93 90 88 80 80 71 62 65 62 64 80 86 83 75 73 81 79 82 88 94 99 98 84 86 90 100 89 76 89 99 96 83 88 78 61 50 43 38 46 48 40 48 36 35
94 100 100 88 93 97 87 79 86 84 100 100 96 91 100 100 100 97 91 89 84 88 92 86 75 71 68 80 78 79 95 97 96 96 70 69 65 68 65 67 51 40 39 38 41 45 42 42 43
100 99 99 100 100 100 93 93 88 90 81 77 98 99 100 99 95 84 78 73 66 66 67 79 78 77 78 77 74 71 67 66 68 67 63 54 48 44 40 36 40 39 35 32 33 38 48 44 37
84 97 87 80 92 100 94 90 96 92 91 84 87 91 95 96 90 81 73 70 62 54 53 59 62 65 63 58 58 60 61 53 56 64 63 58 48 44 39 35 36 33 30 31 26 27 33 40 48
72 95 96 88 87 88 83 79 73 88 92 90 85 94 98 95 100 88 67 65 57 48 49 50 53 53 56 52 50 47 46 42 45 41 38 37 34 33 33 28 26 27 28 27 27 27 28 31 37
95 97 90 80 88 96 92 90 85 73 67 70 79 63 57 72 77 74 70 60 55 52 50 49 53 55 50 47 49 49 51 49 44 39 35 33 31 31 31 27 24 24 21 21 24 26 27 32 32
100 100 100 96 87 89 95 93 92 91 87 82 79 72 69 70 70 72 70 62 60 59 55 52 49 47 45 40 41 36 44 40 30 26 26 25 24 20 18 17 18 18 16 16 18 20 24 26 27
80 92 100 100 100 90 87 89 92 87 84 88 84 84 71 75 73 66 64 64 62 61 56 57 57 42 30 32 24 18 11 10 9 10 11 10 7 7 7 7 8 12 14 14 12 8 9 10 16
22 45 91 94 92 93 95 98 90 85 89 90 86 68 69 65 66 68 63 59 55 58 59 48 22 16 20 14 9 9 8 7 6 6 6 6 6 5 5 4 4 5 5 6 6 6 6 5 6
18 20 37 51 63 61 50 40 51 62 56 46 44 55 70 75 70 66 58 46 39 32 22 17 14 13 13 14 14 12 10 8 7 6 5 5 4 4 4 4 4 4 4 5 5 6 7 7 6
21 22 22 23 19 18 18 17 21 19 20 19 14 20 27 26 23 19 16 16 14 16 20 20 21 24 21 18 16 11 9 8 8 6 4 3 3 2 3 3 3 3 3 3 4 4 5 6 7
28 27 27 28 26 26 25 19 31 25 18 13 12 14 15 15 16 20 24 25 25 25 24 23 21 19 16 13 11 14 16 16 13 10 7 4 3 3 2 2 2 2 2 2 3 3 4 5 6
41 40 39 36 38 38 38 23 42 27 14 14 19 27 30 33 35 34 31 27 24 22 17 14 12 11 12 17 28 30 28 24 21 14 8 6 5 4 3 3 3 2 2 2 3 3 3 4 5
39 38 36 38 38 36 30 24 41 29 31 34 34 34 34 33 30 28 24 18 13 12 12 13 17 24 34 34 31 26 21 20 20 19 13 8 7 5 4 3 3 3 2 2 2 2 3 3 4
37 34 33 33 34 32 32 29 29 27 27 28 27 24 22 18 14 12 13 16 23 31 36 39 39 36 32 28 24 22 21 19 18 18 16 10 10 6 6 5 4 4 3 2 2 3 2 3 4
32 32 29 27 25 22 17 15 14 13 13 13 14 16 20 26 33 39 41 42 40 40 38 33 26 22 23 22 20 18 14 13 15 16 17 16 10 10 7 6 5 4 4 4 3 3 3 3 4
30 32 38 37 34 33 31 31 31 30 30 32 34 37 40 36 31 31 33 35 39 42 43 42 39 36 34 32 30 28 26 23 20 14 13 16 18 14 12 8 6 5 4 4 4 4 3 4 4
34 35 35 38 39 40 41 42 42 43 42 42 41 40 38 37 39 43 47 48 48 47 46 44 43 38 33 28 25 24 24 24 23 22 21 18 15 18 18 13 10 6 6 5 5 5 5 4 4
46 42 42 43 47 48 48 49 47 42 39 36 34 36 37 39 41 44 46 46 43 43 44 44 43 43 43 43 41 36 31 25 20 19 19 20 20 20 19 18 19 15 11 9 8 11 10 8 10
63 62 60 59 59 59 58 55 47 44 43 44 48 48 46 45 45 43 42 46 52 54 55 54 52 51 51 46 41 37 34 32 30 23 20 18 17 18 18 19 20 19 21 16 17 20 28 35 30